     2.10           OBSERVATION DATA    G (GPS)             RINEX VERSION / TYPE
teqc 2002Mar14 20070717 09:05:26UTC                         PGM / RUN BY / DATE
MSWin2000|IAx86-PII|bcc32 5.0|MSWin95/98/NT/2000|486/DX+    COMMENT
teqc 2002Mar14 20070717 09:02:47UTC                         COMMENT
teqc 2002Mar14 20070713 07:55:21UTC                         COMMENT
BIT 2 OF LLI FLAGS DATA COLLECTED UNDER A/S CONDITION       COMMENT
SNR is mapped to RINEX snr flag value [1-9]                 COMMENT
L1: 3 -> 1; 8 -> 5; 40 -> 9                                 COMMENT
L2: 1 -> 1; 5 -> 5; 60 -> 9                                 COMMENT
Forced Modulo Decimation to 15 seconds                      COMMENT
teqc windowed: start @ 2007 Apr 21 12:18:45.000             COMMENT
64861110.T00                                                MARKER NAME
6486                                                        MARKER NUMBER
-Unknown- -Unknown-                                         OBSERVER / AGENCY
0220266486 TRIMBLE 5700 NP 1.04 / SP 0.00                   REC # / TYPE / VERS
00000000 TRM41249.00                                        ANT # / TYPE
        0.0000        0.0000        0.0000                  APPROX POSITION XYZ
        0.0000        0.0000        0.0000                  ANTENNA: DELTA H/E/N
     1     1                                                WAVELENGTH FACT L1/2
     6    L1    L2    C1    P2    P1    D1                  # / TYPES OF OBSERV
    15.0000                                                 INTERVAL
teqc windowed: start @ 2007 Apr 23 00:00:00.000             COMMENT
teqc windowed: delta = 86400.000 sec                        COMMENT
  2007     4    23     0     0    0.0130000     GPS         TIME OF FIRST OBS
                                                            END OF HEADER
 07  4 23  0  0  0.0130000  0 10G 1G12G 2G 4G 6G 5G20G14G30G31
 -15277082.55349 -11886002.44247  25488916.0634   25488913.4814
      -553.4224
 -13729607.77049 -10679735.99047  25602575.3924   25602571.3884
     -1959.8754
  -4698298.53249  -3642832.22547  27617308.9314   27617303.5634
      3125.5944
 -10829432.54649  -8421425.93647  26130555.4624   26130553.1424
       687.1254
   -390093.15649   -286043.16046  28501198.1494   28501194.9774
      3462.8594
 -15574780.28949 -12116632.66947  25111838.2514   25111835.3884
     -1537.9694
 -10616846.30349  -8255490.34547  26225314.6184   26225311.8024
     -1257.3594
  -6013557.78849  -4667182.30146  27045013.7434   27045009.2164
     -3402.2664
 -17746600.38349 -13808671.80248  24768028.5714   24768024.9814
       301.5474
 -13860880.01549 -10782439.12648  25803010.6654   25803006.4624
      1742.3754
 07  4 23  0  0 15.0130000  0 10G 1G12G 2G 4G 6G 5G20G14G30G31
 -15268702.74349 -11879472.73147  25490510.6024   25490508.1964
      -563.9374
 -13700144.50849 -10656777.65047  25608182.2044   25608178.0754
     -1968.6094
  -4745139.38049  -3679331.55147  27608395.5484   27608389.6424
      3119.8914
 -10839660.23649  -8429395.51647  26128608.8844   26128605.7744
       676.4694
   -442014.78349   -326501.44446  28491317.1344   28491314.6494
      3460.2814
 -15551634.78149 -12098597.22147  25116243.0404   25116240.1384
     -1548.1254
 -10597906.05949  -8240731.69247  26228919.3844   26228915.8954
     -1267.9064
  -5962480.51649  -4627381.81746  27054732.7514   27054728.2784
     -3408.1254
 -17751040.54049 -13812131.68048  24767183.4774   24767180.1024
       290.4694
 -13886952.88649 -10802755.65647  25798049.1654   25798045.0484
      1733.9384
 07  4 23  0  0 30.0130000  0 10G 1G12G 2G 4G 6G 5G20G14G30G31
 -15260166.51549 -11872821.14347  25492134.9384   25492132.5284
      -574.2344
 -13670550.12449 -10633717.06847  25613814.0954   25613809.9154
     -1977.2664
  -4791895.52349  -3715764.89347  27599498.3134   27599492.5484
      3114.3594
 -10849728.52649  -8437240.94547  26126692.9314   26126690.6884
       665.8914
   -493898.27848   -366930.17246  28481444.5484   28481440.5324
      3457.5784
 -15528337.95049 -12080443.81847  25120676.0324   25120672.7514
     -1558.0784
 -10578808.92949  -8225850.83647  26232554.0794   26232550.7394
     -1278.4064
  -5911315.30849  -4587512.82246  27064470.1104   27064465.1424
     -3413.8594
 -17755314.10149 -13815461.79848  24766370.3764   24766366.5834
       279.3914
 -13912900.15749 -10822974.31848  25793111.5404   25793107.3524
      1725.7034
 07  4 23  0  0 45.0130000  0 10G 1G12G 2G 4G 6G 5G20G14G30G31
 -15251476.06549 -11866049.35747  25493788.7984   25493786.0754
      -584.4844
 -13640827.32549 -10610556.47147  25619470.3454   25619466.2084
     -1985.8754
  -4838568.84749  -3752133.72547  27590616.4544   27590610.7514
      3108.7504
 -10859639.36949  -8444963.65547  26124806.9384   26124804.2864
       655.4534
   -545746.03849   -407331.02346  28471578.7594   28471574.8994
      3455.1254
 -15504892.27449 -12062174.40947  25125137.5404   25125134.1734
     -1568.0624
 -10559556.75749  -8210849.13047  26236216.9544   26236213.7084
     -1288.6414
  -5860064.85449  -4547577.42846  27074222.7984   27074218.2004
     -3419.5624
 -17759423.13849 -13818663.70748  24765588.2674   24765584.9504
       268.4534
 -13938723.99049 -10843096.77847  25788197.3684   25788193.0484
      1717.4844
 07  4 23  0  1  0.0130000  0 10G 1G12G 2G 4G 6G 5G20G14G30G31
 -15242632.90349 -11859158.58447  25495471.6964   25495468.9424
      -594.6874
 -13610977.68949 -10587296.99647  25625150.1814   25625145.8374
     -1994.2974
  -4885160.47149  -3788438.86747  27581750.8524   27581744.4544
      3103.2974
 -10869393.95249  -8452564.61047  26122951.0874   26122947.9774
       645.0164
   -597558.78749   -447704.54846  28461719.3684   28461716.4584
      3453.0164
 -15481299.40149 -12043790.30447  25129627.1574   25129623.5954
     -1577.7664
 -10540151.21949  -8195727.96447  26239910.0404   26239906.5794
     -1298.8914
  -5808730.92949  -4507576.98046  27083991.2744   27083986.4744
     -3425.1254
 -17763369.04849 -13821738.47848  24764837.5014   24764833.6424
       257.5474
 -13964425.46349 -10863123.90147  25783306.4704   25783302.4854
      1709.2344
 07  4 23  0  1 15.0130000  0 10G 1G12G 2G 4G 6G 5G20G14G30G31
 -15233634.84349 -11852147.10647  25497184.0014   25497181.2634
      -604.9374
 -13580999.21249 -10563937.09347  25630854.7124   25630850.2394
     -2002.7974
  -4931667.86149  -3824678.38947  27572900.8844   27572893.9974
      3097.7974
 -10878990.01249  -8460042.10447  26121124.5794   26121121.8994
       634.5634
   -649333.90449   -488048.83146  28451866.0014   28451863.1924
      3450.5634
 -15457557.26949 -12025289.88147  25134144.5714   25134141.1924
     -1587.7194
 -10520590.34349  -8180485.75347  26243632.2594   26243629.1814
     -1309.1254
  -5757311.66749  -4467510.02346  27093776.0874   27093771.3254
     -3430.6724
 -17767149.47649 -13824684.31348  24764118.4314   24764114.6424
       246.6094
 -13990002.08449 -10883053.73948  25778439.3844   25778434.8064
      1701.0164
 07  4 23  0  1 30.0130000  0 10G 1G12G 2G 4G 6G 5G20G14G30G31
 -15224481.92449 -11845014.95247  25498925.8134   25498922.9034
      -615.3444
 -13550892.23849 -10540477.13947  25636584.2594   25636579.2164
     -2011.5164
  -4978090.65249  -3860852.01447  27564066.3844   27564060.0754
      3091.9064
 -10888427.56849  -8467396.06247  26119328.9234   26119325.8804
       623.8134
   -701071.50649   -528363.82246  28442021.3684   28442017.9894
      3447.8444
 -15433666.08649 -12006673.30247  25138691.4544   25138687.9974
     -1597.7194
 -10500874.19149  -8165122.51747  26247384.2124   26247380.4894
     -1319.5784
  -5705807.37549  -4427376.82746  27103576.1104   27103572.2704
     -3436.5164
 -17770764.45549 -13827501.22348  24763430.2274   24763426.5954
       235.3914
 -14015453.66449 -10902886.14047  25773595.8604   25773591.9664
      1692.5474
 07  4 23  0  1 45.0130000  0 11G 1G12G 2G 4G 6G 5G20G23G14G30G31
 -15215173.33549 -11837761.52247  25500697.1344   25500694.5994
      -625.8124
 -13520656.03749 -10516916.46947  25642337.4934   25642333.7124
     -2020.0474
  -5024427.57649  -3896958.76347  27555249.0794   27555242.7824
      3086.2814
 -10897705.54949  -8474625.69547  26117563.2744   26117560.5134
       613.2344
   -752770.22149   -568648.52146  28432183.3844   28432179.7044
      3445.2664
 -15409625.27549 -11987940.18347  25143266.4464   25143262.7634
     -1607.7034
 -10481002.15249  -8149637.80247  26251165.5244   26251161.7634
     -1330.0314
    -26216.716 9                  28549317.407
      3565.328
  -5654217.35449  -4387176.79446  27113394.1344   27113390.1264
     -3442.2034
 -17774212.91149 -13830188.40648  24762774.2434   24762770.4194
       224.3754
 -14040779.20149 -10922620.31448  25768776.9544   25768773.0324
      1684.2344
 07  4 23  0  2  0.0130000  0 11G 1G12G 2G 4G 6G 5G20G23G14G30G31
 -15205707.87949 -11830385.83747  25502498.2594   25502495.4154
      -636.1874
 -13490289.53149 -10493254.28447  25648116.7514   25648112.8494
     -2028.7194
  -5070676.94749  -3932997.22947  27546447.5014   27546442.6424
      3080.3914
 -10906822.58149  -8481729.87547  26115828.1424   26115825.4154
       602.4064
   -804428.41349   -608901.58246  28422353.5244   28422349.2554
      3442.6724
 -15385433.85449 -11969089.77047  25147869.6814   25147866.1734
     -1617.7194
 -10460973.19249  -8134030.81347  26254976.9464   26254973.6454
     -1340.4374
    -79669.99849    -43598.83946  28539145.9384   28539140.5914
      3561.9534
  -5602540.89649  -4346909.46446  27123227.7354   27123223.5174
     -3447.9224
 -17777493.70249 -13832744.90548  24762149.7204   24762146.3564
       213.2034
 -14065977.31049 -10942255.20148  25763981.6264   25763978.0244
      1675.6884
 07  4 23  0  2 15.0130000  0 11G 1G12G 2G 4G 6G 5G20G23G14G30G31
 -15196087.70549 -11822889.58847  25504328.9314   25504325.7124
      -646.5624
 -13459795.21249 -10469492.51547  25653919.4704   25653915.1104
     -2037.2034
  -5116840.47749  -3968968.79447  27537663.1814   27537657.0324
      3074.7194
 -10915780.67249  -8488710.21947  26114123.3924   26114120.5364
       591.9064
   -856048.16549   -649124.80946  28412529.3604   28412525.9774
      3440.1414
 -15361093.76549 -11950123.42047  25152501.2674   25152497.3024
     -1627.6254
 -10440789.65949  -8118303.41147  26258817.9464   26258814.4934
     -1350.7344
   -133072.88449    -85211.51946  28528983.7434   28528978.4194
      3558.4534
  -5550780.39149  -4306576.61246  27133076.9544   27133073.0794
     -3453.4224
 -17780608.82649 -13835172.27848  24761557.0404   24761553.6924
       202.2034
 -14091049.78049 -10961792.20148  25759210.7904   25759206.6104
      1667.2814
 07  4 23  0  2 30.0130000  0 11G 1G12G 2G 4G 6G 5G20G23G14G30G31
 -15186313.51849 -11815273.33747  25506188.8764   25506185.9624
      -656.7504
 -13429173.78049 -10445631.73447  25659746.1964   25659742.4424
     -2045.7034
  -5162918.60349  -4004873.81047  27528894.9074   27528889.4854
      3068.9384
 -10924580.27649  -8495567.07047  26112449.2904   26112446.7634
       581.3284
   -907629.43649   -689317.96946  28402714.7514   28402710.0094
      3437.3754
 -15336606.02149 -11931042.01647  25157161.4544   25157157.2784
     -1637.4534
 -10420452.23749  -8102456.07147  26262687.9854   26262684.6654
     -1361.0314
   -186425.63249   -126785.04046  28518830.1424   28518825.9194
      3555.2504
  -5498936.63749  -4266178.90947  27142942.6494   27142938.6224
     -3459.0314
 -17783558.89049 -13837471.02848  24760995.8684   24760992.5524
       191.1564
 -14115996.87849 -10981231.49848  25754463.7824   25754459.5524
      1658.9384
 07  4 23  0  2 45.0130000  0 11G 1G12G 2G 4G 6G 5G20G23G14G30G31
 -15176386.41049 -11807537.93647  25508077.9934   25508074.8524
      -666.9064
 -13398426.25349 -10421672.59047  25665597.1264   25665592.9894
     -2054.0004
  -5208912.01349  -4040712.83947  27520141.7354   27520136.4074
      3063.4694
 -10933222.53649  -8502301.32247  26110804.9464   26110802.0674
       570.9534
   -959173.18949   -729482.00046  28392906.1424   28392902.1344
      3435.1254
 -15311972.00849 -11911846.72347  25161848.9854   25161845.3064
     -1647.0624
 -10399962.04449  -8086489.66647  26266587.0794   26266583.7004
     -1371.0624
   -239729.02649   -168320.14946  28508687.5404   28508681.2634
      3551.8594
  -5447011.17349  -4225717.50046  27152824.1654   27152820.1734
     -3464.3284
 -17786344.95149 -13839641.95148  24760465.2904   24760461.9894
       180.3134
 -14140819.59649 -11000573.85948  25749739.7434   25749735.9704
      1650.7504
 07  4 23  0  3  0.0130000  0 11G 1G12G 2G 4G 6G 5G20G23G14G30G31
 -15166305.87449 -11799682.97347  25509996.1814   25509993.3374
      -677.1094
 -13367552.47749 -10397615.04647  25671472.3994   25671468.6384
     -2062.4534
  -5254819.76249  -4076485.11047  27511406.5094   27511400.8094
      3057.7504
 -10941706.62249  -8508912.34547  26109190.3454   26109187.1494
       560.3914
  -1010678.74749   -769616.17446  28383104.5174   28383100.7864
      3432.4534
 -15287191.22449 -11892537.04447  25166564.2984   25166560.8494
     -1656.8754
 -10379318.99549  -8070404.20847  26270515.5634   26270512.0444
     -1381.2194
   -292982.15749   -209816.08246  28498554.1424   28498548.8134
      3548.5784
  -5395003.77449  -4185192.23146  27162720.8844   27162716.7984
     -3469.9694
 -17788966.47749 -13841684.67948  24759966.4314   24759963.1694
       169.2504
 -14165517.15049 -11019818.69548  25745040.3064   25745036.4744
      1642.3284
 07  4 23  0  3 15.0130000  0 11G 1G12G 2G 4G 6G 5G20G23G14G30G31
 -15156071.59949 -11791708.24047  25511943.8844   25511940.5324
      -687.4694
 -13336552.54049 -10373459.23747  25677371.3064   25677367.3374
     -2070.9694
  -5300640.90549  -4112189.90247  27502687.3294   27502681.6844
      3051.8284
 -10950032.19949  -8515399.86647  26107606.0954   26107603.4894
       549.6564
  -1062145.28949   -809720.07746  28373311.1964   28373307.8254
      3429.7344
 -15262263.42249 -11873112.76347  25171307.9854   25171305.1614
     -1666.7974
 -10358522.71449  -8054199.31247  26274473.0014   26274469.1024
     -1391.5784
   -346184.43349   -251272.33846  28488429.5634   28488423.6734
      3545.0474
  -5342914.39849  -4144603.10946  27172632.9934   27172628.6454
     -3475.4534
 -17791423.05549 -13843598.88748  24759498.8214   24759495.7244
       158.1884
 -14190088.98149 -11038965.56348  25740364.2354   25740360.3604
      1633.7974
 07  4 23  0  3 30.0130000  0 11G 1G12G 2G 4G 6G 5G20G23G14G30G31
 -15145683.11549 -11783613.31547  25513920.8924   25513917.4344
      -697.7504
 -13305426.05649 -10349204.84647  25683294.6024   25683290.8764
     -2079.3594
  -5346374.76349  -4147826.65447  27493984.3764   27493978.6304
      3045.9844
 -10958198.65949  -8521763.38547  26106052.1884   26106048.8524
       539.1254
  -1113572.01149   -849792.92546  28363524.3374   28363521.4274
      3427.0634
 -15237188.39249 -11853573.79547  25176079.9074   25176076.5674
     -1676.6254
 -10337572.70749  -8037874.63347  26278459.4154   26278455.9934
     -1401.7504
   -399334.95349   -292688.25246  28478314.6884   28478310.1694
      3541.6254
  -5290742.96849  -4103950.06146  27182561.0094   27182555.8994
     -3480.8594
 -17793714.09449 -13845384.07448  24759063.2354   24759060.1184
       147.2194
 -14214534.47849 -11058014.00148  25735712.3524   25735708.1614
      1625.4534
 07  4 23  0  3 45.0130000  0 11G 1G12G 2G 4G 6G 5G20G23G14G30G31
 -15135140.49349 -11775398.28747  25515926.9314   25515923.7274
      -707.9534
 -13274173.17049 -10324851.95447  25689241.9544   25689237.6924
     -2087.7034
  -5392021.06849  -4183395.19847  27485298.2204   27485292.2984
      3040.2194
 -10966205.75949  -8528002.73247  26104528.2984   26104525.7004
       528.5634
  -1164958.50149   -889834.41046  28353746.8924   28353743.0754
      3424.4064
 -15211966.40649 -11833920.38347  25180879.6104   25180876.6344
     -1686.3914
 -10316469.20449  -8021430.33747  26282475.0794   26282471.8884
     -1411.9534
   -452433.37549   -334063.71146  28468211.0404   28468205.8024
      3538.1564
  -5238489.73549  -4063233.28147  27192504.2204   27192500.3764
     -3486.1874
 -17795839.43049 -13847040.14048  24758658.5634   24758655.2124
       136.2034
 -14238853.32549 -11076963.75248  25731084.4074   25731080.3684
      1616.9844
 07  4 23  0  4  0.0130000  0 11G 1G12G 2G 4G 6G 5G20G23G14G30G31
 -15124444.75649 -11767063.95847  25517962.0484   25517958.7314
      -718.1094
 -13242794.94749 -10300401.35247  25695212.9464   25695208.6844
     -2096.1564
  -5437580.24449  -4218895.84447  27476628.4854   27476622.9814
      3034.2814
 -10974054.22249  -8534118.40147  26103035.0094   26103031.9854
       517.8754
  -1216305.27849   -929844.89446  28343974.9464   28343971.9974
      3421.7034
 -15186598.47949 -11814153.22447  25185706.8844   25185703.4314
     -1696.0624
 -10295213.45249  -8004867.39547  26286519.9234   26286516.4034
     -1422.2034
   -505480.08949   -375398.78846  28458117.0014   28458111.1964
      3534.7974
  -5186155.71449  -4022453.52346  27202463.2434   27202458.7704
     -3491.6564
 -17797800.00349 -13848567.83448  24758285.5174   24758282.1844
       125.1414
 -14263046.23449 -11095815.36748  25726480.8214   25726476.3604
      1608.6564
 07  4 23  0  4 15.0130000  0 11G 1G12G 2G 4G 6G 5G20G23G14G30G31
 -15113595.60249 -11758610.08247  25520026.5404   25520023.7904
      -728.4694
 -13211291.42849 -10275853.12347  25701207.4854   25701203.4934
     -2104.5314
  -5483051.49949  -4254327.98347  27467975.6184   27467970.5094
      3028.5004
 -10981743.83349  -8540110.30447  26101571.6814   26101569.5754
       507.2814
  -1267611.97549   -969824.11946  28334211.9934   28334209.4744
      3419.0634
 -15161084.36949 -11794272.11747  25190562.0564   25190559.6454
     -1705.9374
 -10273805.33349  -7988185.72547  26290593.9544   26290590.2044
     -1432.3754
   -558474.57149   -416693.17246  28448032.4314   28448025.8214
      3531.1884
  -5133741.12549  -3981611.02346  27212437.0954   27212433.1614
     -3497.1414
 -17799595.48549 -13849966.89948  24757943.8844   24757940.7204
       114.1254
 -14287112.77849 -11114568.51448  25721901.0014   25721896.8524
      1600.1414
 07  4 23  0  4 30.0130000  0 11G 1G12G 2G 4G 6G 5G20G23G14G30G31
 -15102592.23849 -11750036.04647  25522120.5954   25522117.7784
      -738.6564
 -13179661.97149 -10251206.76547  25707226.3064   25707222.3994
     -2112.8284
  -5528433.64349  -4289690.67947  27459339.8764   27459333.9624
      3022.5314
 -10989273.66049  -8545977.71247  26100138.8604   26100136.2474
       496.6884
  -1318877.21949  -1009771.07346  28324457.6734   28324453.8644
      3416.0944
 -15135423.36149 -11774276.47947  25195444.9934   25195441.8524
     -1715.6564
 -10252244.04149  -7971384.69347  26294696.9774   26294693.4194
     -1442.5474
   -611415.52049   -457945.90246  28437958.1574   28437951.4194
      3527.5784
  -5081245.56549  -3940705.40646  27222427.2204   27222423.4154
     -3502.3754
 -17801225.06049 -13851236.71248  24757633.9704   24757630.2784
       103.1414
 -14311051.76549 -11133222.26948  25717345.5324   25717341.2124
      1591.6414
 07  4 23  0  4 45.0130000  0 11G 1G12G 2G 4G 6G 5G20G23G14G30G31
 -15091435.80249 -11741342.72847  25524243.6734   25524241.1424
      -748.8914
 -13147907.65849 -10226463.08747  25713269.1424   25713265.1144
     -2121.0784
  -5573727.50149  -4324984.54647  27450720.9934   27450715.5484
      3016.6564
 -10996644.56949  -8551721.27847  26098736.4384   26098733.7394
       486.0474
  -1370101.91549  -1049686.47146  28314708.9234   28314706.0484
      3413.5634
 -15109617.17149 -11754167.79947  25200355.7984   25200352.5484
     -1725.3444
 -10230530.76449  -7954465.22947  26298828.7434   26298824.9894
     -1452.6874
   -664303.83049   -499157.55346  28427893.7904   28427887.3764
      3524.0314
  -5028670.28549  -3899737.65347  27232431.8214   27232428.4114
     -3507.7194
 -17802689.61449 -13852377.97348  24757355.1424   24757352.0174
        92.0784
 -14334864.10349 -11151777.35348  25712814.1024   25712810.1844
      1583.1564
 07  4 23  0  5  0.0130000  0 11G 1G12G 2G 4G 6G 5G20G23G14G30G31
 -15080125.35749 -11732529.40047  25526395.7904   25526393.5134
      -759.1564
 -13116027.77249 -10201621.61147  25719335.8684   25719332.1774
     -2129.4694
  -5618931.54649  -4360208.46647  27442118.4704   27442112.8724
      3010.6254
 -11003855.47449  -8557340.15247  26097363.9074   26097361.4114
       475.4694
  -1421284.85949  -1089569.30746  28304969.9934   28304965.7864
      3410.8914
 -15083664.47849 -11733944.94147  25205294.8924   25205291.1384
     -1734.9844
 -10208664.65349  -7937426.71547  26302989.7204   26302985.7594
     -1462.7034
   -717137.95749   -540326.94846  28417839.4234   28417833.8254
      3520.5164
  -4976014.68249  -3858707.31946  27242451.4544   27242448.2394
     -3513.0164
 -17803988.02149 -13853389.73448  24757108.0794   24757104.6144
        81.0944
 -14358548.56849 -11170232.77447  25708307.0014   25708303.0794
      1574.7974
 07  4 23  0  5 15.0130000  0 11G 1G12G 2G 4G 6G 5G20G23G14G30G31
 -15068660.56549 -11723595.80247  25528577.4074   25528574.5674
      -769.4534
 -13084022.18349 -10176682.16447  25725426.2824   25725422.4624
     -2137.9224
  -5664045.26849  -4395361.94947  27433533.5094   27433528.2394
      3004.5314
 -11010906.00949  -8562834.07047  26096022.2824   26096019.6344
       464.6724
  -1472425.11849  -1129418.83346  28295237.8214   28295234.2674
      3407.7974
 -15057565.35649 -11713607.96247  25210261.3524   25210258.0914
     -1744.8284
 -10186645.44649  -7920268.81847  26307180.0324   26307176.4814
     -1473.0164
   -769917.14349   -581453.50346  28407795.5484   28407790.5794
      3516.7504
  -4923278.65449  -3817614.35646  27252487.1104   27252483.0874
     -3518.4374
 -17805120.04449 -13854271.86448  24756892.7434   24756889.3604
        69.9534
 -14382104.50449 -11188588.06547  25703825.0874   25703820.8094
      1566.0474
 07  4 23  0  5 30.0130000  0 11G 1G12G 2G 4G 6G 5G20G23G14G30G31
 -15057043.81349 -11714543.77847  25530787.8604   25530785.1814
      -779.6874
 -13051893.49149 -10151646.80347  25731540.3454   25731536.4464
     -2146.0944
  -5709070.49349  -4430446.57747  27424965.5634   27424959.7354
      2998.6254
 -11017798.38249  -8568204.72847  26094710.7354   26094707.5324
       454.0944
  -1523524.60949  -1169236.57246  28285513.2904   28285510.0404
      3405.2034
 -15031322.16149 -11693158.70247  25215254.8994   25215252.1264
     -1754.4844
 -10164475.90249  -7902993.85947  26311398.3454   26311395.2084
     -1483.0314
   -822643.64249   -622539.16546  28397762.5174   28397756.8604
      3513.2344
  -4870464.79449  -3776460.68946  27262536.9464   27262533.2824
     -3523.5624
 -17806088.17949 -13855026.33948  24756708.5484   24756705.0954
        58.9844
 -14405534.04149 -11206844.84847  25699366.3214   25699362.1844
      1557.7034
 07  4 23  0  5 45.0130000  0 11G 1G12G 2G 4G 6G 5G20G23G14G30G31
 -15045273.01249 -11705371.74547  25533027.9854   25533025.2084
      -789.8444
 -13019639.74049 -10126513.99147  25737677.8844   25737673.6224
     -2154.4534
  -5754004.60549  -4465460.14147  27416414.6264   27416408.9314
      2992.4844
 -11024530.20449  -8573450.28947  26093429.5324   26093427.0404
       443.4224
  -1574581.20749  -1209020.93046  28275797.8604   28275794.1884
      3402.3754
 -15004933.06549 -11672595.77847  25220276.8844   25220274.3994
     -1764.1254
 -10142153.88849  -7885600.07747  26315646.1814   26315642.4504
     -1493.2194
   -875314.85749   -663581.67746  28387739.2594   28387733.8174
      3509.4384
  -4817571.35849  -3735245.00546  27272602.3214   27272598.9894
     -3528.8594
 -17806890.05849 -13855651.28348  24756556.0954   24756553.0054
        47.9064
 -14428834.84749 -11225001.31648  25694932.1654   25694928.2314
      1549.0944
 07  4 23  0  6  0.0130000  0 11G 1G12G 2G 4G 6G 5G20G23G14G30G31
 -15033348.38649 -11696079.84147  25535297.2124   25535293.8604
      -800.0944
 -12987261.29049 -10101283.99247  25743839.3604   25743835.7674
     -2162.6724
  -5798847.63149  -4500402.78047  27407881.2674   27407876.1024
      2986.5634
 -11031101.64149  -8578570.89647  26092179.4314   26092176.2044
       432.8754
  -1625594.57249  -1248771.59046  28266090.5564   28266087.3134
      3399.6094
 -14978398.42949 -11651919.42447  25225326.0324   25225323.0484
     -1773.7664
 -10119679.68349  -7868087.71147  26319922.7904   26319918.6494
     -1503.1874
   -927930.46849   -704580.86846  28377726.5094   28377721.4154
      3505.9384
  -4764598.77949  -3693967.66746  27282683.0714   27282679.4234
     -3534.1414
 -17807525.66349 -13856146.68048  24756435.1104   24756431.9504
        36.8284
 -14452007.03149 -11243057.56848  25690522.8844   25690518.6064
      1540.5634
 07  4 23  0  6 15.0130000  0 11G 1G12G 2G 4G 6G 5G20G23G14G30G31
 -15021269.37549 -11686667.65247  25537595.9154   25537592.8254
      -810.4374
 -12954757.68849 -10075956.50847  25750024.2274   25750020.6694
     -2171.1094
  -5843598.27849  -4535273.39447  27399365.3064   27399361.0094
      2980.2974
 -11037511.98249  -8583565.94947  26090959.4074   26090956.4274
       421.9224
  -1676563.86649  -1288487.93246  28256391.4704   28256388.5484
      3396.4224
 -14951717.75949 -11631129.29447  25230403.2044   25230400.3524
     -1783.6254
 -10097052.91749  -7850456.46647  26324228.5324   26324224.5794
     -1513.5314
   -980489.58849   -745535.97646  28367725.2354   28367720.2784
      3501.9384
  -4711546.67249  -3652628.35847  27292778.5564   27292774.5994
     -3539.5624
 -17807994.20649 -13856511.75048  24756345.8134   24756342.5364
        25.6564
 -14475049.46449 -11261012.70848  25686138.0564   25686133.8214
      1531.8444
 07  4 23  0  6 30.0130000  0 11G 1G12G 2G 4G 6G 5G20G23G14G30G31
 -15009034.83549 -11677134.25247  25539924.0244   25539920.7004
      -820.7664
 -12922128.06749 -10050530.80547  25756233.5634   25756229.8414
     -2179.4224
  -5888255.17549  -4570070.94147  27390867.3764   27390862.3254
      2974.0474
 -11043760.03349  -8588434.54647  26089770.1964   26089767.2594
       411.1564
  -1727487.55849  -1328168.67246  28246700.7824   28246697.2634
      3393.3444
 -14924890.18049 -11610224.69347  25235508.3924   25235505.3294
     -1793.3594
 -10074272.65949  -7832705.58747  26328563.5714   26328559.5594
     -1523.9064
  -1032990.58649   -786445.81646  28357734.7044   28357729.5244
      3498.1724
  -4658414.37049  -3611226.56646  27302889.0794   27302885.5994
     -3544.7194
 -17808294.61549 -13856745.72748  24756288.7674   24756285.4974
        14.5314
 -14497960.97549 -11278865.84448  25681778.1184   25681773.8414
      1523.1724
 07  4 23  0  6 45.0130000  0 11G 1G12G 2G 4G 6G 5G20G23G14G30G31
 -14996646.48549 -11667481.00247  25542281.7044   25542278.3294
      -831.0784
 -12889374.52349 -10025008.59247  25762466.4934   25762462.6814
     -2187.7504
  -5932819.53049  -4604796.36047  27382386.9464   27382381.6734
      2967.7814
 -11049847.25449  -8593177.82847  26088611.6494   26088609.0874
       400.4384
  -1778367.00949  -1367814.96546  28237019.1024   28237015.7084
      3390.5314
 -14897917.42549 -11589206.91647  25240641.0014   25240638.1694
     -1803.0944
 -10051340.78749  -7814836.59047  26332927.2204   26332923.3254
     -1533.9694
  -1085434.82849   -827311.39046  28347754.4774   28347749.2044
      3494.2344
  -4605203.77249  -3569763.75246  27313014.0794   27313011.3094
     -3550.0314
 -17808428.70449 -13856850.10848  24756263.1884   24756259.6224
         3.3754
 -14520742.96149 -11296618.04248  25677443.0324   25677439.0094
      1514.4844
 07  4 23  0  7  0.0130000  0 11G 1G12G 2G 4G 6G 5G20G23G14G30G31
 -14984104.39449 -11657707.94147  25544667.9934   25544665.2394
      -841.3284
 -12856496.90449  -9999389.63847  25768722.8294   25768718.2944
     -2196.0474
  -5977291.10349  -4639449.49347  27373924.4234   27373919.8334
      2961.6254
 -11055773.65949  -8597795.82047  26087484.7204   26087481.1384
       389.7034
  -1829202.05849  -1407426.73946  28227345.1964   28227343.3844
      3387.5474
 -14870799.78549 -11568076.24447  25245801.4624   25245797.7944
     -1812.7194
 -10028257.23249  -7796849.40047  26337320.2824   26337316.1264
     -1544.0164
  -1137822.03749   -868132.51646  28337785.6964   28337779.7394
      3490.4534
  -4551915.21449  -3528240.22046  27323155.1734   27323151.7784
     -3555.1874
 -17808396.39549 -13856824.88248  24756269.4234   24756265.9934
        -7.7814
 -14543395.28349 -11314269.21148  25673132.1104   25673128.0794
      1505.8284
 07  4 23  0  7 15.0130000  0 11G 1G12G 2G 4G 6G 5G20G23G14G30G31
 -14971408.33849 -11647814.91847  25547084.6104   25547081.0444
      -851.3754
 -12823495.30749  -9973674.15947  25775003.1424   25774998.9664
     -2204.0784
  -6021669.05349  -4674029.65847  27365479.7984   27365475.0994
      2955.4694
 -11061538.75249  -8602288.09247  26086387.2744   26086384.3174
       379.0314
  -1879991.81949  -1447003.21346  28217680.7514   28217677.3494
      3384.7034
 -14843537.17049 -11546832.61047  25250989.3374   25250986.1144
     -1822.0784
 -10005021.88249  -7778743.92147  26341741.1424   26341737.7674
     -1553.8754
  -1190151.35449   -908908.62446  28327827.9234   28327822.3134
      3486.7974
  -4498548.77449  -3486655.99346  27333310.2904   27333306.9814
     -3560.1094
 -17808197.44549 -13856669.78148  24756307.0794   24756304.0564
       -18.7034
 -14565917.37749 -11331818.93248  25668846.8214   25668841.9934
      1497.2504
 07  4 23  0  7 30.0130000  0 11G 1G12G 2G 4G 6G 5G20G23G14G30G31
 -14958558.80949 -11637802.29447  25549529.2354   25549526.4664
      -861.7194
 -12790370.29949  -9947862.47747  25781306.1654   25781302.2204
     -2212.4224
  -6065953.67049  -4708537.12847  27357052.5634   27357048.1534
      2949.2814
 -11067143.09349  -8606655.12747  26085320.9074   26085317.9974
       368.3594
  -1930736.70749  -1486544.74046  28208024.2044   28208021.0874
      3381.5634
 -14816130.13549 -11525476.43647  25256204.7514   25256201.4894
     -1831.8284
  -9981635.63149  -7760520.88247  26346191.8214   26346188.0364
     -1564.0164
  -1242423.12349   -949639.90746  28317881.1734   28317875.0754
      3482.7034
  -4445105.23049  -3445011.64747  27343480.7514   27343476.9234
     -3565.4534
 -17807832.06649 -13856385.05048  24756376.4544   24756373.3494
       -29.8444
 -14588309.39349 -11349267.25248  25664585.2514   25664581.1304
      1488.4844
 07  4 23  0  7 45.0130000  0 11G 1G12G 2G 4G 6G 5G20G23G14G30G31
 -14945555.34349 -11627669.73047  25552003.6024   25552000.3414
      -872.0784
 -12757121.74749  -9921954.59847  25787633.2274   25787629.5244
     -2220.6564
  -6110143.86349  -4742971.01547  27348643.5954   27348638.7164
      2942.8284
 -11072585.80849  -8610896.22647  26084284.9384   26084282.5094
       357.4384
  -1981435.69549  -1526050.44946  28198376.6654   28198373.8374
      3378.4384
 -14788578.28049 -11504007.36747  25261447.9384   25261444.1884
     -1841.5004
  -9958097.90149  -7742179.78247  26350670.8604   26350667.1774
     -1574.2344
  -1294636.20449   -990325.39246  28307944.9464   28307939.9704
      3478.8594
  -4391584.22249  -3403307.01046  27353665.2044   27353661.8884
     -3570.5314
 -17807299.75849 -13855970.25848  24756478.1264   24756474.6494
       -41.0784
 -14610570.63549 -11366613.65448  25660349.1024   25660345.3094
      1479.6564
 07  4 23  0  8  0.0130000  0 11G 1G12G 2G 4G 6G 5G20G23G14G30G31
 -14932397.72049 -11617417.02947  25554507.5484   25554504.0794
      -882.4694
 -12723749.23749  -9895950.06547  25793983.7274   25793980.0914
     -2229.0004
  -6154239.01049  -4777330.85247  27340252.5794   27340247.3334
      2936.4534
 -11077866.55749  -8615011.07347  26083280.3604   26083277.6304
       346.5634
  -2032087.97649  -1565519.71046  28188737.4774   28188734.3564
      3375.2034
 -14760881.68849 -11482425.57847  25266717.9624   25266714.8064
     -1851.3914
  -9934408.82149  -7723720.81747  26355178.7744   26355175.3564
     -1584.4064
  -1346789.98949  -1030964.67146  28298020.8844   28298014.4424
      3474.8914
  -4337985.88949  -3361542.05447  27363864.7354   27363860.6924
     -3575.9224
 -17806600.11849 -13855425.09348  24756611.0094   24756607.8604
       -52.3124
 -14632700.59449 -11383857.79648  25656137.7744   25656133.9114
      1470.8914
 07  4 23  0  8 15.0130000  0 11G 1G12G 2G 4G 6G 5G20G23G14G30G31
 -14919086.10449 -11607044.35947  25557040.5014   25557037.9934
      -892.6414
 -12690253.18949  -9869849.29147  25800358.1104   25800354.4464
     -2237.3594
  -6198238.81349  -4811616.39047  27331879.5954   27331874.7514
      2930.1254
 -11082985.44749  -8618999.80147  26082306.1104   26082303.3414
       335.7664
  -2082693.40049  -1604952.40346  28179107.8524   28179104.3764
      3372.1254
 -14733040.76549 -11460731.41747  25272016.2434   25272013.3724
     -1860.9064
  -9910568.35849  -7705143.80047  26359715.1964   26359711.9464
     -1594.4374
  -1398884.41149  -1071557.77646  28288107.0794   28288101.6304
      3470.8444
  -4284310.72049  -3319717.32947  27374078.7744   27374074.9074
     -3580.9064
 -17805733.34649 -13854749.68548  24756776.0484   24756772.9314
       -63.4694
 -14654699.22149 -11400999.57848  25651951.8924   25651947.5914
      1462.1094
 07  4 23  0  8 30.0130000  0 11G 1G12G 2G 4G 6G 5G20G23G14G30G31
 -14905621.51249 -11596552.48747  25559602.8844   25559600.0324
      -902.7664
 -12656634.85949  -9843653.19147  25806755.3924   25806751.1654
     -2245.2344
  -6242143.95549  -4845828.17447  27323525.4854   27323520.1884
      2923.8444
 -11087943.19249  -8622862.94647  26081362.5634   26081359.4774
       325.1414
  -2133252.88649  -1644349.42046  28169486.3844   28169482.8994
      3369.0634
 -14705056.26349 -11438925.24447  25277341.5244   25277338.1844
     -1870.4374
  -9886577.85049  -7686449.90347  26364280.4234   26364277.5284
     -1604.3594
  -1450919.70549  -1112104.72247  28278205.8454   28278199.5244
      3467.0634
  -4230559.76449  -3277833.45546  27384307.3294   27384303.6224
     -3585.7814
 -17804700.34049 -13853944.76448  24756972.8134   24756969.3334
       -74.4224
 -14676567.19949 -11418039.55748  25647790.5874   25647785.9744
      1453.4844
 07  4 23  0  8 45.0130000  0 11G 1G12G 2G 4G 6G 5G20G23G14G30G31
 -14892003.71149 -11585941.25047  25562194.2514   25562191.7004
      -913.0314
 -12622894.00349  -9817361.58047  25813176.5014   25813172.3494
     -2253.4534
  -6285953.61649  -4879965.51947  27315187.5874   27315182.4854
      2917.4534
 -11092739.41649  -8626600.26247  26080450.0324   26080446.8374
       314.3284
  -2183765.43449  -1683709.78746  28159873.3604   28159870.8684
      3365.7974
 -14676928.38349 -11417007.41147  25282693.7594   25282690.6964
     -1879.9534
  -9862437.19949  -7667639.02947  26368874.5954   26368871.4234
     -1614.4374
  -1502895.46949  -1152605.27746  28268315.2744   28268309.2864
      3463.0944
  -4176733.06649  -3235890.60346  27394550.0484   27394546.6654
     -3590.8594
 -17803500.69849 -13853009.97148  24757200.9074   24757197.6064
       -85.4694
 -14698304.05349 -11434977.38248  25643654.0564   25643649.7634
      1444.7034
 07  4 23  0  9  0.0130000  0 11G 1G12G 2G 4G 6G 5G20G23G14G30G31
 -14878232.90249 -11575210.71247  25564814.5634   25564811.7904
      -923.1564
 -12589031.44649  -9790975.19847  25819620.1424   25819615.5714
     -2261.5944
  -6329667.83849  -4914028.55747  27306869.4314   27306864.1344
      2911.0004
 -11097374.57849  -8630212.06647  26079567.6494   26079564.7864
       303.6414
  -2234231.25449  -1723033.74446  28150269.8374   28150267.1384
      3362.7974
 -14648657.46049 -11394978.09647  25288074.0484   25288070.2824
     -1889.5624
  -9838146.71649  -7648711.36447  26373496.8294   26373493.2824
     -1624.3444
  -1554811.61549  -1193059.40146  28258435.5634   28258430.2204
      3459.0314
  -4122831.34949  -3193889.27146  27404807.2124   27404803.5284
     -3595.9694
 -17802134.84149 -13851945.70048  24757460.7984   24757457.1424
       -96.5944
 -14719909.79149 -11451813.01948  25639542.6344   25639538.2634
      1436.0004
 07  4 23  0  9 15.0130000  0 11G 1G12G 2G 4G 6G 5G20G23G14G30G31
 -14864309.22849 -11564361.09547  25567464.4624   25567461.7594
      -933.3914
 -12555046.89449  -9764493.73547  25826086.9314   25826083.1884
     -2269.7664
  -6373285.94949  -4948016.67147  27298568.7824   27298563.7984
      2904.5784
 -11101848.23149  -8633698.00847  26078716.7124   26078713.6534
       292.7504
  -2284649.97349  -1762321.01946  28140675.8064   28140672.5404
      3359.5784
 -14620243.63449 -11372837.44447  25293480.8214   25293477.1344
     -1899.0784
  -9813706.48249  -7629667.04647  26378147.7354   26378144.3604
     -1634.4374
  -1606667.40149  -1233466.41946  28248567.7204   28248562.6104
      3454.9224
  -4068854.74049  -3151829.59447  27415078.0094   27415074.7634
     -3601.0474
 -17800602.49449 -13850751.72348  24757752.1734   24757749.2674
      -107.7504
 -14741384.10349 -11468546.24648  25635456.2274   25635452.3604
      1427.1414
 07  4 23  0  9 30.0130000  0 11G 1G12G 2G 4G 6G 5G20G23G14G30G31
 -14850232.15049 -11553391.95847  25570143.3994   25570140.3604
      -943.6254
 -12520940.39849  -9737917.28247  25832577.1424   25832573.2944
     -2277.7974
  -6416807.20149  -4981929.34147  27290287.2204   27290281.4814
      2898.2504
 -11106159.92249  -8637057.75147  26077896.1814   26077893.0484
       282.0004
  -2335020.76549  -1801571.01746  28131090.8604   28131088.3884
      3356.4844
 -14591686.56949 -11350585.19247  25298914.5634   25298911.2314
     -1908.5624
  -9789116.19349  -7610505.81647  26382827.1574   26382823.2704
     -1644.2814
  -1658462.24249  -1273826.01747  28238710.7204   28238705.9464
      3450.9694
  -4014803.04249  -3109711.37947  27425363.8064   27425360.8844
     -3605.8914
 -17798903.01049 -13849427.42148  24758075.7354   24758072.5874
      -118.8594
 -14762726.28349 -11485176.53648  25631394.9934   25631390.7944
      1418.4224
 07  4 23  0  9 45.0130000  0 11G 1G12G 2G 4G 6G 5G20G23G14G30G31
 -14836001.72249 -11542303.36347  25572851.5714   25572848.2744
      -953.8284
 -12486711.89149  -9711245.76047  25839090.7904   25839086.7944
     -2286.0784
  -6460231.06449  -5015766.08447  27282023.7274   27282018.4424
      2891.5784
 -11110309.45049  -8640291.16147  26077106.6424   26077104.0594
       271.2344
  -2385343.10549  -1840783.22446  28121514.3294   28121511.4234
      3353.2504
 -14562986.41049 -11328221.41447  25304376.1884   25304373.0014
     -1918.1724
  -9764375.73849  -7591227.47647  26387535.0484   26387531.2944
     -1654.4224
  -1710195.59849  -1314137.67047  28228866.6264   28228862.3094
      3446.7814
  -3960676.52249  -3067534.84547  27435664.1964   27435660.3604
     -3611.0474
 -17797036.55049 -13847973.03148  24758430.9154   24758427.8294
      -129.9844
 -14783936.08349 -11501703.69048  25627359.1264   25627354.9274
      1409.5634
 07  4 23  0 10  0.0130000  0 11G 1G12G 2G 4G 6G 5G20G23G14G30G31
 -14821618.21349 -11531095.39247  25575588.3374   25575585.0484
      -964.0944
 -12452361.85749  -9684479.47447  25845627.6884   25845623.6814
     -2294.0944
  -6503557.52549  -5049526.94947  27273779.3994   27273773.3094
      2885.1884
 -11114297.04949  -8643398.38247  26076347.5404   26076344.3294
       260.4224
  -2435617.03249  -1879957.72146  28111947.3214   28111944.5954
      3349.9694
 -14534143.67649 -11305746.55847  25309865.1734   25309861.3024
     -1927.6414
  -9739486.18349  -7571833.08347  26392271.5874   26392267.7394
     -1664.3444
  -1761867.52049  -1354401.46947  28219033.7044   28219028.9344
      3442.7194
  -3906475.95849  -3025300.68846  27445977.8214   27445974.9074
     -3615.8754
 -17795003.36449 -13846388.76148  24758817.7824   24758814.1814
      -141.1254
 -14805013.50149 -11518127.65048  25623347.7824   25623344.0284
      1400.6884
 07  4 23  0 10 15.0130000  0 11G 1G12G 2G 4G 6G 5G20G23G14G30G31
 -14807081.75649 -11519768.28447  25578354.2434   25578351.7824
      -974.1564
 -12417890.44249  -9657618.67347  25852187.2824   25852182.9704
     -2302.0004
  -6546785.78649  -5083211.27747  27265553.6104   27265548.8524
      2878.7664
 -11118122.54949  -8646379.26647  26075619.7514   26075616.6224
       249.6884
  -2485842.09449  -1919094.18646  28102389.7984   28102387.7824
      3346.7504
 -14505158.56549 -11283160.80147  25315380.4154   25315376.9704
     -1937.0314
  -9714447.14349  -7552322.12247  26397036.4234   26397032.1734
     -1674.2194
  -1813477.38249  -1394616.94247  28209212.3764   28209207.4114
      3438.6414
  -3852201.23949  -2983008.69546  27456305.4704   27456302.7704
     -3620.7664
 -17792803.00449 -13844674.17648  24759236.4384   24759233.3134
      -152.2504
 -14825958.26749 -11534448.21448  25619362.2204   25619358.3564
      1391.8914
 07  4 23  0 10 30.0130000  0 11G 1G12G 2G 4G 6G 5G20G23G14G30G31
 -14792393.34549 -11508322.76147  25581149.6264   25581146.6534
      -984.2664
 -12383299.00849  -9630664.32947  25858769.8844   25858765.9464
     -2310.0624
  -6589916.94249  -5116819.92947  27257345.3684   27257340.2824
      2872.2194
 -11121786.75249  -8649234.42847  26074922.1964   26074919.3334
       238.9224
  -2536018.85549  -1958192.95146  28092842.1184   28092839.5444
      3343.4224
 -14476032.09849 -11260464.85647  25320923.0174   25320919.9034
     -1946.3914
  -9689259.90849  -7532695.67047  26401829.3374   26401825.0204
     -1684.0474
  -1865025.84149  -1434784.54547  28199403.6424   28199398.7704
      3434.6414
  -3797853.95249  -2940660.14947  27466647.8844   27466644.4234
     -3625.5004
 -17790436.66049 -13842830.25848  24759686.8764   24759683.3724
      -163.1564
 -14846771.36649 -11550666.20448  25615401.5404   25615397.4464
      1383.1094
 07  4 23  0 10 45.0130000  0 11G 1G12G 2G 4G 6G 5G20G23G14G30G31
 -14777552.80949 -11496758.71647  25583974.0244   25583970.7204
      -994.4374
 -12348587.58849  -9603616.59047  25865375.2514   25865370.9894
     -2318.0784
  -6632950.20049  -5150352.33147  27249156.7984   27249151.4074
      2865.7504
 -11125289.45449  -8651963.79347  26074255.6024   26074252.8994
       228.1094
  -2586146.92249  -1997253.78246  28083302.9544   28083300.8804
      3340.2034
 -14446764.18549 -11237658.66847  25326492.2354   25326488.6654
     -1955.8914
  -9663924.56649  -7512953.88847  26406650.2204   26406646.2164
     -1693.9534
  -1916512.35849  -1474903.87047  28189605.5954   28189601.2904
      3430.2974
  -3743434.10249  -2898255.07546  27477004.2904   27477000.7314
     -3630.4224
 -17787903.79649 -13840856.47248  24760168.7594   24760166.0174
      -174.4064
 -14867452.25349 -11566781.17548  25611466.3524   25611462.0794
      1374.3444
 07  4 23  0 11  0.0130000  0 11G 1G12G 2G 4G 6G 5G20G23G14G30G31
 -14762560.38249 -11485076.32147  25586826.4384   25586823.9504
     -1004.5624
 -12313756.09849  -9576475.15847  25872003.2904   25871998.8094
     -2326.1094
  -6675885.52949  -5183808.48147  27240986.6184   27240980.8024
      2859.0944
 -11128630.55449  -8654567.21847  26073619.6184   26073616.5404
       217.2664
  -2636225.89849  -2036276.37046  28073773.3844   28073770.7784
      3336.7814
 -14417355.28649 -11214742.62847  25332088.9154   25332085.0594
     -1965.3444
  -9638441.23749  -7493096.76447  26411499.3134   26411496.2984
     -1703.7974
  -1967936.49749  -1514974.54047  28179820.0014   28179815.1454
      3426.0474
  -3688942.06549  -2855793.77146  27487373.5094   27487369.9814
     -3635.1874
 -17785204.99849 -13838753.42248  24760682.1424   24760678.9584
      -185.5164
 -14888000.83349 -11582793.07548  25607555.8604   25607551.8294
      1365.4534
 07  4 23  0 11 15.0130000  0 11G 1G12G 2G 4G 6G 5G20G23G14G30G31
 -14747415.64649 -11473275.22347  25589708.6574   25589705.8024
     -1014.7504
 -12278804.63349  -9549240.24147  25878654.3684   25878649.7944
     -2334.0624
  -6718721.88349  -5217187.46947  27232834.3764   27232830.0794
      2852.4844
 -11131809.93449  -8657044.65347  26073014.4154   26073011.7394
       206.5474
  -2686255.21249  -2075260.16846  28064253.0954   28064250.3684
      3333.5314
 -14387805.27249 -11191716.66447  25337712.2434   25337708.6614
     -1974.7974
  -9612809.78749  -7473124.23847  26416376.5874   26416373.0714
     -1713.7504
  -2019297.74549  -1554996.28247  28170046.5324   28170040.8374
      3422.0314
  -3634377.77549  -2813276.18946  27497756.7354   27497753.5714
     -3640.0474
 -17782339.72849 -13836520.71048  24761227.4154   24761223.9314
      -196.5314
 -14908416.62349 -11598701.46848  25603670.7124   25603666.6304
      1356.6094
 07  4 23  0 11 30.0130000  0 11G 1G12G 2G 4G 6G 5G20G23G14G30G31
 -14732118.80549 -11461355.57547  25592619.3454   25592616.1454
     -1024.9694
 -12243733.44949  -9521911.99247  25885328.0094   25885323.2594
     -2342.1724
  -6761459.11449  -5250489.25647  27224701.7204   27224697.1454
      2845.7034
 -11134827.20949  -8659395.76747  26072440.6184   26072437.3724
       195.6884
  -2736234.69449  -2114205.20546  28054742.6264   28054738.9744
      3330.1414
 -14358114.29749 -11168580.85447  25343362.3294   25343358.3764
     -1984.1254
  -9587030.41749  -7453036.36247  26421282.9154   26421279.4234
     -1723.5784
  -2070595.64949  -1594968.64946  28160284.1344   28160278.8844
      3417.5784
  -3579741.41249  -2770702.42247  27508153.3294   27508151.2514
     -3645.0944
 -17779308.11949 -13834158.44648  24761804.2594   24761801.1424
      -207.7344
 -14928699.23149 -11614506.07548  25599810.8924   25599806.5634
      1347.6414
 07  4 23  0 11 45.0130000  0 11G 1G12G 2G 4G 6G 5G20G23G14G30G31
 -14716668.58649 -11449316.42947  25595559.6574   25595556.8094
     -1035.1724
 -12208541.45949  -9494489.65647  25892024.8454   25892020.6424
     -2350.2664
  -6804095.25249  -5283712.28247  27216588.7204   27216584.0054
      2838.8914
 -11137681.16749  -8661619.61047  26071896.9774   26071894.3764
       184.7504
  -2786162.42749  -2153109.90846  28045241.2514   28045238.5324
      3326.6564
 -14328281.65349 -11145334.83047  25349039.1264   25349035.5174
     -1993.6874
  -9561102.06149  -7432832.48147  26426216.9774   26426212.9234
     -1733.5944
  -2121828.37149  -1634890.18846  28150535.5244   28150529.6814
      3413.2664
  -3525032.15749  -2728071.79446  27518564.5094   27518561.3094
     -3649.5164
 -17776108.90349 -13831665.62248  24762413.3064   24762409.9114
      -218.9844
 -14948847.03549 -11630205.63948  25595977.2744   25595972.9544
      1338.6564
 07  4 23  0 12  0.0130000  0 11G 1G12G 2G 4G 6G 5G20G23G14G30G31
 -14701065.00449 -11437157.80947  25598528.7984   25598526.0594
     -1045.2974
 -12173228.75149  -9466973.24547  25898744.5714   25898740.5204
     -2358.1414
  -6846629.77749  -5316856.06247  27208495.0714   27208490.4974
      2832.3284
 -11140371.58349  -8663716.00647  26071385.6964   26071382.1384
       173.9384
  -2836038.22549  -2191974.22746  28035750.6264   28035747.8334
      3323.5004
 -14298306.70049 -11121977.77147  25354743.2044   25354739.8724
     -2002.8914
  -9535024.60949  -7412512.35247  26431179.1574   26431174.8954
     -1743.3914
  -2172995.49949  -1674760.54246  28140797.9314   28140792.9274
      3408.9694
  -3470250.29049  -2685384.67946  27528988.9774   27528986.1344
     -3654.4224
 -17772741.69349 -13829041.97348  24763054.1104   24763050.9074
      -230.0314
 -14968859.89449 -11645800.08548  25592168.8134   25592165.1574
      1329.7034
 07  4 23  0 12 15.0130000  0 11G 1G12G 2G 4G 6G 5G20G23G14G30G31
 -14685310.36049 -11424881.47947  25601527.0794   25601523.8844
     -1055.4224
 -12137797.87249  -9439364.75747  25905487.0564   25905482.8134
     -2366.1094
  -6889064.86249  -5349922.41047  27200419.3214   27200415.2274
      2825.6254
 -11142900.70749  -8665686.73747  26070903.9154   26070901.0444
       163.2034
  -2885863.75549  -2230799.29046  28026269.0324   28026265.9664
      3319.9064
 -14268192.16649 -11098511.92247  25360473.8684   25360470.2944
     -2012.3284
  -9508800.66649  -7392078.06747  26436169.4934   26436166.1224
     -1753.1564
  -2224099.14849  -1714581.52746  28131073.6024   28131068.5364
      3404.6414
  -3415398.36249  -2642642.89246  27539427.5794   27539424.3524
     -3659.2034
 -17769208.53049 -13826288.91048  24763726.7204   24763723.5404
      -241.0784
 -14988739.83849 -11661290.96448  25588385.7674   25588381.5754
      1320.9064
 07  4 23  0 12 30.0130000  0 11G 1G12G 2G 4G 6G 5G20G23G14G30G31
 -14669403.81849 -11412486.77547  25604553.9464   25604550.7204
     -1065.5004
 -12102247.91949  -9411663.44547  25912251.9544   25912247.5094
     -2373.9224
  -6931399.06549  -5382910.15647  27192363.7594   27192358.9774
      2818.8914
 -11145267.55749  -8667531.03247  26070454.2354   26070451.1224
       152.4064
  -2935637.91649  -2269584.21246  28016796.4934   28016794.5284
      3316.5004
 -14237937.48449 -11074936.91247  25366231.0404   25366227.8454
     -2021.6564
  -9482429.53649  -7371529.13647  26441187.8994   26441183.9894
     -1762.9534
  -2275137.88649  -1754351.91046  28121360.5564   28121355.6184
      3400.4224
  -3360475.70149  -2599846.02446  27549878.2204   27549875.0324
     -3663.7814
 -17765508.92249 -13823406.14048  24764430.4384   24764427.4704
      -252.2194
 -15008485.71149 -11676677.37148  25584628.6344   25584624.2274
      1311.9384
 07  4 23  0 12 45.0130000  0 11G 1G12G 2G 4G 6G 5G20G23G14G30G31
 -14653345.53849 -11399973.82747  25607609.5634   25607606.4154
     -1075.5474
 -12066579.37249  -9383869.73947  25919039.1884   25919034.6424
     -2381.8124
  -6973631.99149  -5415818.90947  27184327.3134   27184322.7904
      2812.1254
 -11147471.92749  -8669248.71747  26070034.1654   26070031.0364
       141.5314
  -2985360.67049  -2308329.20246  28007335.3214   28007332.8214
      3313.2504
 -14207542.85949 -11051252.81447  25372015.2274   25372011.4854
     -2030.9844
  -9455911.52949  -7350865.76347  26446234.1424   26446229.9034
     -1772.7814
  -2326111.39349  -1794071.47946  28111660.8604   28111655.6614
      3396.0314
  -3305482.86249  -2556994.47946  27560343.0714   27560339.5094
     -3668.5314
 -17761642.70949 -13820393.48148  24765166.2594   24765163.1064
      -263.2814
 -15028097.47349 -11691959.27848  25580896.5794   25580892.1814
      1302.9534
 07  4 23  0 13  0.0130000  0 11G 1G12G 2G 4G 6G 5G20G23G14G30G31
 -14637135.06049 -11387342.28347  25610694.0794   25610690.9314
     -1085.8754
 -12030791.96249  -9355983.47647  25925849.5714   25925845.4464
     -2389.8594
  -7015763.07249  -5448648.39747  27176310.0634   27176305.3724
      2805.3134
 -11149513.58049  -8670839.62747  26069646.2434   26069642.5244
       130.6254
  -3035030.92749  -2347033.27446  27997882.6814   27997880.8214
      3309.5944
 -14177007.87549 -11027459.30647  25377826.0174   25377822.1964
     -2040.3124
  -9429246.28149  -7330087.64247  26451308.1424   26451304.3174
     -1782.6094
  -2377018.90649  -1833739.71647  28101973.6344   28101968.6184
      3391.6564
  -3250419.53649  -2514088.03346  27570821.3524   27570817.9704
     -3673.2344
 -17757609.52449 -13817250.73048  24765933.7434   24765930.8764
      -274.4694
 -15047574.42349 -11707136.09448  25577190.3684   25577185.9774
      1293.8754
 07  4 23  0 13 15.0130000  0 11G 1G12G 2G 4G 6G 5G20G23G14G30G31
 -14620773.88849 -11374593.31347  25613807.5874   25613803.9424
     -1095.7814
 -11994887.28849  -9328005.82747  25932681.9464   25932678.2204
     -2397.5314
  -7057792.94449  -5481398.97647  27168311.8374   27168307.3994
      2798.6414
 -11151393.85549  -8672304.82647  26069287.7824   26069285.0094
       119.9694
  -3084649.87649  -2385697.42746  27988440.2354   27988439.1884
      3306.2194
 -14146334.25949 -11003557.70147  25383662.4854   25383659.2274
     -2049.5474
  -9402435.41049  -7309196.06347  26456409.9234   26456405.7944
     -1792.2194
  -2427861.25049  -1873357.09247  28092298.2204   28092293.6694
      3387.3594
  -3195287.38649  -2471127.90646  27581312.0874   27581308.9774
     -3677.8124
 -17753410.63949 -13813978.87848  24766732.9624   24766729.3684
      -285.5004
 -15066917.84149 -11722208.89248  25573509.2824   25573505.3214
      1285.0944
 07  4 23  0 13 30.0130000  0 11G 1G12G 2G 4G 6G 5G20G23G14G30G31
 -14604262.74049 -11361727.51447  25616950.0094   25616946.9544
     -1105.8124
 -11958866.19249  -9299937.43747  25939536.1814   25939533.0674
     -2405.2814
  -7099721.77349  -5514070.75747  27160333.1884   27160328.5444
      2791.8594
 -11153113.03349  -8673644.46847  26068960.9234   26068957.9974
       109.2504
  -3134217.80049  -2424321.84646  27979008.9154   27979005.4114
      3302.8444
 -14115522.85949 -10979548.80147  25389525.7124   25389522.4584
     -2058.6254
  -9375479.55149  -7288191.48847  26461539.2434   26461535.6734
     -1801.8284
  -2478638.91549  -1912924.09446  28082635.8524   28082631.4274
      3383.0314
  -3140087.30749  -2428114.87046  27591816.7904   27591813.3334
     -3682.2664
 -17749046.66549 -13810578.38348  24767563.1104   24767559.9544
      -296.4374
 -15086128.07149 -11737177.93448  25569853.7274   25569849.3024
      1276.2814
 07  4 23  0 13 45.0130000  0 11G 1G12G 2G 4G 6G 5G20G23G14G30G31
 -14587599.86749 -11348743.47747  25620120.7274   25620117.7634
     -1115.8754
 -11922727.09649  -9271777.11747  25946413.7044   25946410.0634
     -2413.1564
  -7141548.02549  -5546662.69647  27152373.5954   27152369.6884
      2784.9694
 -11154669.43449  -8674857.29147  26068665.0874   26068662.3254
        98.4534
  -3183732.66449  -2462904.95346  27969586.5794   27969583.1774
      3299.1724
 -14084572.12049 -10955431.30247  25395415.2514   25395412.7594
     -2067.9374
  -9348377.32449  -7267072.88847  26466696.7824   26466692.6494
     -1811.6564
  -2529349.49449  -1952438.84346  28072986.0324   28072980.7904
      3378.5164
  -3084817.96049  -2385047.83646  27602334.7674   27602331.2314
     -3686.9224
 -17744515.95349 -13807047.99448  24768425.5324   24768422.2944
      -307.5784
 -15105203.10149 -11752041.60748  25566223.6964   25566219.7634
      1267.1564
 07  4 23  0 14  0.0130000  0 11G 1G12G 2G 4G 6G 5G20G23G14G30G31
 -14570785.48849 -11335641.37947  25623319.9544   25623317.3174
     -1126.0164
 -11886470.24549  -9243525.01247  25953312.8994   25953309.6774
     -2421.0624
  -7183271.11449  -5579174.31347  27144433.6654   27144429.7704
      2778.1254
 -11156062.96049  -8675943.18447  26068399.8844   26068396.6654
        87.4694
  -3233193.86549  -2501446.13247  27960174.8214   27960172.0524
      3295.5784
 -14053482.35949 -10931205.52147  25401332.0954   25401328.6734
     -2077.2814
  -9321128.91149  -7245840.35647  26471881.8844   26471878.4744
     -1821.4694
  -2579992.70849  -1991900.99546  28063348.2354   28063343.1814
      3373.9534
  -3029479.54349  -2341927.04046  27612865.1734   27612861.2474
     -3691.5164
 -17739818.13149 -13803387.21348  24769319.3994   24769316.2784
      -318.7814
 -15124142.85649 -11766799.85748  25562619.7594   25562615.7204
      1258.1254
 07  4 23  0 14 15.0130000  0 11G 1G12G 2G 4G 6G 5G20G23G14G30G31
 -14553820.44649 -11322421.86447  25626548.5954   25626545.6424
     -1136.0624
 -11850096.53949  -9215181.88247  25960234.6574   25960231.1424
     -2428.7974
  -7224891.33049  -5611605.74547  27136514.3684   27136508.7784
      2771.2504
 -11157294.31249  -8676902.69347  26068165.4544   26068162.3994
        76.6094
  -3282601.93649  -2539945.95147  27950772.9314   27950769.4934
      3292.0784
 -14022254.39249 -10906872.04447  25407273.8994   25407271.0994
     -2086.3754
  -9293735.32349  -7224494.70447  26477094.6024   26477091.1574
     -1831.0624
  -2630569.12249  -2031311.17346  28053724.4384   28053719.1264
      3369.5634
  -2974073.09249  -2298753.17446  27623407.9314   27623404.4774
     -3695.9844
 -17734954.40149 -13799597.28048  24770244.7274   24770241.8764
      -329.7344
 -15142947.83449 -11781453.09048  25559041.1734   25559037.1654
      1249.2194
 07  4 23  0 14 30.0130000  0 11G 1G12G 2G 4G 6G 5G20G23G14G30G31
 -14536704.37949 -11309084.67747  25629805.8604   25629802.5014
     -1146.1414
 -11813605.86049  -9186747.55747  25967178.4934   25967174.5284
     -2436.7034
  -7266407.62349  -5643956.07847  27128614.3604   27128608.9624
      2764.2194
 -11158362.95449  -8677735.43747  26067961.8994   26067959.2514
        65.6884
  -3331956.30949  -2578403.95546  27941380.2124   27941378.5954
      3288.3594
 -13990888.23749 -10882430.93947  25413242.7984   25413239.9814
     -2095.7974
  -9266196.23749  -7203035.69447  26482335.3214   26482331.9934
     -1840.8754
  -2681077.71949  -2070668.52546  28044112.9934   28044108.1614
      3364.8594
  -2918598.59649  -2255526.26246  27633964.4624   27633960.7784
     -3700.5164
 -17729924.48949 -13795678.00348  24771201.9624   24771198.9464
      -341.0164
 -15161617.29949 -11796000.71948  25555488.1814   25555484.3214
      1240.0164
 07  4 23  0 14 45.0130000  0 11G 1G12G 2G 4G 6G 5G20G23G14G30G31
 -14519435.82649 -11295628.62547  25633091.7984   25633088.5874
     -1156.2664
 -11776996.87849  -9158221.04247  25974144.7124   25974140.9624
     -2444.5164
  -7307818.72449  -5676224.63147  27120734.3134   27120729.3604
      2757.2034
 -11159267.44849  -8678440.24947  26067790.1184   26067787.3924
        54.8594
  -3381255.12249  -2616818.59346  27931999.0244   27931996.1344
      3284.7344
 -13959382.30649 -10857880.83847  25419238.3374   25419235.6304
     -2105.0474
  -9238510.47549  -7181462.39647  26487603.6574   26487600.2434
     -1850.6254
  -2731516.89249  -2109971.84946  28034515.1344   28034509.5794
      3360.1884
  -2863055.07149  -2212245.67046  27644534.6264   27644530.7634
     -3705.3124
 -17724726.23849 -13791627.36748  24772190.9624   24772187.9314
      -352.0784
 -15180149.62849 -11810441.46548  25551961.9384   25551957.6884
      1230.9224
 07  4 23  0 15  0.0130000  0 11G 1G12G 2G 4G 6G 5G20G23G14G30G31
 -14502016.63749 -11282055.25547  25636406.7274   25636404.1424
     -1166.2664
 -11740271.72949  -9129604.04747  25981133.8294   25981128.9314
     -2452.1874
  -7349124.88349  -5708411.14947  27112874.1024   27112868.4664
      2750.3134
 -11160009.38349  -8679018.36447  26067648.7594   26067645.7164
        44.1094
  -3430499.57149  -2655190.90846  27922628.0714   27922625.8174
      3281.1564
 -13927738.54049 -10833223.33047  25425259.9314   25425256.9704
     -2114.1254
  -9210679.71149  -7159776.12947  26492899.9774   26492896.3604
     -1860.0624
  -2781887.58249  -2149221.77046  28024930.3684   28024923.8924
      3355.8444
  -2807444.20649  -2168912.52346  27655116.5634   27655113.3954
     -3709.5004
 -17719361.71849 -13787447.14648  24773211.6424   24773208.8374
      -363.1094
 -15198546.34249 -11824776.53148  25548460.9704   25548457.3844
      1221.9844
 07  4 23  0 15 15.0130000  0 11G 1G12G 2G 4G 6G 5G20G23G14G30G31
 -14484447.62749 -11268365.11647  25639749.7044   25639746.7594
     -1176.2664
 -11703431.21449  -9100897.17247  25988144.3374   25988139.5674
     -2459.8594
  -7390327.26849  -5740516.89647  27105032.6964   27105027.6224
      2743.3594
 -11160589.53449  -8679470.43847  26067538.8524   26067535.6224
        33.2504
  -3479690.39249  -2693521.45846  27913267.2594   27913264.8724
      3277.6414
 -13895958.11749 -10808459.38547  25431307.7204   25431304.4664
     -2123.3124
  -9182705.18249  -7137977.81047  26498223.2514   26498219.3954
     -1869.7344
  -2832190.36649  -2188418.74647  28015357.5094   28015351.4774
      3351.2034
  -2751767.25949  -2125527.87746  27665711.2744   27665707.8884
     -3713.9534
 -17713831.98049 -13783138.25048  24774264.1494   24774261.2394
      -374.1414
 -15216808.07749 -11839006.46848  25544985.9154   25544981.8174
      1212.9224
 07  4 23  0 15 30.0130000  0 11G 1G12G 2G 4G 6G 5G20G23G14G30G31
 -14466729.00449 -11254558.40947  25643121.5324   25643118.1814
     -1186.2664
 -11666475.51349  -9072100.50247  25995176.7824   25995172.2674
     -2467.5314
  -7431425.01349  -5772540.79947  27097212.4234   27097206.9034
      2736.2814
 -11161007.70949  -8679796.28047  26067458.9774   26067456.1694
        22.5164
  -3528826.96849  -2731809.71146  27903916.7044   27903913.8954
      3274.0164
 -13864041.19549 -10783589.04447  25437381.7824   25437378.4934
     -2132.3914
  -9154587.03449  -7116067.58047  26503573.9934   26503570.6574
     -1879.4534
  -2882424.97449  -2227562.61347  28005798.2984   28005793.2274
      3346.6724
  -2696024.48549  -2082091.97146  27676318.8294   27676315.6694
     -3718.5004
 -17708136.83149 -13778700.47448  24775347.9704   24775345.0994
      -385.3124
 -15234934.75349 -11853131.16848  25541536.4774   25541532.3094
      1203.8914
 07  4 23  0 15 45.0130000  0 11G 1G12G 2G 4G 6G 5G20G23G14G30G31
 -14448859.48249 -11240634.13047  25646522.1344   25646519.2354
     -1196.3594
 -11629403.50149  -9043213.16947  26002231.2904   26002227.0954
     -2475.3914
  -7472417.46449  -5804482.93247  27089411.3134   27089406.3414
      2729.2974
 -11161262.83549  -8679995.08947  26067410.8764   26067407.0794
        11.5004
  -3577907.79849  -2770054.53446  27894577.2204   27894574.6884
      3270.2504
 -13831986.69849 -10758611.54247  25443481.0484   25443477.6774
     -2141.5474
  -9126323.99849  -7094044.41547  26508952.4774   26508949.0484
     -1889.0784
  -2932589.66149  -2266651.98147  27996252.4704   27996245.9894
      3341.9224
  -2640215.09649  -2038604.14346  27686939.8294   27686935.7434
     -3722.8284
 -17702274.96249 -13774132.79648  24776463.4234   24776460.1104
      -396.3594
 -15252924.53549 -11867149.19848  25538113.0634   25538109.3724
      1194.7194
 07  4 23  0 16  0.0130000  0 11G 1G12G 2G 4G 6G 5G20G23G14G30G31
 -14430839.73149 -11226592.77947  25649951.1424   25649948.1264
     -1206.3284
 -11592216.14749  -9014236.03047  26009307.7044   26009303.3254
     -2483.0164
  -7513304.11649  -5836342.61047  27081630.2354   27081625.5324
      2722.2814
 -11161355.30849  -8680067.12147  26067392.9544   26067389.7434
         0.7194
  -3626933.12149  -2808256.08446  27885247.9464   27885245.4464
      3266.4844
 -13799795.29149 -10733527.27047  25449606.5874   25449603.2314
     -2150.6564
  -9097917.00249  -7071909.10847  26514358.0014   26514354.5594
     -1898.6094
  -2982684.58849  -2305686.95946  27986719.5484   27986713.5834
      3337.3594
  -2584339.65949  -1995064.82346  27697572.4314   27697568.5994
     -3727.3124
 -17696246.82549 -13769435.50648  24777610.5244   24777607.3214
      -407.4224
 -15270778.01849 -11881061.01848  25534715.6344   25534711.6064
      1185.6564
 07  4 23  0 16 15.0130000  0 11G 1G12G 2G 4G 6G 5G20G23G14G30G31
 -14412669.56849 -11212434.19547  25653408.7824   25653406.3644
     -1216.3754
 -11554913.44649  -8985169.03047  26016406.2124   26016402.2944
     -2490.6874
  -7554084.63849  -5868119.58647  27073871.2594   27073865.3564
      2715.0784
 -11161284.84249  -8680012.23447  26067406.3454   26067402.4194
       -10.1564
  -3675902.36649  -2846413.97346  27875929.7204   27875926.9234
      3262.6564
 -13767467.12449 -10708336.45747  25455759.0404   25455755.4504
     -2159.7504
  -9069366.21049  -7049661.80047  26519791.3374   26519787.8804
     -1908.1414
  -3032709.33649  -2344667.34446  27977200.5564   27977193.7674
      3332.5784
  -2528398.46549  -1951474.34446  27708217.8214   27708213.8254
     -3731.6874
 -17690052.61449 -13764608.96448  24778789.2434   24778786.4544
      -418.5004
 -15288494.75249 -11894866.24048  25531344.6184   25531340.6574
      1176.5474
 07  4 23  0 16 30.0130000  0 11G 1G12G 2G 4G 6G 5G20G23G14G30G31
 -14394349.39549 -11198158.72547  25656895.2204   25656892.0324
     -1226.3284
 -11517495.88249  -8956012.54947  26023526.2514   26023521.9114
     -2498.3124
  -7594758.62049  -5899813.53247  27066130.6184   27066125.3374
      2708.0164
 -11161051.68949  -8679830.55747  26067450.4854   26067447.3094
       -20.9694
  -3724815.40649  -2884527.96146  27866621.5634   27866618.8334
      3258.9224
 -13735002.65149 -10683039.46047  25461936.3524   25461932.7824
     -2168.8914
  -9040671.68049  -7027302.41347  26525251.6344   26525248.4544
     -1917.7344
  -3082663.56449  -2383592.76246  27967693.7904   27967688.0134
      3327.9694
  -2472392.07349  -1907833.01446  27718875.6344   27718871.2554
     -3736.0314
 -17683692.09849 -13759652.81648  24779999.5244   24779996.3094
      -429.5784
 -15306074.84849 -11908564.98748  25527999.2904   25527994.9384
      1167.5314
 07  4 23  0 16 45.0130000  0 11G 1G12G 2G 4G 6G 5G20G23G14G30G31
 -14375879.69849 -11183766.74447  25660409.6884   25660406.7164
     -1236.4064
 -11479964.28749  -8926767.33147  26030668.5634   26030664.9774
     -2506.0474
  -7635326.19949  -5931424.58147  27058410.5014   27058405.4074
      2700.9064
 -11160656.04849  -8679522.23247  26067526.2124   26067522.3024
       -31.7974
  -3773672.46049  -2922598.29946  27857324.7824   27857321.1534
      3255.1564
 -13702402.33349 -10657636.59247  25468139.7824   25468136.8454
     -2177.9844
  -9011834.21849  -7004831.66047  26530738.9624   26530735.8604
     -1927.3284
  -3132547.23949  -2422463.21446  27958201.4384   27958196.1344
      3323.1564
  -2416321.09549  -1864141.32946  27729544.9544   27729541.2784
     -3740.2974
 -17677165.89849 -13754567.54948  24781241.5014   24781238.4664
      -440.7344
 -15323518.54149 -11922157.46048  25524679.6104   25524675.5794
      1158.2974
 07  4 23  0 17  0.0130000  0 11G 1G12G 2G 4G 6G 5G20G23G14G30G31
 -14357259.42149 -11169257.43247  25663952.9154   25663950.1064
     -1246.2974
 -11442317.51049  -8897432.44547  26037832.4384   26037829.0914
     -2513.6564
  -7675785.95449  -5962951.63947  27050711.5244   27050705.9274
      2693.8444
 -11160096.93849  -8679086.57547  26067632.3684   26067628.8024
       -42.6724
  -3822471.89549  -2960623.87846  27848038.0634   27848035.1924
      3251.4844
 -13669665.43149 -10632127.30547  25474369.6654   25474366.2674
     -2186.9374
  -8982853.04149  -6982248.94647  26536253.9314   26536250.0524
     -1936.8444
  -3182358.93749  -2461277.52246  27948722.7354   27948717.0834
      3318.4064
  -2360184.65849  -1820398.68546  27740227.5564   27740223.9974
     -3744.5314
 -17670472.80049 -13749352.13548  24782515.6424   24782511.7704
      -451.7034
 -15340824.63149 -11935642.71848  25521386.5794   25521382.3214
      1149.1884
 07  4 23  0 17 15.0130000  0 11G 1G12G 2G 4G 6G 5G20G23G14G30G31
 -14338490.18849 -11154632.05147  25667524.4314   25667521.7204
     -1256.2664
 -11404557.06949  -8868008.84947  26045018.2204   26045014.2204
     -2521.1564
  -7716138.86349  -5994395.44347  27043032.1104   27043027.0994
      2686.5784
 -11159375.57449  -8678524.44347  26067769.6654   26067766.8884
       -53.5624
  -3871215.03349  -2998605.58546  27838762.7824   27838759.1424
      3247.8134
 -13636793.55749 -10606512.85647  25480624.5174   25480620.9114
     -2195.9224
  -8953729.63649  -6959555.39947  26541795.9854   26541792.4154
     -1946.3124
  -3232099.38049  -2500036.20846  27939257.5794   27939251.5404
      3313.6414
  -2303984.58249  -1776606.37846  27750922.6344   27750918.7634
     -3748.8284
 -17663614.41849 -13744007.92748  24783820.9154   24783817.3884
      -462.7194
 -15357994.04849 -11949021.47748  25518119.1964   25518115.1844
      1140.0004
 07  4 23  0 17 30.0130000  0 11G 1G12G 2G 4G 6G 5G20G23G14G30G31
 -14319572.32149 -11139890.85047  25671124.4074   25671121.7554
     -1266.2034
 -11366683.32249  -8838496.84147  26052225.7434   26052221.3374
     -2528.7344
  -7756384.79649  -6025755.84647  27035373.6884   27035368.7594
      2679.3594
 -11158492.25849  -8677836.17447  26067937.6184   26067934.2004
       -64.3594
  -3919901.53749  -3036543.06946  27829497.9234   27829494.0204
      3243.7814
 -13603787.15349 -10580793.56247  25486905.7044   25486902.2164
     -2205.0314
  -8924464.43649  -6936751.34647  26547365.0324   26547361.1534
     -1955.8594
  -3281768.93449  -2538739.73546  27929805.6814   27929800.7824
      3308.8914
  -2247721.48749  -1732765.01246  27761628.2744   27761624.8294
     -3753.0314
 -17656590.73749 -13738534.90748  24785157.5564   24785154.0284
      -473.7504
 -15375026.99749 -11962293.91248  25514877.9704   25514873.9854
      1130.8594
 07  4 23  0 17 45.0130000  0 11G 1G12G 2G 4G 6G 5G20G23G14G30G31
 -14300504.85749 -11125033.08747  25674753.1264   25674750.3064
     -1276.0944
 -11328695.71749  -8808896.11847  26059454.4464   26059450.7244
     -2536.1724
  -7796522.36849  -6057031.88047  27027736.2434   27027730.3954
      2672.3594
 -11157445.88049  -8677020.79347  26068136.9854   26068132.9074
       -75.1414
  -3968530.04749  -3074435.41246  27820244.6574   27820240.8254
      3240.0784
 -13570645.63349 -10554969.13247  25493212.5014   25493208.8454
     -2213.9064
  -8895056.60349  -6913836.16547  26552960.8924   26552957.6884
     -1965.2344
  -3331366.14349  -2577386.92347  27920367.6884   27920362.2984
      3304.1094
  -2191394.47849  -1688873.82446  27772348.2984   27772344.2084
     -3757.1414
 -17649400.94349 -13732932.46048  24786525.6184   24786522.0054
      -484.8284
 -15391922.15349 -11975458.97748  25511662.9384   25511658.7164
      1121.8754
 07  4 23  0 18  0.0130000  0 11G 1G12G 2G 4G 6G 5G20G23G14G30G31
 -14281289.43049 -11110060.03847  25678409.4464   25678406.7314
     -1286.0944
 -11290595.81949  -8779207.84047  26066704.6024   26066701.2594
     -2543.7194
  -7836552.75749  -6088224.38947  27020118.5174   27020113.2244
      2665.0164
 -11156237.87449  -8676079.45647  26068366.4544   26068363.4624
       -85.9694
  -4017101.93749  -3112283.59946  27811001.6964   27810997.6494
      3236.1884
 -13537370.34149 -10529040.40947  25499544.5794   25499541.1814
     -2222.8444
  -8865507.84549  -6890811.16247  26558583.8214   26558580.6694
     -1974.6724
  -3380891.88649  -2615978.39247  27910943.5094   27910937.9894
      3299.2504
  -2135005.52349  -1644934.39346  27783079.1494   27783074.2824
     -3761.5314
 -17642046.61549 -13727201.81648  24787924.9934   24787921.4034
      -495.8284
 -15408680.84249 -11988517.70948  25508474.1184   25508469.7784
      1112.5474
 07  4 23  0 18 15.0130000  0 11G 1G12G 2G 4G 6G 5G20G23G14G30G31
 -14261923.20749 -11094969.47647  25682095.1104   25682092.4544
     -1296.0164
 -11252381.09449  -8749430.06547  26073976.5094   26073972.5524
     -2551.4534
  -7876472.46749  -6119330.62747  27012521.9234   27012516.9814
      2657.7194
 -11154865.41949  -8675009.97947  26068627.6574   26068624.8684
       -96.8754
  -4065613.79949  -3150085.03746  27801770.0564   27801766.2514
      3232.2344
 -13503958.95949 -10503005.75247  25505902.3064   25505898.9424
     -2231.8914
  -8835815.59749  -6867674.38347  26564234.2204   26564230.8564
     -1984.1564
  -3430343.13249  -2654511.78247  27901533.2354   27901528.2124
      3294.3134
  -2078551.96849  -1600944.63446  27793820.9234   27793817.1734
     -3765.7344
 -17634524.70649 -13721340.60148  24789356.1344   24789352.5404
      -506.9374
 -15425300.06949 -12001467.75048  25505311.3454   25505306.5794
      1103.4064
 07  4 23  0 18 30.0130000  0 11G 1G12G 2G 4G 6G 5G20G23G14G30G31
 -14242407.89549 -11079762.72947  25685808.7124   25685806.0874
     -1306.0624
 -11214053.35449  -8719564.23147  26081269.9384   26081266.2314
     -2558.9224
  -7916282.86549  -6150351.75747  27004945.2674   27004940.8174
      2650.3134
 -11153330.04749  -8673813.56647  26068920.1814   26068916.4074
      -107.7974
  -4114066.97749  -3187840.69346  27792549.6494   27792546.3844
      3228.1414
 -13470412.88249 -10476866.02947  25512286.2514   25512282.9314
     -2240.8914
  -8805981.65449  -6844427.17047  26569911.7744   26569908.3804
     -1993.6094
  -3479720.91349  -2692987.89347  27892136.5014   27892131.7244
      3289.2814
  -2022035.92849  -1556906.13346  27804575.5244   27804572.1734
     -3769.6414
 -17626836.75949 -13715349.97048  24790819.1104   24790815.4774
      -518.0314
 -15441781.30649 -12014310.27048  25502175.2744   25502170.7394
      1094.1564
 07  4 23  0 18 45.0130000  0 11G 1G12G 2G 4G 6G 5G20G23G14G30G31
 -14222743.49949 -11064439.82047  25689550.3844   25689547.9664
     -1315.7974
 -11175612.79349  -8689610.55047  26088585.0954   26088581.7984
     -2566.4844
  -7955983.43849  -6181287.20147  26997391.6184   26997386.2164
      2643.0164
 -11151631.59249  -8672490.08447  26069242.6104   26069239.5364
      -118.6564
  -4162460.98049  -3225550.30447  27783340.3374   27783338.0484
      3224.2664
 -13436732.45049 -10450621.60647  25518695.1264   25518692.7634
     -2249.8124
  -8776006.07849  -6821069.58547  26575615.2984   26575612.5324
     -2003.0784
  -3529024.82749  -2731406.44247  27882753.7594   27882749.8604
      3284.4534
  -1965457.31249  -1512818.93346  27815342.2594   27815337.8064
     -3773.8754
 -17618982.85549 -13709230.01848  24792313.9074   24792309.9034
      -529.1094
 -15458124.15249 -12027044.96248  25499065.0794   25499060.7704
      1084.9064
 07  4 23  0 19  0.0130000  0 11G 1G12G 2G 4G 6G 5G20G23G14G30G31
 -14202930.06849 -11049000.80347  25693320.8604   25693317.8174
     -1325.8444
 -11137059.35049  -8659568.84747  26095921.1654   26095917.3994
     -2574.0474
  -7995573.79849  -6212136.71647  26989857.9154   26989852.4544
      2635.6724
 -11149769.88949  -8671039.41647  26069597.0404   26069594.2354
      -129.5004
  -4210795.52249  -3263213.60246  27774142.7674   27774140.7044
      3220.2344
 -13402917.68349 -10424272.46747  25525130.3374   25525127.4894
     -2258.7814
  -8745889.03149  -6797601.77847  26581346.7594   26581343.0834
     -2012.5164
  -3578254.62949  -2769767.33146  27873384.9074   27873381.2244
      3279.5164
  -1908816.43549  -1468683.17746  27826120.3294   27826116.3334
     -3778.1724
 -17610963.00749 -13702980.80548  24793839.8064   24793836.2744
      -540.2034
 -15474328.31949 -12039671.60148  25495981.4384   25495977.0634
      1075.6884
 07  4 23  0 19 15.0130000  0 12G 1G12G 2G 4G 6G 5G20G23G14G30G31G 7
 -14182969.13649 -11033446.84447  25697119.4544   25697116.6654
     -1335.6724
 -11098394.90449  -8629440.68047  26103278.8994   26103274.9894
     -2581.4224
  -8035055.00449  -6242901.26847  26982344.4074   26982339.5794
      2628.4694
 -11147746.41349  -8669462.71347  26069982.6814   26069979.1224
      -140.3754
  -4259071.68749  -3300831.39447  27764956.6814   27764952.5954
      3216.3914
 -13368970.27849 -10397819.93247  25531590.5014   25531587.6064
     -2267.7034
  -8715632.16649  -6774025.01847  26587104.5174   26587100.9154
     -2021.8594
  -3627411.11949  -2808071.04947  27864031.8924   27864026.7744
      3274.5314
  -1852115.01949  -1424500.24046  27836910.5794   27836906.3254
     -3782.1094
 -17602778.51549 -13696603.24648  24795397.4774   24795393.7784
      -551.2194
 -15490395.12749 -12052191.19148  25492924.2594   25492919.7704
      1066.4534
    -24934.210 9                  28592383.571
      3396.109
 07  4 23  0 19 30.0130000  0 12G 1G12G 2G 4G 6G 5G20G23G14G30G31G 7
 -14162859.70849 -11017777.15347  25700945.9384   25700943.1454
     -1345.5624
 -11059618.52049  -8599225.33447  26110657.2594   26110653.7634
     -2588.7344
  -8074425.51449  -6273579.56647  26974853.0174   26974847.5324
      2620.9844
 -11145560.08149  -8667759.09047  26070398.1344   26070394.8024
      -151.1874
  -4307287.85349  -3338402.41946  27755781.3924   27755778.3024
      3212.4534
 -13334889.38649 -10371263.38447  25538076.1494   25538072.5994
     -2276.5314
  -8685234.67649  -6750338.67447  26592888.8064   26592885.3294
     -2031.1414
  -3676492.70249  -2846316.39647  27854691.4704   27854687.4584
      3269.6094
  -1795352.36349  -1380269.56946  27847711.7824   27847708.1534
     -3786.2814
 -17594428.48949 -13690096.75548  24796986.2124   24796982.7704
      -562.1414
 -15506323.34949 -12064602.81548  25489892.6964   25489888.5954
      1057.2814
    -75859.49349    -41477.96146  28582693.1104   28582690.0174
      3394.0314
 07  4 23  0 19 45.0130000  0 12G 1G12G 2G 4G 6G 5G20G23G14G30G31G 7
 -14142601.05749 -11001991.19447  25704801.1024   25704798.4544
     -1355.5004
 -11020729.67849  -8568922.38047  26118057.9384   26118054.2274
     -2596.2664
  -8113684.23549  -6304170.73347  26967382.1654   26967376.9464
      2613.5944
 -11143209.92049  -8665927.78347  26070845.4464   26070842.6064
      -162.1094
  -4355443.12749  -3375926.00246  27746617.4544   27746614.1024
      3208.3594
 -13300674.44949 -10344602.36247  25544586.5954   25544583.3174
     -2285.4534
  -8654695.86449  -6726542.19547  26598700.0484   26598696.4814
     -2040.5944
  -3725498.34749  -2884502.56447  27845365.8524   27845361.4974
      3264.5634
  -1738527.83549  -1335990.71646  27858525.0874   27858521.4894
     -3790.3914
 -17585911.78949 -13683460.27348  24798606.7824   24798602.8644
      -573.3444
 -15522111.91049 -12076905.58248  25486888.5794   25486884.2594
      1047.9534
   -126749.75949    -81132.76046  28573008.8524   28573005.7824
      3391.4224
 07  4 23  0 20  0.0130000  0 12G 1G12G 2G 4G 6G 5G20G23G14G30G31G 7
 -14122195.37049 -10986090.64547  25708684.1424   25708681.0284
     -1365.2974
 -10981730.50349  -8538533.44147  26125479.4074   26125476.2164
     -2603.6094
  -8152832.78949  -6334676.03447  26959932.2904   26959926.3334
      2606.3284
 -11140697.99049  -8663970.46047  26071323.7044   26071320.2004
      -172.9374
  -4403538.95849  -3413403.25246  27737464.8604   27737461.2904
      3204.4384
 -13266327.65949 -10317838.59647  25551122.6884   25551119.4464
     -2294.2034
  -8624017.95849  -6702637.34347  26604538.2674   26604534.5794
     -2049.9224
  -3774429.65349  -2922630.86047  27836055.2044   27836050.1734
      3259.5004
  -1681643.83949  -1291665.54546  27869349.9234   27869346.8094
     -3794.2814
 -17577230.91949 -13676695.89748  24800258.8214   24800255.1264
      -584.1724
 -15537762.63649 -12089100.95748  25483910.4314   25483906.2554
      1038.7664
   -177606.81949   -120761.68246  28563332.6104   28563328.2514
      3389.2814
 07  4 23  0 20 15.0130000  0 12G 1G12G 2G 4G 6G 5G20G23G14G30G31G 7
 -14101642.80749 -10970075.66947  25712595.0484   25712592.1774
     -1375.1724
 -10942621.23649  -8508058.71047  26132921.3844   26132917.8684
     -2611.0624
  -8191870.96249  -6365095.39047  26952503.7044   26952497.5714
      2598.7974
 -11138024.42949  -8661887.16947  26071832.8294   26071829.1144
      -183.7344
  -4451575.19749  -3450834.06246  27728323.9314   27728320.6224
      3200.2664
 -13231849.50049 -10290972.48247  25557683.6184   25557680.2124
     -2302.9534
  -8593201.18849  -6678624.26547  26610402.2514   26610398.7514
     -2059.1564
  -3823286.30649  -2960700.97547  27826758.0714   27826753.0874
      3254.5164
  -1624700.72049  -1247294.26446  27880186.0174   27880182.1654
     -3798.2974
 -17568385.96449 -13669803.70948  24801941.9704   24801938.1454
      -595.2664
 -15553275.64949 -12101189.00148  25480958.2744   25480954.5994
      1029.5314
   -228430.49649   -160364.50446  28553659.4854   28553656.7864
      3387.0784
 07  4 23  0 20 30.0130000  0 12G 1G12G 2G 4G 6G 5G20G23G14G30G31G 7
 -14080944.52149 -10953947.15247  25716533.8374   25716530.9034
     -1384.8754
 -10903403.35649  -8477499.34847  26140384.7354   26140380.9274
     -2618.2504
  -8230799.38649  -6395429.23347  26945095.9074   26945089.9584
      2591.5164
 -11135190.10649  -8659678.61447  26072372.0094   26072368.7274
      -194.2814
  -4499552.67649  -3488219.12247  27719194.1024   27719190.5364
      3196.5164
 -13197241.08349 -10264004.84947  25564269.2514   25564265.7944
     -2311.6254
  -8562246.96449  -6654504.11547  26616292.7434   26616289.6424
     -2068.2664
  -3872069.07949  -2998713.51047  27817474.7984   27817469.5794
      3249.6254
  -1567699.88849  -1202877.99546  27891032.6264   27891029.5364
     -3802.1414
 -17559378.01349 -13662784.56748  24803656.0634   24803652.2824
      -606.0164
 -15568651.78349 -12113170.41148  25478032.7274   25478028.4194
      1020.3914
   -279221.57049   -199941.95646  28543994.9774   28543991.1144
      3384.8444
 07  4 23  0 20 45.0130000  0 12G 1G12G 2G 4G 6G 5G20G23G14G30G31G 7
 -14060099.42049 -10937704.22347  25720500.7594   25720497.4854
     -1394.5474
 -10864075.74349  -8446854.43147  26147868.7514   26147864.9544
     -2625.4844
  -8269616.33449  -6425676.25747  26937709.0174   26937703.5284
      2584.1094
 -11132193.96149  -8657343.96247  26072941.8994   26072939.1064
      -205.1874
  -4547469.67249  -3525557.03946  27710075.0794   27710072.0834
      3192.4064
 -13162501.59449 -10236935.13847  25570880.0484   25570876.5484
     -2320.2664
  -8531154.13049  -6630275.92347  26622209.5714   26622206.2314
     -2077.5164
  -3920776.30349  -3036667.23347  27808206.4384   27808201.0204
      3244.6254
  -1510640.56549  -1158416.18746  27901891.0244   27901887.1494
     -3805.7974
 -17550205.56049 -13655637.19848  24805401.1734   24805398.0014
      -617.0164
 -15583889.27949 -12125043.79948  25475132.4234   25475128.5564
      1011.2194
   -329978.24149   -239492.63646  28534336.0244   28534332.6734
      3382.5314
 07  4 23  0 21  0.0130000  0 12G 1G12G 2G 4G 6G 5G20G23G14G30G31G 7
 -14039108.16649 -10921347.40447  25724495.0634   25724492.4854
     -1404.3124
 -10824639.27149  -8416124.68947  26155373.3374   26155369.6964
     -2632.7664
  -8308322.22749  -6455836.73547  26930343.3064   26930337.4704
      2576.7034
 -11129036.36149  -8654883.44947  26073542.7204   26073539.8684
      -215.8284
  -4595326.49149  -3562848.06747  27700968.2594   27700965.6654
      3188.4694
 -13127631.77349 -10209763.89847  25577515.6264   25577512.3134
     -2328.9224
  -8499923.67849  -6605940.50447  26628151.8994   26628148.8884
     -2086.5784
  -3969408.06949  -3074562.11547  27798952.3374   27798946.5364
      3239.6564
  -1453523.41849  -1113909.35046  27912759.8134   27912755.9934
     -3809.7504
 -17540869.47449 -13648362.39048  24807178.0954   24807174.4464
      -627.8914
 -15598988.63749 -12136809.54148  25472259.2124   25472255.5054
      1002.0474
   -380701.12949   -279017.04846  28524684.6654   28524680.2904
      3380.3754
 07  4 23  0 21 15.0130000  0 12G 1G12G 2G 4G 6G 5G20G23G14G30G31G 7
 -14017969.80249 -10904875.95847  25728517.7124   25728514.4704
     -1414.1564
 -10785092.97349  -8385309.37047  26162898.9704   26162895.0364
     -2640.0944
  -8346915.51449  -6485909.45647  26922999.5794   26922994.7004
      2569.1414
 -11125716.23049  -8652296.30847  26074174.7274   26074171.2474
      -226.7664
  -4643121.78249  -3600091.13746  27691873.9234   27691871.2704
      3184.3594
 -13092630.68749 -10182490.35347  25584175.8374   25584172.8604
     -2337.8124
  -8468554.74449  -6581497.18447  26634121.6964   26634118.0754
     -2095.8594
  -4017962.88549  -3112396.95847  27789712.6654   27789706.6344
      3234.3754
  -1396347.85149  -1069356.98746  27923639.6654   27923636.0714
     -3813.6254
 -17531368.47249 -13640959.08248  24808986.0174   24808983.0444
      -638.9064
 -15613948.72149 -12148466.74348  25469412.7984   25469408.2354
       992.7344
   -431388.65349   -318513.86546  28515037.8524   28515035.7554
      3377.9224
 07  4 23  0 21 30.0130000  0 12G 1G12G 2G 4G 6G 5G20G23G14G30G31G 7
 -13996685.39249 -10888290.69347  25732567.6884   25732564.9154
     -1423.8594
 -10745438.30649  -8354409.67647  26170444.0794   26170440.4074
     -2647.3284
  -8385396.65649  -6515894.75247  26915677.1344   26915672.2904
      2561.7814
 -11122234.71349  -8649583.43247  26074837.2744   26074833.9314
      -237.4374
  -4690856.04949  -3637286.68046  27682789.6344   27682786.9704
      3180.2034
 -13057499.55149 -10155115.45947  25590861.1654   25590857.3524
     -2346.3754
  -8437048.49049  -6556946.86147  26640116.9544   26640113.8254
     -2105.0474
  -4066441.49449  -3150172.44147  27780486.7354   27780482.0674
      3229.3594
  -1339114.94049  -1024759.83846  27934531.0564   27934527.4934
     -3817.4374
 -17521703.76549 -13633428.21848  24810825.5404   24810822.6964
      -649.7974
 -15628770.32349 -12160016.03048  25466592.2824   25466587.7984
       983.4064
   -482041.54249   -357983.72246  28505398.8994   28505396.3564
      3375.7974
 07  4 23  0 21 45.0130000  0 12G 1G12G 2G 4G 6G 5G20G23G14G30G31G 7
 -13975255.24949 -10871591.88947  25736645.8764   25736643.0874
     -1433.6094
 -10705675.32349  -8323425.51647  26178010.5094   26178007.1924
     -2654.5624
  -8423765.66849  -6545792.75147  26908375.5174   26908370.4074
      2554.0784
 -11118591.71249  -8646744.72947  26075529.9624   26075527.0674
      -248.2974
  -4738529.16549  -3674434.53246  27673717.9934   27673715.6574
      3176.1254
 -13022238.63849 -10127639.41047  25597570.7354   25597568.0714
     -2355.1254
  -8405405.21249  -6532289.77547  26646138.4854   26646135.2944
     -2114.1094
  -4114843.65749  -3187888.34647  27771276.7124   27771270.7984
      3224.2664
  -1281825.27649   -980118.54846  27945432.5564   27945428.6614
     -3821.2194
 -17511875.23849 -13625769.62048  24812695.4624   24812692.1424
      -660.8444
 -15643453.47749 -12171457.44748  25463798.0094   25463793.6104
       974.1884
   -532659.45549   -397426.29446  28495766.6104   28495764.0444
      3373.4534
 07  4 23  0 22  0.0130000  0 12G 1G12G 2G 4G 6G 5G20G23G14G30G31G 7
 -13953679.81949 -10854779.84547  25740751.8844   25740748.4894
     -1443.2814
 -10665804.63349  -8292357.38647  26185597.6734   26185593.9274
     -2661.7814
  -8462022.54349  -6575603.37747  26901095.6574   26901090.3334
      2546.6094
 -11114787.73449  -8643780.56647  26076254.0874   26076251.5134
      -259.0624
  -4786141.27549  -3711534.86246  27664658.0174   27664655.0364
      3172.0944
 -12986848.66449 -10100062.80147  25604305.0874   25604302.5564
     -2363.6874
  -8373625.53549  -6507526.40047  26652186.4384   26652183.0484
     -2123.3124
  -4163169.40749  -3225544.79747  27762079.8374   27762074.3644
      3219.1414
  -1224479.54449   -935433.57646  27956345.5634   27956341.5284
     -3824.9064
 -17501883.42049 -13617983.74248  24814596.7124   24814593.6304
      -671.6094
 -15657998.22449 -12182791.00348  25461030.0484   25461026.1574
       964.9384
   -583242.55249   -436841.71146  28486142.5174   28486138.7744
      3370.8134
 07  4 23  0 22 15.0130000  0 12G 1G12G 2G 4G 6G 5G20G23G14G30G31G 7
 -13931957.86249 -10837853.64047  25744884.8064   25744882.4384
     -1453.0314
 -10625825.26249  -8261204.57147  26193205.6264   26193201.1534
     -2669.0004
  -8500165.32549  -6605325.06147  26893837.4544   26893831.9344
      2539.0314
 -11110821.28749  -8640689.82547  26077009.0794   26077006.5094
      -269.8594
  -4833690.64049  -3748586.35547  27655610.2354   27655606.5404
      3167.6724
 -12951328.44349 -10072384.69847  25611064.7674   25611061.5874
     -2372.3754
  -8341708.28849  -6482655.82947  26658259.5404   26658256.2904
     -2132.4534
  -4211416.81949  -3263140.19047  27752899.1574   27752893.5054
      3213.8754
  -1167076.71149   -890704.11746  27967268.2594   27967264.5674
     -3828.7974
 -17491727.17749 -13610069.79648  24816529.1424   24816526.1424
      -682.6094
 -15672403.05649 -12194015.54348  25458288.8064   25458284.9934
       955.5634
   -633789.15149   -476228.72246  28476523.4384   28476520.3954
      3368.5634
 07  4 23  0 22 30.0130000  0 12G 1G12G 2G 4G 6G 5G20G23G14G30G31G 7
 -13910088.53949 -10820812.63047  25749046.6344   25749043.5994
     -1462.8124
 -10585736.54649  -8229966.57247  26200834.4384   26200830.4894
     -2676.1414
  -8538192.81849  -6634956.98147  26886601.3454   26886595.6304
      2531.3284
 -11106691.42949  -8637471.78147  26077794.7434   26077792.1384
      -280.8284
  -4881175.80649  -3785587.83147  27646573.3604   27646570.7004
      3163.4224
 -12915677.23749 -10044604.51147  25617849.3134   25617845.9744
     -2381.1094
  -8309652.78749  -6457677.51347  26664359.8994   26664355.9504
     -2141.6094
  -4259584.65349  -3300673.54447  27743733.2674   27743727.6574
      3208.6564
  -1109615.88349   -845929.44446  27978203.5324   27978199.0284
     -3832.6094
 -17481405.46949 -13602026.88848  24818493.2824   24818490.2274
      -693.6414
 -15686666.95749 -12205130.28148  25455574.9934   25455571.0794
       946.2034
   -684297.82749   -515586.10746  28466911.2204   28466908.6814
      3366.1254
 07  4 23  0 22 45.0130000  0 12G 1G12G 2G 4G 6G 5G20G23G14G30G31G 7
 -13888072.66349 -10803657.39847  25753236.1884   25753233.6844
     -1472.6564
 -10545539.25349  -8198643.96247  26208484.0244   26208479.8924
     -2683.4374
  -8576105.43949  -6664499.45847  26879386.7434   26879380.9854
      2523.8284
 -11102398.94949  -8634127.00147  26078611.5634   26078608.9424
      -291.5624
  -4928597.09649  -3822539.44547  27637548.9074   27637546.4744
      3159.1884
 -12879896.08549 -10016723.10547  25624657.9384   25624654.8254
     -2389.7504
  -8277459.87149  -6432592.12247  26670485.7824   26670481.9774
     -2150.8594
  -4307673.19149  -3338145.12947  27734581.6104   27734576.4344
      3203.3594
  -1052098.23949   -801110.50646  27989148.1024   27989144.2674
     -3836.3914
 -17470918.87349 -13593855.50048  24820488.9154   24820486.0134
      -704.5944
 -15700790.44849 -12216135.58148  25452887.4314   25452882.9814
       936.8914
   -734769.14549   -554914.44846  28457307.0014   28457303.6344
      3363.4384
 07  4 23  0 23  0.0130000  0 12G 1G12G 2G 4G 6G 5G20G23G14G30G31G 7
 -13865910.17849 -10786387.92947  25757453.4624   25757450.9744
     -1482.3594
 -10505233.42449  -8167236.81447  26216153.6964   26216150.4344
     -2690.6724
  -8613902.30749  -6693951.67947  26872194.3134   26872188.6184
      2515.9384
 -11097943.56549  -8630655.32347  26079459.4704   26079456.4774
      -302.4064
  -4975954.14149  -3859441.02146  27628536.8604   27628535.6424
      3155.0784
 -12843984.89749  -9988740.38747  25631491.7204   25631488.1614
     -2398.4534
  -8245129.63349  -6407399.74047  26676638.4074   26676634.5364
     -2159.8754
  -4355681.70949  -3375554.31947  27725445.9544   27725440.3924
      3197.8754
   -994523.48449   -756247.02546  28000104.8294   28000100.8334
     -3840.1564
 -17460267.52549 -13585555.76848  24822516.0324   24822512.8254
      -715.5944
 -15714773.04449 -12227031.10748  25450226.4314   25450222.4274
       927.5474
   -785202.51049   -594213.21546  28447709.3064   28447707.4344
      3361.0474
 07  4 23  0 23 15.0130000  0 12G 1G12G 2G 4G 6G 5G20G23G14G30G31G 7
 -13843601.67249 -10769004.70247  25761698.7674   25761695.8094
     -1492.0944
 -10464819.80949  -8135745.69947  26223844.1104   26223840.9234
     -2697.7194
  -8651583.46849  -6723313.62447  26865022.9154   26865018.2944
      2508.2344
 -11093325.63049  -8627056.95147  26080338.1574   26080335.4114
      -313.2504
  -5023247.00249  -3896292.63846  27619538.1574   27619534.5874
      3150.7504
 -12807944.36149  -9960656.83547  25638349.7354   25638346.5794
     -2407.0314
  -8212662.76049  -6382100.89047  26682816.9854   26682812.8994
     -2169.0314
  -4403610.49049  -3412901.34547  27716324.7744   27716319.9584
      3192.5784
   -936892.73049   -711339.97646  28011071.8134   28011067.8134
     -3844.0784
 -17449451.68849 -13577127.85948  24824574.1024   24824570.7864
      -726.5474
 -15728615.00749 -12237817.06448  25447592.7354   25447588.2704
       918.1094
   -835598.05949   -633482.54046  28438120.9774   28438117.6224
      3358.4384
 07  4 23  0 23 30.0130000  0 12G 1G12G 2G 4G 6G 5G20G23G14G30G31G 7
 -13821147.15449 -10751507.69147  25765971.9464   25765969.2394
     -1501.8914
 -10424298.49049  -8104170.61347  26231555.4854   26231552.0324
     -2704.9374
  -8689148.73749  -6752585.28847  26857875.1964   26857870.1814
      2500.4064
 -11088545.02949  -8623331.80847  26081247.7744   26081245.0204
      -324.1414
  -5070475.18149  -3933093.76147  27610551.0244   27610548.6654
      3146.3594
 -12771774.59949  -9932472.59647  25645232.9154   25645229.4464
     -2415.6724
  -8180059.47049  -6356695.74847  26689021.2904   26689016.8804
     -2178.1724
  -4451459.19449  -3450186.05246  27707219.9544   27707215.5134
      3187.2194
   -879206.28149   -666389.51646  28022048.5014   28022044.6574
     -3847.6874
 -17438471.59249 -13568571.98548  24826663.6494   24826660.2514
      -737.5004
 -15742316.12549 -12248493.25248  25444985.4314   25444981.0284
       908.6414
   -885955.38349   -672722.00446  28428538.7824   28428534.1814
      3355.5784
 07  4 23  0 23 45.0130000  0 12G 1G12G 2G 4G 6G 5G20G23G14G30G31G 7
 -13798546.46849 -10733896.75347  25770272.7904   25770269.7824
     -1511.5624
 -10383669.54049  -8072511.65247  26239286.7204   26239283.2044
     -2712.2034
  -8726597.52549  -6781766.18047  26850748.8994   26850743.5364
      2492.6724
 -11083601.65449  -8619479.83047  26082189.0564   26082185.7514
      -335.0624
  -5117638.21549  -3969844.20946  27601577.0404   27601572.5134
      3141.9694
 -12735475.58549  -9904187.58947  25652140.0954   25652136.8884
     -2424.3124
  -8147319.62749  -6331184.19347  26695251.1574   26695246.7204
     -2187.2194
  -4499226.81349  -3487407.47847  27698129.8214   27698125.4114
      3181.8134
   -821464.13849   -621395.59947  28033036.8524   28033032.4974
     -3851.3594
 -17427326.81449 -13559887.76348  24828784.7594   24828780.5444
      -748.4844
 -15755876.07949 -12259059.44248  25442405.0244   25442400.7554
       899.2974
   -936273.81749   -711931.04846  28418963.0874   28418958.4704
      3353.2194
 07  4 23  0 24  0.0130000  0 12G 1G12G 2G 4G 6G 5G20G23G14G30G31G 7
 -13775800.26149 -10716172.43047  25774601.0404   25774598.5094
     -1521.3124
 -10342933.54449  -8040769.28047  26247038.2674   26247034.7164
     -2719.2504
  -8763929.90749  -6810856.36147  26843644.5794   26843639.1964
      2485.0634
 -11078495.79649  -8615501.23247  26083160.3604   26083157.3414
      -345.7664
  -5164736.16449  -4006543.90446  27592613.8454   27592610.4934
      3137.6564
 -12699048.07549  -9875802.42447  25659072.0794   25659068.7244
     -2432.7034
  -8114444.10749  -6305566.87647  26701507.1574   26701503.2984
     -2196.1254
  -4546913.36249  -3524565.81447  27689056.1964   27689050.8644
      3176.4064
   -763667.16849   -576359.10046  28044035.3604   28044031.8564
     -3854.8594
 -17416017.85449 -13551075.60748  24830936.5174   24830933.2864
      -759.3284
 -15769295.07349 -12269515.80748  25439851.2124   25439846.8094
       889.8914
   -986553.56049   -751110.07546  28409394.5324   28409391.6144
      3350.6724
 07  4 23  0 24 15.0130000  0 12G 1G12G 2G 4G 6G 5G20G23G14G30G31G 7
 -13752908.21749 -10698334.47947  25778957.0094   25778954.5914
     -1531.0004
 -10302090.29849  -8008943.35447  26254810.8064   26254806.4584
     -2726.3754
  -8801144.71349  -6839854.87347  26836563.5014   26836557.6344
      2477.1094
 -11073227.10049  -8611395.74947  26084162.7744   26084159.8524
      -356.6724
  -5211768.24249  -4043192.26446  27583663.4464   27583660.9504
      3133.3134
 -12662491.92549  -9847317.09647  25666028.3134   25666025.0094
     -2441.3284
  -8081432.39749  -6279843.45747  26707788.8374   26707784.9114
     -2205.2194
  -4594518.17049  -3561660.41147  27679997.2744   27679992.2594
      3170.9844
   -705814.99549   -531279.50946  28055044.5794   28055040.8844
     -3858.6254
 -17404544.27349 -13542135.16048  24833120.1494   24833117.0174
      -770.3754
 -15782572.51649 -12279861.87048  25437324.6024   25437320.6384
       880.5164
  -1036794.06449   -790258.42646  28399834.3844   28399830.3994
      3348.0474
 07  4 23  0 24 30.0130000  0 12G 1G12G 2G 4G 6G 5G20G23G14G30G31G 7
 -13729870.84949 -10680383.28747  25783341.1104   25783338.3214
     -1540.6254
 -10261140.33249  -7977034.24047  26262602.7674   26262599.1224
     -2733.5004
  -8838242.51949  -6868762.25647  26829503.6654   26829498.8994
      2469.3284
 -11067796.02949  -8607163.73847  26085196.2594   26085193.4074
      -367.5004
  -5258734.51649  -4079789.33846  27574726.8454   27574723.9424
      3128.8444
 -12625807.70749  -9818731.98347  25673009.0404   25673005.9774
     -2449.8594
  -8048285.22949  -6254014.49747  26714096.4934   26714092.2274
     -2214.2664
  -4642041.48049  -3598691.56847  27670954.1654   27670948.5284
      3165.4534
   -647908.28149   -486157.32447  28066063.4934   28066059.5054
     -3862.2664
 -17392906.72849 -13533066.95548  24835335.0014   24835331.5134
      -781.3284
 -15795708.54549 -12290097.74948  25434825.2744   25434820.8064
       871.0784
  -1086995.08849   -829376.08246  28390281.9934   28390277.3094
      3345.3444
 07  4 23  0 24 45.0130000  0 12G 1G12G 2G 4G 6G 5G20G23G14G30G31G 7
 -13706688.76349 -10662319.32647  25787752.3994   25787750.0364
     -1550.2034
 -10220084.55349  -7945042.70947  26270415.6024   26270411.4154
     -2740.5164
  -8875223.07549  -6897578.26347  26822466.7594   26822461.0174
      2461.5634
 -11062203.00649  -8602805.55147  26086260.9704   26086258.0094
      -378.1724
  -5305635.21849  -4116335.29547  27565800.5714   27565798.7274
      3124.6094
 -12588996.15849  -9790047.64947  25680014.2904   25680010.2164
     -2458.2814
  -8015003.44749  -6228080.67347  26720429.7824   26720426.3294
     -2223.0944
  -4689483.21049  -3635659.18447  27661925.9074   27661920.2674
      3160.0944
   -589947.99449   -440993.46247  28077092.6024   28077089.5564
     -3865.6874
 -17381105.79349 -13523871.40048  24837580.3524   24837577.2244
      -792.0784
 -15808703.54249 -12300223.71948  25432352.2514   25432348.0714
       861.7664
  -1137157.09249   -868463.29346  28380735.2674   28380732.7244
      3342.9694
 07  4 23  0 25  0.0130000  0 12G 1G12G 2G 4G 6G 5G20G23G14G30G31G 7
 -13683362.35049 -10644142.89047  25792191.0714   25792188.7434
     -1559.8284
 -10178923.44849  -7912969.12247  26278248.0564   26278244.2594
     -2747.5164
  -8912086.47649  -6926302.96647  26815451.8374   26815446.3064
      2453.7814
 -11056448.12649  -8598321.23147  26087356.0094   26087352.8294
      -388.9844
  -5352470.13349  -4152830.01847  27556889.3064   27556886.7244
      3120.1564
 -12552057.79649  -9761264.53847  25687043.3134   25687040.1694
     -2466.7034
  -7981587.48049  -6202042.27147  26726788.8214   26726785.5564
     -2232.1874
  -4736843.33949  -3672563.23647  27652914.2204   27652907.7124
      3154.7194
   -531934.73749   -395788.31547  28088132.4464   28088129.1104
     -3869.3444
 -17369141.62949 -13514548.66948  24839856.8294   24839853.9774
      -802.9694
 -15821557.60349 -12310239.87148  25429906.4544   25429901.9464
       852.3134
  -1187279.83249   -907519.93146  28371197.9704   28371193.8454
      3340.1724
 07  4 23  0 25 15.0130000  0 12G 1G12G 2G 4G 6G 5G20G23G14G30G31G 7
 -13659891.18149 -10625853.66747  25796657.6734   25796654.6264
     -1569.5164
 -10137656.79749  -7880813.31147  26286100.7204   26286097.0754
     -2754.5944
  -8948831.67949  -6954935.57847  26808459.3374   26808455.0364
      2445.7814
 -11050531.10149  -8593710.60147  26088481.6344   26088478.7124
      -399.9224
  -5399238.42449  -4189272.84747  27547989.4854   27547986.5714
      3115.7344
 -12514992.20349  -9732382.26147  25694096.3684   25694093.6574
     -2475.2814
  -7948037.00949  -6175899.05747  26733173.2124   26733169.7314
     -2241.1724
  -4784120.58249  -3709402.62947  27643917.3064   27643911.2824
      3149.0634
   -473868.19749   -350541.68846  28099182.2594   28099178.4774
     -3872.8124
 -17357013.55349 -13505098.21748  24842164.7984   24842161.2124
      -813.9534
 -15834270.11849 -12320145.72848  25427487.0564   25427482.4154
       842.7664
  -1237362.53449   -946545.46246  28361667.1574   28361663.8334
      3337.5164
 07  4 23  0 25 30.0130000  0 12G 1G12G 2G 4G 6G 5G20G23G14G30G31G 7
 -13636274.88149 -10607451.36547  25801151.9074   25801148.7084
     -1579.2504
 -10096284.02649  -7848574.75547  26293973.7354   26293970.0244
     -2761.8124
  -8985457.63049  -6983475.26047  26801490.0014   26801484.4624
      2437.7664
 -11044451.28049  -8588973.06747  26089639.0174   26089636.1814
      -410.8754
  -5445939.32349  -4225663.20647  27539101.9854   27539099.0794
      3111.1254
 -12477799.03849  -9703400.54047  25701174.0404   25701170.6224
     -2483.8914
  -7914351.78349  -6149650.85347  26739583.4854   26739579.8214
     -2250.1724
  -4831314.45649  -3746177.04647  27634936.6424   27634930.3604
      3143.4384
   -415748.03749   -305253.31446  28110242.2354   28110238.8764
     -3876.3754
 -17344721.33549 -13495519.84748  24844503.9234   24844501.1064
      -825.0004
 -15846840.22549 -12329940.61548  25425094.9934   25425090.8524
       833.2504
  -1287404.39549   -985539.12246  28352144.3134   28352140.6734
      3334.7504
 07  4 23  0 25 45.0130000  0 12G 1G12G 2G 4G 6G 5G20G23G14G30G31G 7
 -13612512.95349 -10588935.58647  25805673.5484   25805671.2244
     -1589.0474
 -10054805.19749  -7816253.69647  26301867.3374   26301863.4114
     -2768.8914
  -9021963.72449  -7011921.52847  26794542.9704   26794537.2594
      2429.6094
 -11038208.06249  -8584108.22447  26090826.8684   26090823.5834
      -421.6874
  -5492571.76349  -4262000.19946  27530228.3374   27530225.2314
      3106.4064
 -12440478.11649  -9674319.27647  25708275.8134   25708272.8414
     -2492.3444
  -7880531.32249  -6123297.27447  26746019.3064   26746015.5524
     -2259.1724
  -4878423.79149  -3782885.61946  27625971.3994   27625965.4744
      3137.8284
   -357573.94049   -259922.87546  28121312.6184   28121308.5564
     -3880.0624
 -17332264.36949 -13485813.11648  24846874.2124   24846871.0014
      -835.9534
 -15859267.23349 -12339624.02148  25422730.1654   25422726.2164
       823.6254
  -1337404.28849  -1024500.07046  28342629.5794   28342625.7984
      3331.8754
 07  4 23  0 26  0.0130000  0 12G 1G12G 2G 4G 6G 5G20G23G14G30G31G 7
 -13588607.65049 -10570308.07947  25810222.7824   25810219.4544
     -1598.3444
 -10013222.53549  -7783851.81547  26309780.3844   26309776.4114
     -2775.5314
  -9058351.58249  -7040275.69647  26787618.0324   26787613.1694
      2422.0944
 -11031803.65249  -8579117.78547  26092045.4154   26092042.8844
      -432.1414
  -5539137.53749  -4298285.17246  27521367.2044   27521364.4504
      3102.3134
 -12403031.66849  -9645140.20747  25715402.4624   25715399.0244
     -2500.4374
  -7846578.05649  -6096840.18647  26752480.4854   26752476.7744
     -2267.8124
  -4925450.28949  -3819529.62647  27617022.9854   27617017.6224
      3132.6254
   -299348.40549   -214552.32746  28132392.7354   28132388.5014
     -3883.2974
 -17319644.87449 -13475979.73348  24849275.7354   24849272.4934
      -846.5164
 -15871553.01049 -12349197.33748  25420392.0404   25420388.2984
       814.5004
  -1387364.15849  -1063429.89346  28333123.0404   28333119.2784
      3329.4694
 07  4 23  0 26 15.0130000  0 12G 1G12G 2G 4G 6G 5G20G23G14G30G31G 7
 -13564558.58949 -10551568.56947  25814799.1964   25814796.1104
     -1608.0624
  -9971535.49749  -7751368.54747  26317713.2824   26317709.0014
     -2782.6724
  -9094620.36249  -7068537.15247  26780716.3454   26780711.2634
      2413.8594
 -11025237.34449  -8574001.19247  26093295.0564   26093293.0244
      -443.2194
  -5585635.81349  -4334517.58847  27512518.6964   27512516.4504
      3097.3914
 -12365459.34749  -9615862.99947  25722552.3604   25722548.2474
     -2509.0314
  -7812491.63949  -6070279.38447  26758966.9154   26758963.1884
     -2276.9224
  -4972392.86049  -3856108.19947  27608090.3064   27608085.0014
      3126.7344
   -241071.18149   -169141.51946  28143481.8844   28143477.7674
     -3887.0164
 -17306862.37449 -13466019.31748  24851708.3134   24851704.9584
      -857.6874
 -15883696.88849 -12358660.08948  25418081.3684   25418077.2824
       804.7504
  -1437283.12049  -1102327.77946  28323623.5794   28323620.1144
      3326.5474
 07  4 23  0 26 30.0130000  0 12G 1G12G 2G 4G 6G 5G20G23G14G30G31G 7
 -13540366.27449 -10532717.41347  25819402.7204   25819399.7634
     -1617.5164
  -9929744.53349  -7718804.25947  26325665.8454   26325661.6774
     -2789.4224
  -9130769.52749  -7096705.14647  26773837.2124   26773832.4034
      2406.0004
 -11018509.75949  -8568758.92947  26094575.2434   26094572.9934
      -453.8594
  -5632066.55149  -4370697.37647  27503683.9854   27503680.6344
      3093.2664
 -12327761.86749  -9586488.27947  25729725.3604   25729722.5794
     -2517.2664
  -7778272.71849  -6043615.25947  26765478.2204   26765474.5404
     -2285.6094
  -5019251.72749  -3892621.55247  27599172.4854   27599167.3954
      3121.0784
   -182743.01149   -123691.05646  28154581.2984   28154577.3884
     -3890.1564
 -17293917.35349 -13455932.31648  24854171.5014   24854168.0564
      -868.3914
 -15895699.12749 -12368012.47448  25415797.6184   25415793.4194
       795.4844
  -1487161.09649  -1141193.70846  28314131.8064   28314128.3174
      3323.8914
 07  4 23  0 26 45.0130000  0 12G 1G12G 2G 4G 6G 5G20G23G14G30G31G 7
 -13516029.57649 -10513753.74747  25824033.8604   25824030.6534
     -1627.2504
  -9887848.56649  -7686157.98947  26333638.4384   26333634.4274
     -2796.4844
  -9166798.20549  -7124779.39747  26766981.6734   26766975.9544
      2397.8914
 -11011619.50549  -8563389.89247  26095886.6964   26095884.1774
      -464.7034
  -5678428.27849  -4406823.40747  27494861.1814   27494858.6614
      3088.5004
 -12289938.24449  -9557015.30247  25736922.7674   25736919.7244
     -2525.6724
  -7743920.39649  -6016847.23247  26772015.2674   26772011.8494
     -2294.6094
  -5066025.31249  -3929068.53247  27590272.4154   27590267.3724
      3115.4224
   -124362.95249    -78200.11346  28165690.5874   28165686.2394
     -3893.7664
 -17280808.40549 -13445717.51048  24856665.9774   24856662.8174
      -879.3754
 -15907558.32349 -12377253.40448  25413540.4464   25413536.4544
       785.8444
  -1536996.72449  -1180026.67246  28304648.5484   28304644.8454
      3320.9064
 07  4 23  0 27  0.0130000  0 12G 1G12G 2G 4G 6G 5G20G23G14G30G31G 7
 -13491549.24849 -10494678.17647  25828692.1104   25828688.9314
     -1636.9224
  -9845848.78949  -7653430.86547  26341630.7984   26341626.6814
     -2803.4694
  -9202706.36749  -7152759.74347  26760147.8524   26760142.6024
      2389.8754
 -11004567.22349  -8557894.63047  26097228.7674   26097226.1454
      -475.5784
  -5724721.10949  -4442895.65347  27486052.1104   27486049.0834
      3083.8444
 -12251989.32649  -9527444.72747  25744144.2434   25744141.3414
     -2534.2344
  -7709435.44049  -5989975.85147  26778577.3844   26778574.3564
     -2303.5164
  -5112713.55049  -3965448.91447  27581387.7824   27581383.3764
      3109.5784
    -65931.70949    -32669.27646  28176809.9544   28176805.6694
     -3896.9694
 -17267536.32149 -13435375.61448  24859191.8134   24859187.9544
      -890.3124
 -15919274.92749 -12386383.21548  25411311.0794   25411306.6844
       776.2974
  -1586790.12349  -1218826.71946  28295173.1814   28295170.1844
      3318.1564
 07  4 23  0 27 15.0130000  0 12G 1G12G 2G 4G 6G 5G20G23G14G30G31G 7
 -13466924.98649 -10475490.45447  25833377.8994   25833375.2314
     -1646.4374
  -9803744.95949  -7620622.74547  26349642.9154   26349639.1844
     -2810.4374
  -9238493.21649  -7180645.54347  26753337.7354   26753333.1344
      2381.7504
 -10997352.45249  -8552272.77647  26098601.3684   26098598.9624
      -486.4534
  -5770944.51249  -4478913.96046  27477255.4544   27477252.4544
      3079.1564
 -12213914.91849  -9497776.38147  25751389.7674   25751386.5244
     -2542.4534
  -7674817.61049  -5963000.91147  26785164.9234   26785161.8374
     -2312.3444
  -5159315.91249  -4001762.43147  27572519.6884   27572515.0364
      3103.9534
     -7449.26549     12901.47346  28187939.0404   28187934.8414
     -3900.5004
 -17254100.62249 -13424906.23648  24861748.5714   24861745.0524
      -901.1094
 -15930848.29849 -12395401.42048  25409108.7514   25409104.6494
       766.7664
  -1636540.60549  -1257593.25446  28285705.1184   28285702.7784
      3315.2194
 07  4 23  0 27 30.0130000  0 12G 1G12G 2G 4G 6G 5G20G23G14G30G31G 7
 -13442157.88949 -10456191.42447  25838090.9384   25838088.1264
     -1655.9534
  -9761538.27749  -7587734.50547  26357674.4624   26357670.7204
     -2817.2504
  -9274159.35649  -7208437.32447  26746550.3844   26746546.0204
      2373.7974
 -10989976.04549  -8546524.89947  26100005.1734   26100002.8764
      -497.0474
  -5817098.67549  -4514878.14846  27468473.1344   27468470.5954
      3074.6414
 -12175716.26249  -9468011.29947  25758658.8374   25758655.6184
     -2550.7344
  -7640068.09149  -5935923.36847  26791777.6734   26791774.6264
     -2321.0624
  -5205832.79549  -4038009.35347  27563667.3924   27563662.3844
      3098.2814
     51083.07549     58511.05946  28199077.6574   28199072.8024
     -3903.8284
 -17240502.47549 -13414310.25848  24864336.1814   24864332.1814
      -911.9534
 -15942279.24349 -12404308.64048  25406933.6104   25406929.6694
       757.2504
  -1686248.84449  -1296326.93646  28276246.6184   28276243.6884
      3312.4384
 07  4 23  0 27 45.0130000  0 12G 1G12G 2G 4G 6G 5G20G23G14G30G31G 7
 -13417249.12349 -10436782.00047  25842830.8374   25842827.4624
     -1665.3124
  -9719229.87449  -7554766.92647  26365725.3064   26365721.2474
     -2823.8444
  -9309705.61149  -7236135.76947  26739786.5014   26739782.1424
      2365.6884
 -10982439.19149  -8540651.96847  26101439.1424   26101435.8994
      -507.7664
  -5863184.61449  -4550789.20447  27459703.5174   27459699.4664
      3070.2344
 -12137394.68549  -9438150.48847  25765951.3214   25765948.3134
     -2558.8444
  -7605188.26049  -5908744.32847  26798414.5404   26798411.5714
     -2329.5474
  -5252265.01549  -4074190.37047  27554831.9234   27554826.9234
      3092.5164
    109664.08949    104158.61646  28210224.8844   28210220.7634
     -3907.1094
 -17226743.12949 -13403588.67848  24866954.2204   24866950.9584
      -922.6414
 -15953568.75849 -12413105.66148  25404785.1424   25404780.8994
       747.9534
  -1735915.58949  -1335028.35546  28266795.2984   28266792.4894
      3309.6724
 07  4 23  0 28  0.0130000  0 12G 1G12G 2G 4G 6G 5G20G23G14G30G31G 7
 -13392198.45149 -10417261.98647  25847597.9464   25847595.0134
     -1674.7974
  -9676819.59549  -7521719.94647  26373796.3214   26373792.1964
     -2830.7814
  -9345130.87449  -7263739.83747  26733045.3454   26733040.8524
      2357.5784
 -10974741.70649  -8534653.96547  26102903.7824   26102901.5874
      -518.5784
  -5909201.72949  -4586646.71847  27450946.2354   27450943.4974
      3065.4384
 -12098949.68749  -9408193.39047  25773267.1884   25773264.0834
     -2567.1254
  -7570177.86649  -5881463.50547  26805077.5014   26805074.4664
     -2338.4694
  -5298611.65749  -4110304.63347  27546012.1494   27546007.1614
      3086.9384
    168293.69849    149844.05746  28221382.5564   28221377.4034
     -3910.2034
 -17212822.14549 -13392741.12948  24869603.2674   24869599.6064
      -933.3754
 -15964716.37949 -12421792.11548  25402663.8374   25402659.9504
       738.4224
  -1785540.05749  -1373696.75446  28257352.4464   28257349.7864
      3306.8444
 07  4 23  0 28 15.0130000  0 12G 1G12G 2G 4G 6G 5G20G23G14G30G31G 7
 -13367004.04449 -10397629.96447  25852392.2674   25852389.1814
     -1684.4224
  -9634306.02349  -7488592.52547  26381885.9154   26381882.0244
     -2837.6724
  -9380433.04649  -7291248.02847  26726328.2514   26726322.8524
      2349.3284
 -10966881.46849  -8528529.11747  26104400.0324   26104397.1344
      -529.4534
  -5955147.52649  -4622448.66547  27442203.6264   27442200.0404
      3060.7344
 -12060379.63949  -9378138.81247  25780606.7204   25780603.4154
     -2575.5164
  -7535035.11749  -5854079.54447  26811765.0244   26811761.5204
     -2347.2974
  -5344870.34849  -4146350.38047  27537209.6104   27537204.3374
      3080.9224
    226973.67149    195568.64846  28232548.1574   28232544.2084
     -3913.6724
 -17198737.62249 -13381766.27048  24872283.6494   24872280.2004
      -944.4694
 -15975719.89549 -12430366.30748  25400569.8764   25400565.8494
       728.7814
  -1835119.97049  -1412330.38946  28247916.9774   28247914.3294
      3303.9064
 07  4 23  0 28 30.0130000  0 12G 1G12G 2G 4G 6G 5G20G23G14G30G31G 7
 -13341667.02149 -10377886.83547  25857213.6264   25857210.9234
     -1694.0164
  -9591689.99049  -7455385.28847  26389995.5484   26389991.8454
     -2844.5164
  -9415612.60849  -7318660.68647  26719633.0484   26719628.1694
      2341.2034
 -10958859.27649  -8522278.07147  26105926.6964   26105923.7744
      -540.2814
  -6001022.79949  -4658195.76047  27433473.3374   27433470.9974
      3055.9064
 -12021685.80549  -9347987.79447  25787970.1104   25787966.8254
     -2583.7504
  -7499761.33449  -5826593.46347  26818476.8604   26818474.3954
     -2355.9224
  -5391041.43849  -4182327.78047  27528424.2514   27528418.3454
      3075.1564
    285702.83049    241331.65646  28243723.9624   28243719.6814
     -3917.0314
 -17184490.35849 -13370664.53048  24874994.7744   24874991.3374
      -955.2974
 -15986579.87249 -12438828.64348  25398503.3994   25398499.6224
       719.1564
  -1884655.90749  -1450929.88746  28238491.3294   28238487.9154
      3300.7974
 07  4 23  0 28 45.0130000  0 12G 1G12G 2G 4G 6G 5G20G23G14G30G31G 7
 -13316188.07749 -10358033.12447  25862062.2674   25862059.2204
     -1703.3754
  -9548972.17349  -7422098.64047  26398124.1184   26398120.1964
     -2851.3124
  -9450670.06849  -7345978.29347  26712962.2354   26712957.3134
      2332.9694
 -10950675.97049  -8515901.48047  26107483.4624   26107481.4384
      -551.0004
  -6046827.35549  -4693887.53347  27424757.6814   27424755.0594
      3051.1414
 -11982869.16149  -9317741.11747  25795356.5794   25795353.9034
     -2591.9844
  -7464357.39549  -5799006.00647  26825214.1024   26825211.3724
     -2364.7194
  -5437125.43149  -4218237.30447  27519654.3454   27519648.7824
      3069.3444
    344480.18649    287132.12846  28254909.4154   28254904.8494
     -3920.1414
 -17170081.15649 -13359436.57848  24877736.9074   24877733.4424
      -966.0624
 -15997296.91249 -12447179.56948  25396463.9624   25396459.9464
       709.6254
  -1934148.18049  -1489495.36346  28229072.7984   28229070.2554
      3298.1414
 07  4 23  0 29  0.0130000  0 12G 1G12G 2G 4G 6G 5G20G23G14G30G31G 7
 -13290565.14049 -10338067.19747  25866938.0484   25866935.0594
     -1713.0784
  -9506151.12749  -7388731.70047  26406273.1884   26406268.7704
     -2858.2664
  -9485602.46349  -7373198.32447  26706314.5244   26706310.5754
      2324.6414
 -10942329.20949  -8509397.49147  26109071.8764   26109070.1064
      -561.8914
  -6092558.91949  -4729522.51547  27416055.1424   27416051.8724
      3046.2974
 -11943927.50449  -9287397.00847  25802766.9074   25802764.1534
     -2600.2344
  -7428821.29949  -5771315.53947  26831976.7274   26831973.3994
     -2373.5004
  -5483119.69949  -4254076.97247  27510902.4154   27510896.3764
      3063.2344
    403307.75349    332971.77846  28266103.7824   28266099.0014
     -3923.4224
 -17155507.84849 -13348080.70148  24880509.5174   24880506.7394
      -977.0944
 -16007868.60449 -12455417.26048  25394452.1424   25394448.4114
       699.9224
  -1983594.00249  -1528024.59046  28219663.8604   28219660.9114
      3294.8914
 07  4 23  0 29 15.0130000  0 12G 1G12G 2G 4G 6G 5G20G23G14G30G31G 7
 -13264798.95949 -10317989.65947  25871841.3064   25871838.2084
     -1722.5314
  -9463226.94749  -7355284.07247  26414441.2744   26414436.6774
     -2865.0474
  -9520410.16549  -7400321.16647  26699691.2674   26699686.1654
      2316.3754
 -10933819.65949  -8502766.65447  26110691.0094   26110689.1144
      -572.6724
  -6138217.68249  -4765100.72047  27407366.3374   27407362.2944
      3041.4064
 -11904861.76049  -9256956.17647  25810200.8924   25810198.4154
     -2608.6094
  -7393153.92249  -5743522.81447  26838763.7984   26838760.5794
     -2382.2664
  -5529024.32249  -4289846.77447  27502166.4774   27502161.2824
      3057.2344
    462184.65649    378849.88946  28277306.4624   28277303.1424
     -3926.7194
 -17140771.04949 -13336597.42548  24883314.0714   24883310.6344
      -987.9374
 -16018295.39149 -12463542.04048  25392468.2274   25392464.2354
       690.2344
  -2032994.12849  -1566518.22946  28210262.6654   28210259.3254
      3291.8594
 07  4 23  0 29 30.0130000  0 12G 1G12G 2G 4G 6G 5G20G23G14G30G31G 7
 -13238890.15549 -10297800.98647  25876771.8524   25876768.2784
     -1732.0314
  -9420201.39849  -7321757.74447  26422628.8374   26422624.4744
     -2871.7504
  -9555093.37549  -7427347.04947  26693091.2594   26693086.0914
      2307.9224
 -10925147.69849  -8496009.22547  26112341.4624   26112339.1844
      -583.5784
  -6183803.93449  -4800622.45847  27398691.9774   27398687.5094
      3036.6254
 -11865672.69049  -9226419.27547  25817658.4774   25817655.4934
     -2616.7504
  -7357355.90749  -5715628.25847  26845576.3684   26845573.4154
     -2390.9374
  -5574839.50249  -4325546.91647  27493448.5404   27493442.9384
      3051.2814
    521110.01049    424765.71447  28288520.6814   28288516.3524
     -3929.9844
 -17125871.62549 -13324987.49348  24886149.5634   24886145.7864
      -998.7814
 -16028577.68449 -12471554.22148  25390511.2984   25390506.9744
       680.6094
  -2082348.33149  -1604976.04846  28200871.3454   28200867.3804
      3288.6254
 07  4 23  0 29 45.0130000  0 12G 1G12G 2G 4G 6G 5G20G23G14G30G31G 7
 -13212840.38049 -10277502.45047  25881728.2744   25881725.4774
     -1741.4064
  -9377075.44649  -7288153.08647  26430835.2744   26430831.1064
     -2878.4224
  -9589653.23749  -7454276.80247  26686514.3214   26686509.1424
      2299.8914
 -10916315.29149  -8489126.84547  26114022.1964   26114019.4814
      -594.2194
  -6229318.79549  -4836088.57847  27390030.3294   27390026.7514
      3031.9694
 -11826362.08749  -9195787.69447  25825138.6814   25825135.9974
     -2624.7974
  -7321429.05849  -5687633.33047  26852412.7434   26852409.5204
     -2399.3914
  -5620566.36549  -4361178.18747  27484746.7434   27484741.5284
      3045.4534
    580081.94549    470717.85547  28299742.3134   28299738.5444
     -3932.9374
 -17110810.94649 -13313251.88748  24889015.4384   24889012.4974
     -1009.4064
 -16038716.76549 -12479454.76548  25388582.0244   25388578.2354
       671.1884
  -2131657.95949  -1643399.13846  28191488.0324   28191485.0284
      3285.7664
 07  4 23  0 30  0.0130000  0 12G 1G12G 2G 4G 6G 5G20G23G14G30G31G 7
 -13186650.08749 -10257094.42747  25886712.2514   25886709.3494
     -1750.6724
  -9333849.60749  -7254470.54047  26439060.7594   26439057.0014
     -2884.9534
  -9624089.39549  -7481110.09047  26679961.6734   26679956.5174
      2291.7504
 -10907322.37949  -8482119.41247  26115733.5564   26115731.2824
      -604.7974
  -6274762.32749  -4871499.18447  27381382.7274   27381379.4344
      3027.2194
 -11786930.83949  -9165062.33247  25832642.8764   25832639.9114
     -2632.7194
  -7285373.76549  -5659538.30447  26859274.0324   26859270.4544
     -2407.9374
  -5666204.72349  -4396740.48847  27476060.8374   27476056.9854
      3039.6884
    639100.00149    516705.92046  28310973.3374   28310969.4074
     -3936.0314
 -17095589.29049 -13301390.88647  24891912.1264   24891908.7744
     -1020.1564
 -16048712.69549 -12487243.78348  25386679.5634   25386675.5674
       661.6564
  -2180922.95549  -1681787.44646  28182114.0014   28182110.4584
      3282.8594
 07  4 23  0 30 15.0130000  0 12G 1G12G 2G 4G 6G 5G20G23G14G30G31G 7
 -13160320.27949 -10236577.71447  25891722.6104   25891719.8764
     -1760.0314
  -9290525.24749  -7220711.33347  26447305.6814   26447301.4894
     -2891.6254
  -9658402.80149  -7507847.80547  26673432.3134   26673427.0834
      2283.4844
 -10898169.91049  -8474987.64347  26117475.1814   26117472.8294
      -615.4694
  -6320134.58049  -4906854.10647  27372748.6494   27372745.7634
      3022.3914
 -11747378.65749  -9134242.30147  25840169.1884   25840165.5094
     -2640.9694
  -7249191.01049  -5631343.95647  26866159.2124   26866155.8174
     -2416.4064
  -5711755.08849  -4432234.26947  27467393.7044   27467388.6454
      3033.6884
    698163.10849    562729.09446  28322212.7354   28322208.6814
     -3939.0164
 -17080207.50249 -13289405.07648  24894839.2044   24894835.6964
     -1030.8124
 -16058566.29349 -12494921.91648  25384804.8924   25384801.2904
       652.1094
  -2230143.60149  -1720141.08646  28172746.6574   28172744.6964
      3280.0474
 07  4 23  0 30 30.0130000  0 12G 1G12G 2G 4G 6G 5G20G23G14G30G31G 7
 -13133849.15749 -10215950.86947  25896759.8684   25896757.3994
     -1769.3914
  -9247100.40949  -7186873.76447  26455568.6964   26455565.0524
     -2898.1874
  -9692591.13349  -7534488.10847  26666926.2984   26666921.1064
      2275.1564
 -10888855.90149  -8467729.96347  26119247.3454   26119245.1424
      -626.2344
  -6365433.58249  -4942151.97947  27364128.4704   27364125.5834
      3017.5314
 -11707704.71549  -9103327.30347  25847718.4774   25847715.4274
     -2648.8754
  -7212879.44749  -5603049.22147  26873068.7124   26873065.8374
     -2425.0624
  -5757215.07949  -4467657.58547  27458743.2674   27458737.6424
      3027.7814
    757272.78749    608788.56646  28333460.2124   28333457.0324
     -3942.1094
 -17064664.04849 -13277293.25248  24897796.6024   24897793.6964
     -1041.6094
 -16068275.59149 -12502487.62648  25382957.2044   25382953.2784
       642.5314
  -2279317.95849  -1758458.78946  28163389.1344   28163386.4344
      3276.8444
 07  4 23  0 30 45.0130000  0 12G 1G12G 2G 4G 6G 5G20G23G14G30G31G 7
 -13107236.57349 -10195213.76947  25901824.4154   25901821.9584
     -1778.8754
  -9203575.28649  -7152958.07047  26463851.1424   26463847.5014
     -2905.0474
  -9726653.52549  -7561030.24847  26660444.3684   26660439.4664
      2266.5784
 -10879380.30549  -8460346.37247  26121050.6424   26121048.3764
      -637.0314
  -6410658.85849  -4977392.41447  27355522.8524   27355519.2084
      3012.5474
 -11667909.48049  -9072318.01647  25855291.3134   25855288.2634
     -2657.0624
  -7176439.05249  -5574654.08747  26880003.5244   26880000.1454
     -2433.5944
  -5802584.29149  -4503010.21247  27450109.8294   27450104.2984
      3021.5314
    816428.96149    654884.22546  28344718.0484   28344714.2984
     -3945.2194
 -17048958.70649 -13265055.31748  24900785.4384   24900781.9274
     -1052.4374
 -16077840.08149 -12509940.48448  25381136.8524   25381133.2674
       632.8444
  -2328445.40849  -1796739.91846  28154039.8604   28154037.8214
      3273.6094
 07  4 23  0 31  0.0130000  0 12G 1G12G 2G 4G 6G 5G20G23G14G30G31G 7
 -13080483.16849 -10174366.94547  25906915.0484   25906913.1814
     -1788.1564
  -9159950.65049  -7118964.90147  26472152.7904   26472149.4774
     -2911.4694
  -9760590.02849  -7587474.22347  26653986.5714   26653981.5364
      2258.4534
 -10869743.45749  -8452837.12647  26122884.6494   26122882.2314
      -647.7664
  -6455810.47849  -5012575.51547  27346930.4544   27346927.0134
      3007.7664
 -11627993.24849  -9041214.41447  25862887.1184   25862883.7164
     -2665.0474
  -7139870.44849  -5546159.11147  26886961.9074   26886959.1814
     -2442.1414
  -5847862.47849  -4538291.90747  27441493.5484   27441488.0174
      3015.6414
    875630.98549    701015.66346  28355983.1494   28355979.7314
     -3948.1874
 -17033091.64749 -13252691.33548  24903804.7354   24903801.7124
     -1063.0624
 -16087259.96249 -12517280.62748  25379344.4704   25379340.5834
       623.2664
  -2377525.91949  -1834984.42946  28144700.0874   28144697.5134
      3270.7034
 07  4 23  0 31 15.0130000  0 12G 1G12G 2G 4G 6G 5G20G23G14G30G31G 7
 -13053589.15649 -10153410.57847  25912032.9464   25912030.9114
     -1797.6094
  -9116226.62349  -7084894.29647  26480473.2594   26480468.9894
     -2918.2664
  -9794400.38349  -7613819.97247  26647552.8134   26647547.7434
      2249.8284
 -10859945.40349  -8445202.25547  26124748.8604   26124746.9114
      -658.5784
  -6500887.98549  -5047700.92347  27338352.6884   27338349.6494
      3002.7194
 -11587956.22449  -9010016.69447  25870506.1024   25870502.2514
     -2673.1094
  -7103173.92749  -5517564.42447  26893945.5484   26893942.0874
     -2450.6414
  -5893049.41249  -4573502.52447  27432895.2594   27432888.7674
      3009.4534
    934878.60849    747182.62046  28367257.8684   28367254.6424
     -3951.3284
 -17017063.19849 -13240201.60748  24906855.0484   24906851.4154
     -1074.0314
 -16096535.17049 -12524508.05848  25377579.4154   25377575.2864
       613.5164
  -2426559.22449  -1873192.21946  28135370.0484   28135366.1734
      3267.1884
 07  4 23  0 31 30.0130000  0 12G 1G12G 2G 4G 6G 5G20G23G14G30G31G 7
 -13026554.90149 -10132344.92847  25917177.5874   25917175.2244
     -1807.0474
  -9072403.63149  -7050746.56447  26488812.4464   26488808.6104
     -2924.8124
  -9828084.58049  -7640067.39647  26641142.5634   26641137.7164
      2241.3594
 -10849986.55949  -8437442.11547  26126644.1814   26126642.4384
      -669.2974
  -6545891.26949  -5082768.40547  27329788.7744   27329785.3884
      2997.7814
 -11547799.08049  -8978725.41447  25878148.0324   25878144.5564
     -2681.2504
  -7066349.87949  -5488870.34747  26900952.6574   26900949.5564
     -2459.2034
  -5938144.98549  -4608642.00147  27424313.1814   27424307.3414
      3003.2814
    994171.16649    793384.59546  28378540.7674   28378537.6774
     -3954.3444
 -17000873.70749 -13227586.41348  24909935.4624   24909931.8064
     -1084.8284
 -16105665.90249 -12531622.92248  25375841.8844   25375837.9034
       603.8754
  -2475545.39449  -1911363.23746  28126048.3454   28126044.3414
      3264.0314
 07  4 23  0 31 45.0130000  0 12G 1G12G 2G 4G 6G 5G20G23G14G30G31G 7
 -12999379.78249 -10111169.51847  25922348.4934   25922346.4114
     -1816.3754
  -9028481.07449  -7016521.21347  26497170.6494   26497167.3994
     -2931.5164
  -9861641.38949  -7666215.59047  26634757.1024   26634752.3294
      2232.8754
 -10839865.93749  -8429555.92047  26128569.9624   26128567.5324
      -680.1564
  -6590819.23049  -5117777.18847  27321238.7744   27321235.6574
      2992.5944
 -11507521.13649  -8947340.01547  25885812.4314   25885808.8494
     -2689.2344
  -7029397.82249  -5460076.55047  26907984.4464   26907980.9314
     -2467.7504
  -5983147.95149  -4643709.33147  27415749.9704   27415744.2274
      2997.0784
   1053509.27949    839622.06946  28389832.5634   28389829.3564
     -3957.3284
 -16984522.76449 -13214845.46348  24913047.0564   24913043.8374
     -1095.4844
 -16114651.03849 -12538624.34048  25374132.0324   25374128.2244
       594.1254
  -2524483.08749  -1949496.53546  28116734.6104   28116732.4314
      3260.9534
 07  4 23  0 32  0.0130000  0 12G 1G12G 2G 4G 6G 5G20G23G14G30G31G 7
 -12972064.19949 -10089884.66547  25927546.6104   25927544.1774
     -1825.7814
  -8984459.55849  -6982218.77047  26505548.1574   26505544.0244
     -2938.0314
  -9895070.69949  -7692264.42447  26628395.0794   26628390.9854
      2224.3134
 -10829584.11649  -8421544.11947  26130526.6424   26130524.7704
      -690.8444
  -6635671.69149  -5152727.14647  27312703.6654   27312700.9854
      2987.5314
 -11467122.90049  -8915860.89247  25893500.1654   25893496.4464
     -2697.2034
  -6992318.17449  -5431183.32347  26915039.8524   26915036.9114
     -2476.2194
  -6028058.09849  -4678704.30847  27407203.4234   27407197.4544
      2990.9064
   1112892.30449    885894.51246  28401132.5634   28401129.3644
     -3960.1724
 -16968010.33849 -13201978.70848  24916189.3684   24916186.7004
     -1106.2814
 -16123490.77249 -12545512.44548  25372449.8684   25372445.6774
       584.5004
  -2573372.46749  -1987592.06346  28107431.6494   28107429.2904
      3257.5314
 07  4 23  0 32 15.0130000  0 12G 1G12G 2G 4G 6G 5G20G23G14G30G31G 7
 -12944608.40849 -10068490.55247  25932771.5564   25932769.0204
     -1834.9064
  -8940339.17549  -6947839.24247  26513943.3294   26513938.7354
     -2944.5784
  -9928372.36849  -7718213.71647  26622058.3524   26622053.2164
      2216.0474
 -10819141.05149  -8413406.68047  26132513.7904   26132511.6964
      -701.4064
  -6680448.69449  -5187618.29147  27304183.5484   27304179.7944
      2982.8134
 -11426604.70749  -8884288.27747  25901210.5634   25901206.6654
     -2705.1414
  -6955111.43949  -5402191.03447  26922121.0634   26922117.3334
     -2484.5004
  -6072875.13649  -4713626.65547  27398674.4384   27398669.2864
      2984.8594
   1172319.96249    932201.76046  28412441.5324   28412437.8094
     -3963.1564
 -16951336.42549 -13188986.01047  24919362.5484   24919359.4584
     -1116.8444
 -16132185.11749 -12552287.26348  25370795.4464   25370791.2824
       574.9064
  -2622213.13449  -2025649.79846  28098138.6424   28098134.4854
      3254.5314
 07  4 23  0 32 30.0130000  0 12G 1G12G 2G 4G 6G 5G20G23G14G30G31G 7
 -12917013.57749 -10046988.09947  25938022.8524   25938020.1494
     -1844.2504
  -8896121.61149  -6913384.03447  26522357.9624   26522354.0914
     -2951.0314
  -9961547.05849  -7744064.14047  26615745.9544   26615739.8884
      2207.4384
 -10808537.75749  -8405144.34247  26134531.7824   26134529.5204
      -712.1724
  -6725150.77649  -5222451.08547  27295676.3524   27295673.0594
      2977.7034
 -11385967.91549  -8852623.25247  25908942.5634   25908939.2434
     -2713.2034
  -6917778.94249  -5373100.82047  26929224.5874   26929221.0284
     -2493.0314
  -6117599.77549  -4748477.02747  27390164.0484   27390158.9154
      2978.5634
   1231790.76849    978542.68347  28423758.7594   28423755.1344
     -3966.1724
 -16934502.63149 -13175868.78948  24922565.5954   24922562.6224
     -1127.6414
 -16140734.93349 -12558949.45448  25369168.2204   25369164.5244
       565.1564
  -2671005.91249  -2063670.18146  28088853.2514   28088850.4544
      3251.3444
 07  4 23  0 32 45.0130000  0 12G 1G12G 2G 4G 6G 5G20G23G14G30G31G 7
 -12889279.39649 -10025377.04747  25943300.5564   25943298.0244
     -1853.5164
  -8851806.36849  -6878852.67647  26530790.2354   26530786.4774
     -2957.6414
  -9994594.04249  -7769815.09647  26609456.9544   26609451.6424
      2198.8134
 -10797774.03949  -8396757.07247  26136579.8294   26136577.4074
      -722.9064
  -6769777.17249  -5257224.90247  27287184.4074   27287181.8524
      2972.5634
 -11345212.19349  -8820865.53447  25916698.2354   25916696.1694
     -2720.9374
  -6880320.40849  -5343912.35947  26936353.2204   26936349.2434
     -2501.4064
  -6162231.10149  -4783254.62547  27381670.2594   27381666.3374
      2972.3444
   1291304.91349   1024917.30246  28435084.2044   28435080.5134
     -3969.0314
 -16917508.28049 -13162626.44448  24925799.4314   24925796.3884
     -1138.3124
 -16149139.61149 -12565498.57548  25367569.4464   25367565.2864
       555.5004
  -2719749.96349  -2101652.59546  28079577.0094   28079574.5404
      3247.9064
 07  4 23  0 33  0.0130000  0 12G 1G12G 2G 4G 6G 5G20G23G14G30G31G 7
 -12861404.08749 -10003656.04547  25948604.5874   25948602.1224
     -1862.9694
  -8807391.74449  -6844243.83947  26539242.9154   26539239.3374
     -2964.2344
 -10027510.85049  -7795464.60547  26603193.2744   26603187.7044
      2190.2194
 -10786847.68449  -8388243.00947  26138659.0094   26138656.7004
      -733.8444
  -6814325.48949  -5291937.90747  27278707.1814   27278704.4584
      2967.3754
 -11304335.96049  -8789013.97047  25924477.1734   25924474.0994
     -2728.9374
  -6842734.06649  -5314624.29147  26943505.1654   26943502.1424
     -2509.9844
  -6206766.83849  -4817957.72547  27373196.0244   27373191.4314
      2965.8914
   1350864.10649   1071326.99046  28446417.7514   28446414.7554
     -3971.9534
 -16900351.57049 -13149257.56648  24929064.5874   24929061.2244
     -1149.0944
 -16157396.94249 -12571932.80248  25365997.5484   25365993.3804
       545.6564
  -2768442.88649  -2139595.15746  28070311.8064   28070308.7314
      3244.5314
 07  4 23  0 33 15.0130000  0 12G 1G12G 2G 4G 6G 5G20G23G14G30G31G 7
 -12833390.50249  -9981827.28347  25953935.8524   25953933.1534
     -1872.2664
  -8762880.77849  -6809559.91247  26547713.0324   26547708.6454
     -2970.6414
 -10060299.71249  -7821014.38347  26596953.7354   26596947.9624
      2181.6414
 -10775761.77049  -8379604.64447  26140768.4314   26140766.2434
      -744.4374
  -6858798.19749  -5326591.94447  27270244.6734   27270241.4074
      2962.2814
 -11263342.15749  -8757070.80147  25932277.9624   25932274.7474
     -2736.8914
  -6805023.02449  -5285239.10647  26950681.4464   26950677.9854
     -2518.2504
  -6251209.27549  -4852588.15247  27364738.9544   27364734.0014
      2959.6564
   1410465.37849   1117769.54246  28457759.5324   28457756.3334
     -3974.9534
 -16883035.75749 -13135764.83648  24932359.5564   24932356.5054
     -1159.7504
 -16165509.81349 -12578254.49048  25364453.7514   25364449.9504
       535.9384
  -2817087.13649  -2177499.71946  28061054.7044   28061052.2204
      3241.3594
 07  4 23  0 33 30.0130000  0 12G 1G12G 2G 4G 6G 5G20G23G14G30G31G 7
 -12805238.30249  -9959890.49447  25959292.9774   25959290.3844
     -1881.4374
  -8718273.21749  -6774800.75847  26556201.6814   26556197.3254
     -2977.0164
 -10092959.97149  -7846463.95247  26590738.8844   26590732.7204
      2173.1254
 -10764515.66449  -8370841.41747  26142908.2514   26142906.8094
      -755.0164
  -6903194.44749  -5361186.45547  27261796.1424   27261793.3994
      2957.1884
 -11222230.50749  -8725035.81047  25940100.9774   25940098.9344
     -2744.6724
  -6767186.89349  -5255756.41047  26957881.8454   26957877.8064
     -2526.4694
  -6295557.46949  -4887145.08347  27356299.9464   27356295.3024
      2953.4224
   1470108.93149   1164245.02046  28469109.3524   28469105.8414
     -3977.4694
 -16865559.89749 -13122147.23648  24935685.4234   24935682.2244
     -1170.3444
 -16173477.46649 -12584463.05148  25362937.5174   25362933.1884
       526.3284
  -2865681.96149  -2215365.75946  28051808.0954   28051804.6574
      3237.9224
 07  4 23  0 33 45.0130000  0 12G 1G12G 2G 4G 6G 5G20G23G14G30G31G 7
 -12776950.18649  -9937847.80847  25964675.9314   25964673.5324
     -1890.3594
  -8673571.65849  -6739968.33247  26564707.8994   26564703.7474
     -2983.2664
 -10125493.71249  -7871814.92047  26584547.8294   26584541.8844
      2164.7194
 -10753111.86149  -8361955.32447  26145078.4544   26145076.5564
      -765.5164
  -6947516.32249  -5395722.92847  27253361.5244   27253358.3724
      2952.2814
 -11181003.71249  -8692911.09247  25947946.3374   25947943.6024
     -2752.2814
  -6729228.57349  -5226178.52347  26965104.7594   26965101.1734
     -2534.6564
  -6339813.75749  -4921630.49947  27347877.5244   27347872.3994
      2947.3914
   1529791.95449   1210751.21646  28480465.8294   28480463.3494
     -3979.9844
 -16847926.58249 -13108406.95148  24939040.6814   24939037.3684
     -1180.8124
 -16181302.26349 -12590560.27948  25361448.3134   25361444.3644
       516.8594
  -2914229.54049  -2253195.15046  28042569.4624   28042566.3884
      3234.8284
 07  4 23  0 34  0.0130000  0 12G 1G12G 2G 4G 6G 5G20G23G14G30G31G 7
 -12748524.97349  -9915698.30947  25970085.2354   25970082.3094
     -1899.6874
  -8628775.27249  -6705062.03447  26573232.2274   26573227.8374
     -2989.6254
 -10157899.37049  -7897066.08047  26578381.4234   26578375.8334
      2156.0004
 -10741549.29849  -8352945.54347  26147279.1104   26147276.6264
      -776.2034
  -6991762.19749  -5430200.18447  27244942.2044   27244938.5754
      2947.1414
 -11139660.76049  -8660695.88047  25955813.9154   25955811.1614
     -2760.0624
  -6691146.97649  -5196504.54647  26972351.4154   26972348.5324
     -2542.9064
  -6383976.46049  -4956043.01047  27339474.4154   27339468.3414
      2941.0784
   1589515.54749   1257289.05346  28491831.1574   28491828.8064
     -3982.8914
 -16830134.64049 -13094543.06348  24942426.3454   24942423.2354
     -1191.5164
 -16188982.80849 -12596545.12148  25359987.2674   25359983.1814
       507.1564
  -2962728.22149  -2290986.31846  28033340.3134   28033337.1774
      3231.5314
 07  4 23  0 34 15.0130000  0 12G 1G12G 2G 4G 6G 5G20G23G14G30G31G 7
 -12719961.48749  -9893441.06147  25975520.7514   25975517.2904
     -1908.9064
  -8583882.84449  -6670080.93647  26581775.0404   26581771.6224
     -2996.1724
 -10190175.23149  -7922216.12047  26572239.6344   26572233.7904
      2147.3134
 -10729826.47449  -8343810.89447  26149509.5484   26149507.3294
      -786.9374
  -7035930.46649  -5464617.00847  27236537.7824   27236534.0284
      2941.8914
 -11098200.34649  -8628389.06747  25963703.6884   25963700.1264
     -2767.9224
  -6652941.03649  -5166733.68747  26979622.0714   26979618.5834
     -2551.1724
  -6428043.61449  -4990381.05947  27331087.9154   27331082.0834
      2934.5164
   1649280.65949   1303859.27746  28503204.4154   28503201.1304
     -3985.6724
 -16812182.96649 -13080554.74348  24945842.4464   24945839.4234
     -1202.1724
 -16196517.43349 -12602416.27148  25358553.5094   25358549.3174
       497.3914
  -3011176.07049  -2328737.89346  28024121.0324   28024118.2394
      3228.1564
 07  4 23  0 34 30.0130000  0 12G 1G12G 2G 4G 6G 5G20G23G14G30G31G 7
 -12691260.26449  -9871076.49947  25980982.4154   25980979.4544
     -1917.8594
  -8538894.76149  -6635025.28147  26590335.7434   26590331.7474
     -3002.3284
 -10222321.30149  -7947265.04047  26566122.1024   26566116.8134
      2138.7504
 -10717943.86349  -8334551.71647  26151770.0174   26151768.7394
      -797.4064
  -7080020.87449  -5498973.12247  27228147.1344   27228143.8024
      2936.8134
 -11056623.21249  -8595991.29047  25971615.3294   25971612.3414
     -2775.6414
  -6614611.15249  -5136866.24747  26986915.8764   26986912.6614
     -2559.4064
  -6472015.07449  -5024644.48647  27322720.9624   27322714.7164
      2928.2344
   1709086.61349   1350461.31546  28514584.9544   28514581.4194
     -3988.3124
 -16794071.99749 -13066442.34148  24949288.9704   24949285.3724
     -1212.6414
 -16203906.33849 -12608173.82548  25357147.2514   25357143.0404
       487.7974
  -3059573.27149  -2366449.90746  28014911.6654   28014907.6614
      3224.7504
 07  4 23  0 34 45.0130000  0 12G 1G12G 2G 4G 6G 5G20G23G14G30G31G 7
 -12662422.68449  -9848605.67247  25986469.9854   25986466.9114
     -1927.1564
  -8493812.67849  -6599896.38447  26598914.7434   26598910.8414
     -3008.7974
 -10254338.39749  -7972213.43747  26560029.8374   26560023.7944
      2130.0634
 -10705902.76849  -8325169.06847  26154062.0094   26154060.3494
      -808.1564
  -7124034.70749  -5533269.64247  27219771.9154   27219768.0484
      2931.5634
 -11014930.89149  -8563503.77847  25979549.1734   25979546.2474
     -2783.4374
  -6576159.02449  -5106903.54347  26994233.2674   26994229.6344
     -2567.5944
  -6515891.95249  -5058834.25647  27314372.1424   27314365.2084
      2921.8594
   1768931.90549   1397093.99446  28525973.4854   28525969.8414
     -3991.1874
 -16775802.68149 -13052206.48247  24952765.3134   24952761.5054
     -1223.2814
 -16211150.91249 -12613818.94648  25355768.8134   25355764.8604
       477.9534
  -3107920.85649  -2404123.30746  28005710.4234   28005708.0714
      3221.2034
 07  4 23  0 35  0.0130000  0 12G 1G12G 2G 4G 6G 5G20G23G14G30G31G 7
 -12633446.27849  -9826026.64547  25991984.1024   25991980.7824
     -1936.5004
  -8448634.08449  -6564692.30247  26607512.0244   26607508.8524
     -3015.1724
 -10286223.49749  -7997058.94747  26553961.8214   26553956.5914
      2121.0944
 -10693700.63949  -8315660.96447  26156384.0634   26156381.8524
      -818.8754
  -7167968.67149  -5567503.84747  27211411.4624   27211407.7674
      2926.2034
 -10973120.92749  -8530924.55347  25987505.5174   25987502.1614
     -2791.3594
  -6537582.16349  -5076843.66247  27001574.1964   27001571.0134
     -2575.9694
  -6559671.16549  -5092947.94547  27306040.6494   27306035.3064
      2915.2194
   1828818.94149   1443759.20546  28537369.7824   28537366.0444
     -3993.7664
 -16757372.95249 -13037845.61947  24956272.5324   24956268.8334
     -1234.1094
 -16218248.22549 -12619349.34448  25354418.1734   25354414.1304
       468.1414
  -3156215.86149  -2441755.79046  27996520.7124   27996517.4154
      3217.7344
 07  4 23  0 35 15.0130000  0 12G 1G12G 2G 4G 6G 5G20G23G14G30G31G 7
 -12604332.13449  -9803340.28447  25997524.0634   25997521.4384
     -1945.5474
  -8403360.24349  -6529414.01747  26616127.4544   26616123.3374
     -3021.5004
 -10317977.37749  -8021802.31847  26547919.1184   26547913.5954
      2112.5474
 -10681338.38349  -8306028.07847  26158736.5954   26158734.4234
      -829.4694
  -7211823.58749  -5601676.51647  27203065.6264   27203062.5204
      2921.0164
 -10931194.48649  -8498254.58547  25995484.0014   25995480.4624
     -2799.0004
  -6498881.78049  -5046687.52847  27008938.1264   27008934.8414
     -2584.2194
  -6603353.04049  -5126985.75847  27297728.1814   27297722.3884
      2908.7974
   1888746.64049   1490456.08946  28548772.9934   28548769.2554
     -3996.5474
 -16738783.57149 -13023360.38548  24959810.0404   24959806.7394
     -1244.6724
 -16225199.05949 -12624765.58848  25353095.4314   25353090.9974
       458.5164
  -3204458.70349  -2479347.56146  27987341.2824   27987337.6734
      3214.3594
 07  4 23  0 35 30.0130000  0 12G 1G12G 2G 4G 6G 5G20G23G14G30G31G 7
 -12575081.42249  -9780547.51647  26003090.1424   26003086.8844
     -1954.6414
  -8357992.28849  -6494062.35547  26624760.1494   26624757.0054
     -3027.6414
 -10349600.68749  -8046443.95347  26541901.4314   26541896.4424
      2103.7664
 -10668816.98049  -8296271.10847  26161119.3524   26161116.5284
      -840.0944
  -7255599.91549  -5635787.92647  27194734.9854   27194732.1884
      2915.8444
 -10889153.03449  -8465495.01047  26003483.7744   26003480.1304
     -2806.6094
  -6460059.21549  -5016436.18747  27016326.2124   27016322.7354
     -2592.3444
  -6646938.49749  -5160948.46747  27289434.1884   27289428.7594
      2902.4064
   1948713.78649   1537183.79146  28560184.3524   28560181.4194
     -3999.1414
 -16720035.89949 -13008751.77648  24963377.3214   24963374.1574
     -1255.0944
 -16232004.25049 -12630068.29448  25351800.4704   25351796.3494
       448.7814
  -3252650.14649  -2516899.25846  27978170.0244   27978166.8684
      3211.0164
 07  4 23  0 35 45.0130000  0 12G 1G12G 2G 4G 6G 5G20G23G14G30G31G 7
 -12545694.04049  -9757648.21847  26008682.6494   26008679.5174
     -1963.7344
  -8312530.35849  -6458637.54247  26633411.5874   26633408.4274
     -3034.0474
 -10381092.48549  -8070983.01047  26535909.0634   26535903.8454
      2094.9384
 -10656136.29849  -8286390.03247  26163532.8604   26163529.9894
      -850.7504
  -7299297.15449  -5669837.69247  27186420.5014   27186416.5794
      2910.4224
 -10846996.32749  -8432645.62547  26011505.6814   26011502.6734
     -2814.3594
  -6421114.34949  -4986089.53047  27023736.7434   27023733.5874
     -2600.4694
  -6690426.76249  -5194835.45047  27281158.2824   27281153.3954
      2895.9064
   2008720.04249   1583941.86846  28571603.6734   28571600.2824
     -4001.7504
 -16701129.62749 -12994019.68047  24966975.0564   24966972.1184
     -1265.7664
 -16238663.47749 -12635257.29548  25350533.4314   25350528.9504
       439.0314
  -3300789.70949  -2554410.59146  27969009.6264   27969006.5134
      3207.5004
 07  4 23  0 36  0.0130000  0 12G 1G12G 2G 4G 6G 5G20G23G14G30G31G 7
 -12516170.44049  -9734642.81647  26014300.8374   26014297.4384
     -1972.7664
  -8266974.80749  -6423139.79047  26642080.5174   26642076.6734
     -3040.1254
 -10412452.81949  -8095419.55347  26529941.5714   26529936.0094
      2086.2504
 -10643296.53949  -8276384.97347  26165976.0174   26165972.8294
      -861.3124
  -7342915.27749  -5703825.78447  27178119.4154   27178117.0014
      2905.1254
 -10804724.96049  -8399706.86847  26019550.0954   26019546.5014
     -2821.8754
  -6382047.74049  -4955648.00947  27031171.2904   27031168.0014
     -2608.5164
  -6733817.72749  -5228646.59347  27272901.5174   27272896.5524
      2889.5004
   2068764.94849   1630730.08946  28583029.3294   28583026.0134
     -4004.2504
 -16682065.05149 -12979164.18548  24970603.1104   24970599.9344
     -1276.2504
 -16245176.71649 -12640332.54948  25349293.8524   25349289.4974
       429.3914
  -3348877.24249  -2591881.37146  27959858.4934   27959855.9934
      3204.0634
 07  4 23  0 36 15.0130000  0 12G 1G12G 2G 4G 6G 5G20G23G14G30G31G 7
 -12486510.18749  -9711530.91747  26019944.7904   26019942.1264
     -1981.8914
  -8221325.28549  -6387568.73047  26650767.6344   26650764.3994
     -3046.4224
 -10443680.81549  -8119752.98747  26523999.1884   26523993.1384
      2077.4694
 -10630297.41249  -8266255.75847  26168449.3924   26168446.1344
      -871.9224
  -7386453.23449  -5737751.46847  27169834.7984   27169831.8024
      2899.8754
 -10762338.44949  -8366678.36947  26027615.9624   26027612.9274
     -2829.6094
  -6342859.23449  -4925111.52547  27038628.7514   27038625.2864
     -2616.5944
  -6777110.31049  -5262381.04747  27264662.5174   27264658.2434
      2882.8444
   2128848.84649   1677548.69146  28594462.9464   28594459.6654
     -4006.9844
 -16662841.65949 -12964184.94048  24974261.1884   24974257.8764
     -1286.7814
 -16251543.39549 -12645293.58748  25348082.3844   25348078.0204
       419.5004
  -3396911.76749  -2629310.92946  27950718.7984   27950715.1264
      3200.5314
 07  4 23  0 36 30.0130000  0 12G 1G12G 2G 4G 6G 5G20G23G14G30G31G 7
 -12456714.48949  -9688313.50447  26025614.5484   26025611.6424
     -1990.8594
  -8175583.18349  -6351925.55447  26659471.7274   26659467.4894
     -3052.4844
 -10474777.29049  -8143984.09947  26518081.7274   26518075.8174
      2068.6254
 -10617139.80749  -8256003.09347  26170953.3294   26170950.7824
      -882.4844
  -7429911.64549  -5771615.14947  27161564.5324   27161561.9584
      2894.5784
 -10719838.29349  -8333561.39247  26035703.4854   26035700.6064
     -2837.1254
  -6303549.83949  -4894480.81447  27046108.6184   27046105.3844
     -2624.7664
  -6820305.21749  -5296039.43747  27256443.5794   27256438.2084
      2876.3594
   2188970.54449   1724396.75246  28605904.4074   28605900.2204
     -4009.3284
 -16643460.71349 -12949082.92448  24977949.4154   24977946.1694
     -1297.3124
 -16257764.34249 -12650141.04148  25346898.7594   25346894.1494
       409.8594
  -3444893.86749  -2666699.60046  27941587.9704   27941583.9154
      3197.0634
 07  4 23  0 36 45.0130000  0 11G 1G12G 2G 4G 6G 5G20G23G30G31G 7
 -12426782.31049  -9664989.74747  26031310.2514   26031307.6614
     -2000.0164
  -8129747.43749  -6316209.45647  26668194.3134   26668189.7204
     -3058.7194
 -10505740.41749  -8168111.15647  26512189.3374   26512184.0564
      2059.7664
 -10603822.92649  -8245626.32447  26173487.5634   26173484.7164
      -893.0004
  -7473289.07949  -5805415.72447  27153310.8524   27153306.8954
      2889.1564
 -10677223.49349  -8300355.08647  26043813.2204   26043809.7394
     -2844.7814
  -6264118.83649  -4863755.36747  27053612.5174   27053608.9774
     -2632.7034
  -6863400.89849  -5329620.48347  27248242.2514   27248237.4704
      2869.7664
 -16623921.15049 -12933857.33648  24981667.4544   24981664.4234
     -1307.8754
 -16263838.35749 -12654874.05948  25345742.6814   25345738.3684
       400.0634
  -3492822.22049  -2704046.36346  27932466.8374   27932463.9664
      3193.5634
 07  4 23  0 37  0.0130000  0 11G 1G12G 2G 4G 6G 5G20G23G30G31G 7
 -12396714.14249  -9641560.00947  26037032.2354   26037029.5134
     -2009.1254
  -8083818.48449  -6280420.68247  26676934.2124   26676930.7434
     -3064.9694
 -10536570.52049  -8192134.64747  26506322.4154   26506316.9894
      2050.8914
 -10590346.66849  -8235125.34047  26176051.9384   26176049.3294
      -903.7034
  -7516585.53849  -5839153.21047  27145071.3454   27145068.3334
      2883.7034
 -10634494.53349  -8267059.79947  26051944.2354   26051941.7244
     -2852.4224
  -6224566.74849  -4832935.53647  27061139.0954   27061135.8094
     -2640.7974
  -6906397.15049  -5363124.02547  27240060.3764   27240055.0444
      2863.1094
 -16604223.21249 -12918508.30148  24985415.9464   24985412.5204
     -1318.4534
 -16269765.57549 -12659492.68248  25344614.8134   25344610.5244
       390.2664
  -3540696.73549  -2741351.17646  27923356.8524   27923353.5914
      3189.7814
 07  4 23  0 37 15.0130000  0 11G 1G12G 2G 4G 6G 5G20G23G30G31G 7
 -12366510.11249  -9618024.41947  26042780.2204   26042778.2124
     -2018.1414
  -8037796.80349  -6244559.69247  26685692.2674   26685687.8994
     -3071.2664
 -10567266.99949  -8216053.98047  26500480.9384   26500475.8844
      2041.8754
 -10576711.31449  -8224500.39947  26178646.2984   26178643.2434
      -914.3914
  -7559800.64649  -5872827.34447  27136848.0634   27136844.3414
      2878.1724
 -10591651.63749  -8233675.68947  26060096.8764   26060094.2864
     -2860.0004
  -6184893.74649  -4802021.54147  27068688.0174   27068684.5484
     -2648.9064
  -6949293.61149  -5396549.85647  27231898.1024   27231891.8414
      2856.3754
 -16584367.16649 -12903036.05148  24989194.2744   24989191.1534
     -1329.0164
 -16275545.88649 -12663996.84248  25343514.8524   25343510.7124
       380.3594
  -3588517.06749  -2778613.74646  27914257.0014   27914254.3024
      3186.0474
 07  4 23  0 37 30.0130000  0 11G 1G12G 2G 4G 6G 5G20G23G30G31G 7
 -12336168.98449  -9594381.96747  26048553.3604   26048550.3724
     -2027.0474
  -7991681.01549  -6208625.33847  26694467.5564   26694464.0484
     -3077.2974
 -10597828.21049  -8239867.87647  26494665.5174   26494659.9274
      2033.2034
 -10562915.66649  -8213750.56347  26181271.7124   26181268.7004
      -924.8914
  -7602932.86749  -5906436.89747  27128638.7984   27128636.4814
      2873.0164
 -10548693.76249  -8200202.00747  26068271.4624   26068268.6064
     -2867.4534
  -6145098.87149  -4771012.53747  27076260.8844   27076257.6264
     -2656.7974
  -6992088.58149  -5429896.59147  27223754.3294   27223748.0674
      2849.8594
 -16564351.67249 -12887439.58548  24993003.0404   24993000.2704
     -1339.4064
 -16281177.81849 -12668385.37648  25342443.1884   25342438.7904
       370.7194
  -3636281.47549  -2815832.75646  27905167.3924   27905164.9384
      3182.6724
 07  4 23  0 37 45.0130000  0 11G 1G12G 2G 4G 6G 5G20G23G30G31G 7
 -12305689.81049  -9570631.95747  26054353.6734   26054351.3924
     -2036.4534
  -7945470.38349  -6172617.11447  26703261.0324   26703257.9034
     -3083.9064
 -10628252.59249  -8263575.10647  26488876.2744   26488871.2434
      2023.7504
 -10548958.52049  -8202874.87147  26183927.6424   26183925.0364
      -935.8444
  -7645980.41949  -5939980.42147  27120447.6424   27120445.4774
      2867.0474
 -10505619.96649  -8166638.00947  26076467.5404   26076464.5954
     -2875.5004
  -6105181.14449  -4739907.79847  27083856.6494   27083853.5594
     -2665.2814
  -7034780.49549  -5463163.03347  27215630.7204   27215624.9704
      2842.7194
 -16544175.57449 -12871717.96048  24996842.6104   24996839.0994
     -1350.4374
 -16286660.00349 -12672657.21348  25341399.8764   25341395.6964
       360.5004
  -3683988.56849  -2853007.07547  27896089.1104   27896086.5994
      3178.5474
 07  4 23  0 38  0.0130000  0 11G 1G12G 2G 4G 6G 5G20G23G30G31G 7
 -12275072.81149  -9546774.56547  26060179.9234   26060177.0954
     -2045.7664
  -7899165.16449  -6136535.14947  26712072.7044   26712068.4744
     -3090.1414
 -10658540.01849  -8287175.70747  26483112.2984   26483107.1024
      2014.5634
 -10534839.69549  -8191873.17647  26186614.4854   26186611.0054
      -946.5784
  -7688943.08549  -5973457.80047  27112272.7044   27112270.1534
      2861.3284
 -10462430.50849  -8132983.87547  26084686.5244   26084683.6184
     -2883.1724
  -6065140.92449  -4708707.64147  27091476.3604   27091472.9544
     -2673.4374
  -7077368.92649  -5496348.81647  27207526.2594   27207520.5594
      2835.7664
 -16523839.05649 -12855871.30548  25000712.2744   25000708.9974
     -1361.1414
 -16291992.37849 -12676812.31048  25340385.1814   25340380.6694
       350.4844
  -3731637.80649  -2890136.26846  27887022.0014   27887019.3374
      3174.7344
 07  4 23  0 38 15.0130000  0 11G 1G12G 2G 4G 6G 5G20G23G30G31G 7
 -12244317.21249  -9522809.16247  26066032.5174   26066029.8884
     -2055.0164
  -7852764.48349  -6100378.82047  26720902.1264   26720899.4274
     -3096.5784
 -10688689.00849  -8310668.38747  26477375.0794   26477369.6454
      2005.3594
 -10520558.67949  -8180745.12747  26189332.3764   26189328.8494
      -957.3914
  -7731819.55449  -6006868.02947  27104113.6024   27104110.6064
      2855.5944
 -10419124.78849  -8099239.17647  26092927.2354   26092923.8844
     -2890.8914
  -6024977.43349  -4677411.39547  27099118.9624   27099115.5564
     -2681.6094
  -7119852.59149  -5529452.95147  27199441.4624   27199436.7124
      2828.8134
 -16503341.60449 -12839899.25547  25004613.1494   25004609.9974
     -1371.8284
 -16297173.88049 -12680849.88048  25339399.1964   25339394.8024
       340.4224
  -3779228.12049  -2927219.60446  27877965.6734   27877962.8024
      3170.7814
 07  4 23  0 38 30.0130000  0 11G 1G12G 2G 4G 6G 5G20G23G30G31G 7
 -12213424.36149  -9498736.77647  26071911.5564   26071908.6734
     -2064.0944
  -7806269.78949  -6064149.16747  26729750.2204   26729746.5524
     -3102.8124
 -10718700.66949  -8334054.13147  26471664.5564   26471659.0564
      1996.2194
 -10506116.65049  -8169491.57747  26192080.6574   26192077.6384
      -968.1724
  -7774610.82949  -6040211.86747  27095970.8454   27095968.2004
      2849.9844
 -10375704.31949  -8065405.05947  26101190.1574   26101186.3764
     -2898.4844
  -5984692.17349  -4646020.27747  27106785.8924   27106781.6344
     -2689.7194
  -7162232.33549  -5562476.13347  27191376.8764   27191371.3924
      2821.7974
 -16482684.25949 -12823802.62948  25008544.0714   25008540.3494
     -1382.5004
 -16302205.57249 -12684770.67248  25338441.4934   25338437.9854
       330.4694
  -3826760.47349  -2964257.75846  27868920.2904   27868917.8924
      3166.8594
 07  4 23  0 38 45.0130000  0 11G 1G12G 2G 4G 6G 5G20G23G30G31G 7
 -12182395.58849  -9474558.53447  26077815.8294   26077813.1964
     -2073.1254
  -7759682.56049  -6027847.44847  26738615.6654   26738612.1064
     -3108.9064
 -10748575.49549  -8357333.20747  26465979.2594   26465973.4774
      1987.0634
 -10491514.77649  -8158113.49347  26194859.3924   26194855.3844
      -978.7194
  -7817317.55449  -6073489.81147  27087843.6344   27087840.8684
      2844.4694
 -10332170.26949  -8031482.44547  26109473.9934   26109470.7824
     -2906.0784
  -5944286.46649  -4614535.31547  27114474.2824   27114470.5914
     -2697.7034
  -7204508.90549  -5595418.91847  27183331.6964   27183326.7984
      2814.9534
 -16461868.23849 -12807582.35948  25012505.2674   25012501.8644
     -1393.0004
 -16307088.54749 -12688575.53648  25337512.5324   25337508.3374
       320.5314
  -3874235.49249  -3001251.25846  27859885.8994   27859883.8684
      3163.1724
 07  4 23  0 39  0.0130000  0 11G 1G12G 2G 4G 6G 5G20G23G30G31G 7
 -12151231.14049  -9450274.54447  26083746.2594   26083742.8644
     -2082.1094
  -7713003.38749  -5991474.16047  26747498.7274   26747494.9314
     -3114.9064
 -10778313.36049  -8380505.51047  26460320.5794   26460314.6424
      1977.9694
 -10476753.34349  -8146611.09147  26197668.0094   26197665.5524
      -989.3444
  -7859939.50349  -6106701.68347  27079732.2204   27079729.8524
      2838.6564
 -10288523.12549  -7997471.72647  26117780.0634   26117776.7674
     -2913.5164
  -5903760.87149  -4582956.90847  27122186.6184   27122182.7554
     -2705.5624
  -7246681.96349  -5628281.01847  27175306.2824   27175301.3924
      2808.1094
 -16440893.84649 -12791238.70247  25016496.5324   25016493.0954
     -1403.5004
 -16311822.85749 -12692264.61848  25336611.5174   25336607.3494
       310.7504
  -3921653.09349  -3038200.03146  27850863.1964   27850860.7394
      3159.3444
 07  4 23  0 39 15.0130000  0 11G 1G12G 2G 4G 6G 5G20G23G30G31G 7
 -12119932.17149  -9425885.74047  26089702.0794   26089698.9974
     -2091.1414
  -7666232.85349  -5955029.59347  26756399.0174   26756394.1344
     -3121.1094
 -10807915.00449  -8403571.72247  26454687.5954   26454680.8684
      1968.9224
 -10461833.19849  -8134984.99347  26200506.9704   26200504.3604
     -1000.0474
  -7902477.22349  -6139847.95647  27071638.2204   27071635.8134
      2833.0004
 -10244763.89049  -7963373.61447  26126107.1814   26126104.0324
     -2921.0164
  -5863116.37449  -4551285.87347  27129919.8684   27129916.8804
     -2713.6564
  -7288751.89149  -5661062.71347  27167300.3294   27167296.0054
      2801.1564
 -16419762.07849 -12774772.42047  25020517.8764   25020514.0994
     -1414.0784
 -16316409.09949 -12695838.30248  25335738.8924   25335734.6774
       300.7974
  -3969013.71449  -3075104.39846  27841850.1494   27841848.3094
      3155.4064
 07  4 23  0 39 30.0130000  0 11G 1G12G 2G 4G 6G 5G20G23G30G31G 7
 -12088498.99949  -9401392.37647  26095683.7594   26095681.0404
     -2100.0474
  -7619371.40549  -5918514.08347  26765316.2274   26765311.9774
     -3127.2194
 -10837380.09549  -8426531.52547  26449080.3374   26449074.5324
      1959.8444
 -10446754.64949  -8123235.46847  26203376.7824   26203373.6884
     -1010.6094
  -7944930.58249  -6172928.47647  27063560.0634   27063557.0094
      2827.5634
 -10200893.06849  -7929188.52247  26134455.4464   26134452.0404
     -2928.4064
  -5822353.43649  -4519522.57247  27137677.5244   27137674.0484
     -2721.5474
  -7330718.58049  -5693764.04047  27159314.8684   27159310.2204
      2794.3444
 -16398473.19749 -12758183.68348  25024568.9624   25024565.0714
     -1424.5164
 -16320847.43849 -12699296.76848  25334894.1264   25334890.0204
       290.9224
  -4016317.19549  -3111964.28047  27832849.2124   27832846.8524
      3151.5314
 07  4 23  0 39 45.0130000  0 11G 1G12G 2G 4G 6G 5G20G23G30G31G 7
 -12056931.53749  -9376794.34747  26101691.0564   26101688.2004
     -2108.8284
  -7572419.57849  -5881928.27047  26774249.6024   26774246.9464
     -3133.0784
 -10866708.16349  -8449384.59747  26443499.8684   26443493.9974
      1950.6564
 -10431517.47949  -8111362.38447  26206276.8374   26206273.8294
     -1021.0624
  -7987298.96649  -6205942.80147  27055497.0564   27055494.6964
      2821.7344
 -10156910.84049  -7894916.67547  26142825.3924   26142821.9194
     -2935.8124
  -5781472.24149  -4487667.09247  27145456.5874   27145453.0484
     -2729.2664
  -7372581.42249  -5726384.42547  27151348.7514   27151342.8684
      2787.4064
 -16377027.23249 -12741472.52147  25028650.1104   25028647.0324
     -1434.9224
 -16325137.52149 -12702639.72348  25334077.9544   25334073.7554
       281.0784
  -4063562.93649  -3148779.12746  27823858.3844   27823855.5594
      3147.8594
 07  4 23  0 40  0.0130000  0 11G 1G12G 2G 4G 6G 5G20G23G30G31G 7
 -12025231.53049  -9352093.01147  26107723.1264   26107720.1734
     -2117.7664
  -7525378.67449  -5845272.99347  26783202.2434   26783197.8454
     -3139.0624
 -10895900.49749  -8472131.89747  26437944.2434   26437939.1884
      1941.5474
 -10416123.28549  -8099366.91747  26209205.4704   26209203.3844
     -1031.6094
  -8029583.71349  -6238891.92047  27047450.8524   27047448.0524
      2816.1564
 -10112818.95249  -7860559.43547  26151215.3684   26151212.2674
     -2943.1414
  -5740474.66749  -4455720.93247  27153258.1884   27153255.3604
     -2737.1094
  -7414341.65849  -5758924.84247  27143402.1494   27143397.1964
      2780.6094
 -16355425.80149 -12724640.22948  25032760.5954   25032757.2394
     -1445.3284
 -16329280.55549 -12705868.03048  25333289.5404   25333285.5284
       271.2344
  -4110752.17749  -3185549.92846  27814878.5094   27814876.2674
      3143.9694
 07  4 23  0 40 15.0130000  0 11G 1G12G 2G 4G 6G 5G20G23G30G31G 7
 -11993397.97149  -9327287.63047  26113780.9934   26113778.2164
     -2126.6724
  -7478248.01949  -5808547.76647  26792170.4854   26792167.2314
     -3144.9374
 -10924955.26049  -8494771.96847  26432415.1814   26432410.6144
      1932.3914
 -10400571.09049  -8087248.32447  26212165.2434   26212162.6534
     -1042.0944
  -8071783.19249  -6271774.61747  27039420.2824   27039417.6574
      2810.4844
 -10068616.44949  -7826116.00547  26159627.1184   26159624.2084
     -2950.5474
  -5699359.51849  -4423683.17047  27161082.7124   27161078.9584
     -2744.9064
  -7455997.74149  -5791384.12247  27135475.7124   27135469.8024
      2773.5634
 -16333667.75949 -12707685.96248  25036901.0324   25036898.0874
     -1455.6874
 -16333275.42849 -12708980.90048  25332529.1654   25332524.7124
       261.3914
  -4157883.40549  -3222275.52146  27805909.5874   27805907.2274
      3140.2194
 07  4 23  0 40 30.0130000  0 11G 1G12G 2G 4G 6G 5G20G23G30G31G 7
 -11961432.62549  -9302379.55147  26119863.7904   26119861.0054
     -2135.4694
  -7431029.64349  -5771754.27947  26801157.0014   26801152.7274
     -3150.8914
 -10953873.87949  -8517305.95147  26426912.5094   26426907.2244
      1923.2814
 -10384862.35749  -8075007.75147  26215154.3454   26215151.9704
     -1052.5164
  -8113898.59649  -6304591.80147  27031406.3994   27031403.0094
      2804.8594
 -10024304.87949  -7791587.51147  26168059.3844   26168056.2244
     -2957.7664
  -5658128.73949  -4391555.29047  27168928.2904   27168925.0994
     -2752.5164
  -7497550.70949  -5823763.03147  27127568.4854   27127562.3884
      2766.6724
 -16311754.87749 -12690610.97048  25041070.8214   25041067.8804
     -1466.0624
 -16337123.76849 -12711979.63648  25331797.2514   25331792.7514
       251.6094
  -4204957.95049  -3258956.96546  27796951.6494   27796948.8724
      3136.3284
 07  4 23  0 40 45.0130000  0 11G 1G12G 2G 4G 6G 5G20G23G30G31G 7
 -11929335.14749  -9277368.53647  26125971.6574   26125968.7124
     -2144.3594
  -7383722.57649  -5734891.62247  26810159.0324   26810154.4274
     -3156.8124
 -10982655.41149  -8539733.12547  26421435.5484   26421430.6384
      1914.1414
 -10368996.66649  -8062644.81647  26218173.5244   26218170.6814
     -1062.9844
  -8155928.94449  -6337342.70347  27023408.0484   27023405.3924
      2799.1564
  -9979884.18149  -7756974.00047  26176512.5564   26176509.6774
     -2965.1414
  -5616782.02049  -4359337.06147  27176796.0954   27176793.3924
     -2760.3914
  -7538999.63849  -5856060.86847  27119680.3764   27119674.3374
      2759.6564
 -16289686.80949 -12673415.13548  25045270.4314   25045267.1534
     -1476.4534
 -16340824.62549 -12714863.43148  25331092.8214   25331088.3804
       241.7504
  -4251974.87249  -3295593.58046  27788004.4774   27788002.5404
      3132.4384
 07  4 23  0 41  0.0130000  0 11G 1G12G 2G 4G 6G 5G20G23G30G31G 7
 -11897104.96549  -9252254.12247  26132104.6654   26132101.5874
     -2153.1254
  -7336326.46449  -5697959.54847  26819178.2984   26819174.0244
     -3162.7194
 -11011298.91349  -8562052.73347  26415984.7434   26415979.4344
      1904.9844
 -10352973.42949  -8050159.17147  26221222.9624   26221220.8254
     -1073.4844
  -8197873.34449  -6370026.62347  27015426.3924   27015423.4584
      2793.4384
  -9935353.75349  -7722274.96947  26184985.9154   26184983.4854
     -2972.2974
  -5575318.95049  -4327028.20547  27184686.3134   27184683.3494
     -2768.0784
  -7580343.41449  -5888276.77047  27111812.9464   27111807.2984
      2752.7814
 -16267462.56349 -12656097.52048  25049499.5484   25049496.3294
     -1486.7974
 -16344377.22449 -12717631.67348  25330416.8454   25330412.3334
       231.8914
  -4298933.03349  -3332184.33247  27779069.3454   27779066.4744
      3128.5474
 07  4 23  0 41 15.0130000  0 11G 1G12G 2G 4G 6G 5G20G23G30G31G 7
 -11864741.93749  -9227036.15647  26138263.5954   26138260.6774
     -2161.9844
  -7288841.62849  -5660958.37347  26828214.0174   26828210.1224
     -3168.7194
 -11039803.63949  -8584264.20447  26410560.4384   26410554.8174
      1895.7974
 -10336792.41749  -8037550.60047  26224301.5794   26224299.4814
     -1084.0004
  -8239731.15049  -6402643.08847  27007460.2824   27007458.7434
      2787.5634
  -9890713.77749  -7687490.63047  26193481.1104   26193478.1184
     -2979.7034
  -5533739.44649  -4294628.60847  27192598.6884   27192596.1424
     -2775.8914
  -7621581.36549  -5920410.23347  27103965.5794   27103961.0364
      2745.5944
 -16245082.32449 -12638658.37547  25053758.2744   25053755.2634
     -1497.2814
 -16347781.24149 -12720284.13548  25329769.0874   25329764.7204
       221.9064
  -4345831.85149  -3368728.90946  27770144.3134   27770141.6224
      3124.6094
 07  4 23  0 41 30.0130000  0 11G 1G12G 2G 4G 6G 5G20G23G30G31G 7
 -11832246.43949  -9201715.00047  26144446.8684   26144443.9034
     -2170.8284
  -7241268.29949  -5623888.22847  26837266.5714   26837262.3214
     -3174.5944
 -11068169.33649  -8606367.35347  26405162.3924   26405157.2084
      1886.3914
 -10320453.77649  -8024819.18547  26227410.9154   26227408.4814
     -1094.4534
  -8281502.08249  -6435191.83247  26999511.8994   26999509.0524
      2781.8754
  -9845964.37449  -7652620.93247  26201996.3994   26201992.7824
     -2986.9064
  -5492043.84849  -4262138.52647  27200532.9704   27200530.2824
     -2783.5784
  -7662713.38549  -5952461.14047  27096138.2674   27096133.5014
      2738.5784
 -16222546.03049 -12621097.62347  25058046.8214   25058043.0834
     -1507.6094
 -16351036.79549 -12722820.93048  25329149.5014   25329145.2164
       212.0784
  -4392671.17349  -3405227.11647  27761231.1494   27761228.5364
      3120.6094
 07  4 23  0 41 45.0130000  0 11G 1G12G 2G 4G 6G 5G20G23G30G31G 7
 -11799619.14849  -9176291.14547  26150656.0014   26150652.7514
     -2179.4844
  -7193607.30349  -5586749.83947  26846335.8764   26846332.7784
     -3180.2344
 -11096396.41649  -8628362.50647  26399791.2594   26399785.3924
      1877.1564
 -10303958.21749  -8011965.48347  26230550.0634   26230547.8134
     -1104.8914
  -8323186.38349  -6467673.12547  26991579.8134   26991577.0794
      2776.1724
  -9801106.60349  -7617666.86047  26210532.6024   26210529.3294
     -2994.0624
  -5450233.11749  -4229558.72147  27208489.4154   27208485.9704
     -2791.2034
  -7703739.32349  -5984429.38247  27088330.8604   27088326.1494
      2731.5474
 -16199854.60149 -12603416.00248  25062365.1184   25062362.0054
     -1517.9224
 -16354144.20649 -12725242.28148  25328557.9854   25328554.0174
       202.2194
  -4439451.06549  -3441678.97947  27752329.3374   27752327.0564
      3116.8134
 07  4 23  0 42  0.0130000  0 11G 1G12G 2G 4G 6G 5G20G23G30G31G 7
 -11766860.80449  -9150765.16447  26156888.9704   26156886.6844
     -2188.2504
  -7145859.24249  -5549543.60047  26855421.7044   26855418.4704
     -3186.2344
 -11124484.98049  -8650249.66947  26394445.8524   26394440.9274
      1867.8284
 -10287306.42349  -7998990.05047  26233718.3994   26233716.1304
     -1115.2974
  -8364784.25349  -6500087.01347  26983664.0094   26983660.3294
      2770.3914
  -9756141.08349  -7582628.81147  26219089.1574   26219086.4744
     -3001.3914
  -5408308.05049  -4196889.84047  27216467.6734   27216464.0794
     -2798.7974
  -7744659.53949  -6016315.26047  27080544.2674   27080539.5094
      2724.4384
 -16177008.74549 -12585614.08847  25066712.2984   25066709.4624
     -1528.2504
 -16357104.24749 -12727548.80648  25327994.9464   25327990.8064
       192.4534
  -4486171.77049  -3478084.66246  27743437.6734   27743436.5754
      3112.6254
 07  4 23  0 42 15.0130000  0 11G 1G12G 2G 4G 6G 5G20G23G30G31G 7
 -11733970.58649  -9125136.40347  26163147.9544   26163145.7124
     -2197.1564
  -7098023.25549  -5512268.77947  26864525.1814   26864521.0594
     -3191.9374
 -11152433.63949  -8672027.85047  26389127.5634   26389122.1454
      1858.5634
 -10270497.41449  -7985892.15647  26236917.6494   26236914.8884
     -1125.8754
  -8406294.30949  -6532432.54347  26975764.9704   26975761.7904
      2764.4534
  -9711066.97249  -7547506.08747  26227666.8214   26227663.8684
     -3008.5624
  -5366267.62449  -4164131.05147  27224467.4384   27224464.5014
     -2806.5784
  -7785472.58749  -6048117.65047  27072778.1104   27072773.1574
      2717.2504
 -16154007.31749 -12567690.90647  25071089.3454   25071085.8764
     -1538.6724
 -16359915.23649 -12729739.19248  25327459.8454   25327455.7474
       182.3754
  -4532831.92949  -3514443.25947  27734559.3214   27734556.6454
      3108.6724
 07  4 23  0 42 30.0130000  0 11G 1G12G 2G 4G 6G 5G20G23G30G31G 7
 -11700949.53249  -9099405.73347  26169432.0874   26169428.7274
     -2205.7814
  -7050100.60449  -5474926.46347  26873643.8764   26873641.0674
     -3197.8284
 -11180243.03249  -8693697.55647  26383835.7984   26383830.3024
      1849.1254
 -10253532.01549  -7972672.39347  26240145.5404   26240142.9664
     -1136.3124
  -8447716.95349  -6564709.91447  26967882.2904   26967879.7204
      2758.5784
  -9665885.53949  -7512299.77647  26236263.7274   26236260.7124
     -3015.7814
  -5324113.23749  -4131283.47947  27232489.5634   27232485.8844
     -2814.2034
  -7826178.68549  -6079836.67047  27065032.1814   27065026.2514
      2710.0004
 -16130851.44249 -12549647.35547  25075495.9774   25075492.3494
     -1548.9534
 -16362577.89549 -12731813.98848  25326953.1734   25326949.4584
       172.4224
  -4579432.02249  -3550755.00546  27725691.8454   27725689.9934
      3104.5314
 07  4 23  0 42 45.0130000  0 11G 1G12G 2G 4G 6G 5G20G23G30G31G 7
 -11667798.12649  -9073573.46947  26175740.6814   26175737.5404
     -2214.4224
  -7002091.76749  -5437517.00247  26882780.6104   26882777.0484
     -3203.4694
 -11207913.07249  -8715258.63347  26378570.1024   26378565.2084
      1840.1094
 -10236410.65949  -7959331.09347  26243404.1654   26243401.6924
     -1146.7034
  -8489052.33649  -6596919.27347  26960016.7124   26960013.8764
      2752.7504
  -9620597.33249  -7477010.25347  26244882.1424   26244879.4584
     -3022.8284
  -5281845.61449  -4098347.66547  27240533.1264   27240529.4774
     -2821.6724
  -7866778.02249  -6111472.49647  27057306.5324   27057301.0524
      2703.0474
 -16107541.75149 -12531483.99748  25079931.1104   25079928.3644
     -1559.0624
 -16365092.77349 -12733773.61948  25326474.8994   25326470.7944
       162.7344
  -4625972.17649  -3587020.00847  27716834.6494   27716833.2394
      3100.6564
 07  4 23  0 43  0.0130000  0 11G 1G12G 2G 4G 6G 5G20G23G30G31G 7
 -11634516.99149  -9047640.11447  26182073.3994   26182070.8334
     -2223.2194
  -6953997.44049  -5400040.88947  26891932.1814   26891928.3294
     -3209.2504
 -11235443.87049  -8736711.19347  26373331.0794   26373325.8024
      1830.5474
 -10219133.95949  -7945868.73947  26246691.5874   26246689.5094
     -1157.1094
  -8530300.48649  -6629060.68947  26952167.8454   26952165.2634
      2746.8284
  -9575203.04849  -7441638.06047  26253520.5794   26253516.9854
     -3029.9224
  -5239465.43549  -4065324.14247  27248597.4074   27248594.2004
     -2829.2194
  -7907270.69949  -6143025.20747  27049601.1734   27049595.3494
      2695.7664
 -16084078.35449 -12513200.79948  25084396.5174   25084393.1264
     -1569.4844
 -16367460.17849 -12735618.35948  25326024.1654   25326019.8294
       152.7344
  -4672452.44949  -3623238.39347  27707990.7674   27707988.2704
      3096.4384
 07  4 23  0 43 15.0130000  0 11G 1G12G 2G 4G 6G 5G20G23G30G31G 7
 -11601105.58549  -9021605.25147  26188431.5564   26188428.3924
     -2231.7664
  -6905817.06449  -5362497.77747  26901101.0484   26901097.0634
     -3214.7814
 -11262834.21749  -8758054.27947  26368118.8684   26368113.7394
      1821.4064
 -10201701.05049  -7932284.64047  26250009.0634   26250006.2784
     -1167.3594
  -8571460.24549  -6661133.24747  26944335.4234   26944331.8524
      2740.9844
  -9529702.20649  -7406182.88447  26262179.2904   26262175.4424
     -3036.8444
  -5196972.00949  -4032212.37447  27256683.6734   27256680.1454
     -2836.6874
  -7947655.54249  -6174493.92647  27041915.3844   27041910.2784
      2688.7664
 -16060461.11149 -12494797.75847  25088890.6104   25088887.1454
     -1579.6094
 -16369679.13249 -12737347.40548  25325602.2124   25325597.3564
       142.9844
  -4718871.70449  -3659409.20447  27699157.3214   27699154.6344
      3092.5634
 07  4 23  0 43 30.0130000  0 11G 1G12G 2G 4G 6G 5G20G23G30G31G 7
 -11567564.04449  -8995468.99047  26194814.5634   26194811.3684
     -2240.3754
  -6857550.89949  -5324887.83547  26910285.4074   26910281.1694
     -3220.4844
 -11290083.98049  -8779287.83547  26362933.3604   26362928.1104
      1812.0004
 -10184112.14549  -7918579.02747  26253356.0324   26253353.4504
     -1177.7664
  -8612531.28949  -6693136.68047  26936519.5404   26936516.6184
      2735.1094
  -9484094.85449  -7370644.65547  26270858.0014   26270854.6304
     -3044.0314
  -5154365.70049  -3999012.66847  27264791.7354   27264787.8924
     -2844.1254
  -7987932.03449  -6205878.18247  27034251.0714   27034245.3414
      2681.5164
 -16036689.96449 -12476274.82848  25093414.0094   25093411.1024
     -1589.8284
 -16371749.63749 -12738960.78948  25325207.6424   25325203.3844
       133.0944
  -4765229.52749  -3695532.18047  27690336.0714   27690332.8294
      3088.6414
 07  4 23  0 43 45.0130000  0 11G 1G12G 2G 4G 6G 5G20G23G30G31G 7
 -11533892.44649  -8969231.35847  26201221.7354   26201218.5634
     -2249.0944
  -6809199.08949  -5287211.13847  26919486.8064   26919483.1884
     -3226.3284
 -11317192.69649  -8800411.52547  26357774.4704   26357769.1104
      1802.5944
 -10166367.38449  -7904751.96647  26256732.5014   26256730.4544
     -1188.0784
  -8653513.27149  -6725070.68347  26928720.8134   26928718.7434
      2729.1254
  -9438381.42049  -7335023.84147  26279556.8924   26279553.8294
     -3051.1094
  -5111646.57849  -3965725.02947  27272920.5714   27272917.3604
     -2851.6874
  -8028099.77849  -6237177.70747  27026607.4384   27026601.7164
      2674.1724
 -16012764.87849 -12457631.92347  25097966.8764   25097963.4894
     -1600.1094
 -16373671.41049 -12740458.26048  25324841.9464   25324837.4114
       123.1254
  -4811525.46649  -3731606.93147  27681525.4234   27681523.1814
      3084.3444
 07  4 23  0 44  0.0130000  0 11G 1G12G 2G 4G 6G 5G20G23G30G31G 7
 -11500092.63849  -8942893.83647  26207653.6574   26207650.5794
     -2257.5624
  -6760763.48249  -5249469.12847  26928704.0174   26928699.8724
     -3231.7814
 -11344161.61049  -8821426.27647  26352643.1734   26352637.4274
      1793.3134
 -10148468.19949  -7890804.56147  26260138.5874   26260136.3724
     -1198.3754
  -8694407.34449  -6756936.15447  26920938.5634   26920936.4854
      2723.3134
  -9392563.55649  -7299321.62347  26288275.8214   26288272.7864
     -3057.8754
  -5068816.52949  -3932350.96647  27281071.0244   27281067.3374
     -2858.9374
  -8068159.94749  -6268393.42747  27018984.3294   27018977.9544
      2667.1564
 -15988687.55649 -12438870.37247  25102548.7594   25102545.4814
     -1610.2194
 -16375446.10149 -12741841.13948  25324504.5094   25324499.8804
       113.3594
  -4857760.99949  -3767634.59747  27672727.3604   27672725.3524
      3080.5004
 07  4 23  0 44 15.0130000  0 11G 1G12G 2G 4G 6G 5G20G23G30G31G 7
 -11466163.16749  -8916455.28147  26214110.4854   26214107.3094
     -2266.3284
  -6712242.76749  -5211660.81947  26937936.8684   26937933.4114
     -3237.5784
 -11370988.81749  -8842330.57847  26347537.4934   26347531.8524
      1783.7344
 -10130413.24749  -7876735.76547  26263574.4624   26263572.2744
     -1208.9064
  -8735211.65549  -6788731.70347  26913174.1574   26913171.2244
      2717.2974
  -9346639.98449  -7263537.00747  26297014.5794   26297011.8764
     -3065.1414
  -5025874.35249  -3898889.56347  27289243.0014   27289239.0914
     -2866.5004
  -8108110.51649  -6299523.73347  27011381.9464   27011376.0914
      2659.7194
 -15964456.61049 -12419989.09647  25107160.0634   25107156.4704
     -1620.5474
 -16377072.00049 -12743108.07848  25324194.9854   25324191.0094
       103.4384
  -4903934.03349  -3803613.57747  27663940.8374   27663938.4704
      3076.1564
 07  4 23  0 44 30.0130000  0 11G 1G12G 2G 4G 6G 5G20G23G30G31G 7
 -11432104.64249  -8889916.16347  26220591.5634   26220588.1534
     -2274.7504
  -6663637.53449  -5173786.62947  26947186.0874   26947182.3524
     -3243.1254
 -11397674.36949  -8863124.48847  26342459.3524   26342454.3174
      1774.2974
 -10112203.05649  -7862545.96947  26267039.6574   26267037.5094
     -1219.1254
  -8775926.14849  -6820457.27447  26905426.4384   26905423.5364
      2711.5164
  -9300611.35349  -7227670.52047  26305773.2984   26305771.2204
     -3072.0314
  -4982820.81849  -3865341.36647  27297436.1884   27297431.6574
     -2873.8754
  -8147951.57349  -6330568.70747  27003800.7204   27003793.7944
      2652.5004
 -15940072.53249 -12400988.50647  25111799.8764   25111796.7044
     -1630.6254
 -16378549.27349 -12744259.21348  25323913.7744   25323909.5564
        93.5314
  -4950044.59849  -3839543.85147  27655166.1814   27655163.9814
      3071.9534
 07  4 23  0 44 45.0130000  0 11G 1G12G 2G 4G 6G 5G20G23G30G31G 7
 -11397919.02549  -8863278.00947  26227096.9384   26227094.1184
     -2283.3284
  -6614949.77549  -5135848.13447  26956450.6964   26956447.6224
     -3248.5474
 -11424219.81449  -8883809.28047  26337408.3844   26337402.5444
      1765.0004
 -10093839.37749  -7848236.64247  26270533.8524   26270531.9034
     -1229.4064
  -8816552.28149  -6852113.98647  26897695.6814   26897692.7594
      2705.3914
  -9254479.70749  -7191723.80347  26314551.5954   26314549.1574
     -3078.9534
  -4939657.75449  -3831707.81347  27305649.5404   27305645.7634
     -2881.2344
  -8187684.43649  -6361529.35747  26996240.0244   26996233.2204
      2645.2194
 -15915537.36849 -12381870.19647  25116469.0484   25116465.1304
     -1640.7664
 -16379879.55449 -12745295.76848  25323660.7984   25323656.2044
        83.7504
  -4996094.27049  -3875426.72547  27646403.4464   27646401.0444
      3067.9694
 07  4 23  0 45  0.0130000  0 11G 1G12G 2G 4G 6G 5G20G23G30G31G 7
 -11363606.63149  -8836541.07847  26233625.9934   26233623.3844
     -2291.9374
  -6566179.80649  -5097845.59947  26965732.0094   26965727.7554
     -3254.2974
 -11450624.80049  -8904384.56347  26332383.2594   26332377.2394
      1755.5784
 -10075322.27049  -7833807.67347  26274057.8994   26274055.5634
     -1239.6874
  -8857089.97649  -6883701.80247  26889981.2594   26889978.7434
      2699.5944
  -9208245.44849  -7155697.09947  26323349.8294   26323347.2634
     -3085.8444
  -4896385.58249  -3797989.24547  27313883.6184   27313880.1814
     -2888.6874
  -8227308.87049  -6392405.52247  26988699.3684   26988693.1024
      2637.8134
 -15890851.28149 -12362634.24647  25121166.4854   25121162.8174
     -1650.8914
 -16381062.94349 -12746217.88248  25323435.2434   25323431.1144
        73.7974
  -5042082.78549  -3911261.91947  27637652.3454   27637649.7124
      3063.7974
 07  4 23  0 45 15.0130000  0 11G 1G12G 2G 4G 6G 5G20G23G30G31G 7
 -11329165.99249  -8809704.20647  26240179.9934   26240176.8334
     -2300.3284
  -6517326.07549  -5059777.73247  26975028.3064   26975024.8214
     -3259.6874
 -11476887.44049  -8924848.95647  26327385.7674   26327379.4774
      1746.0784
 -10056650.45449  -7819258.15147  26277610.7204   26277608.1844
     -1249.9374
  -8897537.00649  -6915218.95947  26882284.0174   26882281.6964
      2693.4064
  -9161907.10649  -7119589.32547  26332168.1884   26332165.0444
     -3092.7034
  -4853003.03549  -3764184.65547  27322139.4074   27322135.0524
     -2895.9064
  -8266822.79049  -6423195.59747  26981180.3844   26981174.6494
      2630.5004
 -15866012.65549 -12343279.40748  25125893.2674   25125889.7904
     -1660.9844
 -16382097.72349 -12747024.21548  25323238.9464   25323234.4744
        64.0004
  -5088008.02249  -3947047.80947  27628912.7044   27628909.9544
      3059.5164
 07  4 23  0 45 30.0130000  0 11G 1G12G 2G 4G 6G 5G20G23G30G31G 7
 -11294596.17949  -8782766.67547  26246758.3924   26246755.4544
     -2308.9224
  -6468387.91249  -5021644.10347  26984340.4854   26984337.1814
     -3265.4064
 -11503006.44149  -8945201.46247  26322415.8994   26322410.2674
      1736.2504
 -10037822.97649  -7804587.41747  26281193.5874   26281191.5404
     -1260.3124
  -8937891.98349  -6946664.35147  26874605.0564   26874602.0444
      2687.2974
  -9115463.87849  -7083399.77647  26341006.0714   26341002.5324
     -3099.8284
  -4809509.15149  -3730293.34747  27330415.7124   27330411.7864
     -2903.3444
  -8306224.76749  -6453898.41547  26973682.0174   26973676.4664
      2623.0474
 -15841020.67449 -12323805.11647  25130648.7124   25130645.1384
     -1671.2344
 -16382982.58349 -12747713.72848  25323070.0404   25323065.9814
        54.0164
  -5133868.67849  -3982783.34947  27620185.8374   27620183.3214
      3055.2194
 07  4 23  0 45 45.0130000  0 11G 1G12G 2G 4G 6G 5G20G23G30G31G 7
 -11259898.39349  -8755729.45647  26253361.2124   26253358.4274
     -2317.4374
  -6419366.49149  -4983445.58647  26993668.9624   26993665.5204
     -3270.8284
 -11528982.28649  -8965442.36747  26317472.7274   26317467.3064
      1726.9844
 -10018840.87349  -7789796.19947  26284805.7904   26284803.3644
     -1270.6254
  -8978155.75349  -6978038.71047  26866942.7044   26866940.4584
      2681.2194
  -9068916.94249  -7047129.44947  26349863.6184   26349860.4034
     -3106.5624
  -4765905.20549  -3696316.25847  27338713.2354   27338709.1814
     -2910.6094
  -8345515.13549  -6484514.28947  26966204.7274   26966199.5754
      2615.6094
 -15815876.32849 -12304212.09547  25135433.4314   25135429.7864
     -1681.3284
 -16383718.45949 -12748287.14948  25322930.2674   25322925.7124
        44.1254
  -5179665.26149  -4018468.98147  27611470.7354   27611467.9774
      3050.8914
 07  4 23  0 46  0.0130000  0 11G 1G12G 2G 4G 6G 5G20G23G30G31G 7
 -11225074.20549  -8728593.73447  26259988.2594   26259985.0874
     -2325.8914
  -6370263.36149  -4945183.41147  27003013.1494   27003009.3924
     -3276.4224
 -11554816.12449  -8985572.64247  26312557.0954   26312551.0594
      1717.4384
  -9999705.25949  -7774885.29147  26288446.9624   26288444.0994
     -1280.8124
  -9018329.09849  -7009342.59247  26859298.5244   26859295.1814
      2675.1254
  -9022267.97149  -7010779.58747  26358741.0564   26358737.3724
     -3113.3444
  -4722192.91049  -3662254.74847  27347031.1264   27347027.8564
     -2917.9064
  -8384695.27249  -6515044.23247  26958749.0484   26958744.3214
      2608.2194
 -15790581.36449 -12284501.77947  25140247.2904   25140243.8064
     -1691.4374
 -16384306.67449 -12748745.49948  25322818.0014   25322813.4504
        34.2034
  -5225398.86849  -4054105.56547  27602768.3684   27602765.2354
      3046.7814
 07  4 23  0 46 15.0130000  0 11G 1G12G 2G 4G 6G 5G20G23G30G31G 7
 -11190122.83749  -8701358.89347  26266639.3994   26266636.4424
     -2334.4534
  -6321077.94149  -4906857.14347  27012372.9464   27012369.5794
     -3281.8444
 -11580506.51249  -9005591.10847  26307667.8214   26307662.3564
      1707.8444
  -9980415.83149  -7759854.56247  26292117.5874   26292115.3724
     -1291.2194
  -9058410.82649  -7040575.05647  26851670.8604   26851668.2164
      2668.9384
  -8975516.18249  -6974349.58247  26367637.4704   26367633.6424
     -3120.3444
  -4678371.54749  -3628108.22647  27355370.0404   27355365.9774
     -2925.1094
  -8423763.63149  -6545487.07347  26951314.7514   26951309.7434
      2600.8284
 -15765134.75949 -12264673.25447  25145089.2434   25145086.0564
     -1701.5944
 -16384746.23149 -12749088.00548  25322734.5564   25322729.9814
        24.2664
  -5271068.24749  -4089692.08547  27594078.0634   27594074.8374
      3042.4064
 07  4 23  0 46 30.0130000  0 11G 1G12G 2G 4G 6G 5G20G23G30G31G 7
 -11155043.18349  -8674024.09447  26273314.3924   26273311.3454
     -2342.9064
  -6271809.02349  -4868465.78147  27021748.6344   27021745.1104
     -3287.3754
 -11606051.94849  -9025496.65247  26302807.0794   26302801.1964
      1698.2034
  -9960971.13549  -7744702.86247  26295817.9154   26295815.1144
     -1301.4374
  -9098399.40849  -7071734.97047  26844062.0404   26844058.1654
      2662.8594
  -8928660.73749  -6937838.84847  26376553.7594   26376549.7594
     -3127.1254
  -4634440.17949  -3593875.99447  27363730.2354   27363726.0834
     -2932.4534
  -8462718.62949  -6575841.62847  26943901.9154   26943896.4744
      2593.1884
 -15739535.41549 -12244725.65447  25149960.7514   25149956.9584
     -1711.5784
 -16385035.72349 -12749313.56248  25322679.5014   25322675.1264
        14.3914
  -5316671.73649  -4125227.25747  27585399.8064   27585396.0954
      3038.0784
 07  4 23  0 46 45.0130000  0 11G 1G12G 2G 4G 6G 5G20G23G30G31G 7
 -11119836.60449  -8646590.39247  26280013.9234   26280010.7674
     -2351.2344
  -6222458.06749  -4830010.49547  27031139.7354   27031136.7044
     -3292.8444
 -11631453.38849  -9045289.97747  26297973.0564   26297968.2944
      1688.6884
  -9941372.35249  -7729431.07947  26299547.5404   26299544.4274
     -1311.7664
  -9138295.44449  -7102822.78647  26836469.9234   26836466.2394
      2656.6094
  -8881702.97749  -6901248.38947  26385488.7904   26385485.6844
     -3133.9064
  -4590400.18649  -3559559.12447  27372110.5874   27372106.6064
     -2939.5474
  -8501561.05849  -6606108.43547  26936510.6734   26936505.3564
      2585.7504
 -15713784.50649 -12224660.00547  25154860.6574   25154857.5284
     -1721.7664
 -16385176.25649 -12749423.07848  25322652.8064   25322648.7354
         4.4224
  -5362210.12749  -4160711.72047  27576733.6424   27576730.6064
      3033.6884
 07  4 23  0 47  0.0130000  0 11G 1G12G 2G 4G 6G 5G20G23G30G31G 7
 -11084503.83949  -8619058.37147  26286737.4854   26286734.3804
     -2359.6564
  -6173025.81849  -4791491.86947  27040547.1344   27040543.7084
     -3298.0944
 -11656711.19549  -9064971.43847  26293166.9234   26293161.4774
      1679.1094
  -9921620.27049  -7714039.85647  26303306.0014   26303303.6064
     -1321.8594
  -9178099.33049  -7133838.78447  26828895.3294   26828891.4314
      2650.6724
  -8834643.56849  -6864578.70347  26394444.3374   26394441.2394
     -3140.5944
  -4546252.47349  -3525158.32247  27380512.0244   27380508.0714
     -2946.6564
  -8540290.91749  -6636287.54047  26929141.2744   26929135.4854
      2578.2194
 -15687882.85749 -12204476.89547  25159789.6884   25159786.5324
     -1731.7344
 -16385168.25249 -12749416.84848  25322654.3994   25322649.7554
        -5.4374
  -5407683.69849  -4196145.64247  27568080.8924   27568077.8214
      3029.4224
 07  4 23  0 47 15.0130000  0 11G 1G12G 2G 4G 6G 5G20G23G30G31G 7
 -11049046.49849  -8591429.29747  26293484.9544   26293482.3604
     -2368.0004
  -6123513.99249  -4752911.26047  27049968.2514   27049964.9424
     -3303.4064
 -11681826.05849  -9084541.41747  26288387.3454   26288382.3254
      1669.4534
  -9901716.26849  -7698530.27847  26307094.3844   26307091.2354
     -1332.0314
  -9217812.03949  -7164783.75747  26821338.3294   26821334.5754
      2644.4694
  -8787484.30149  -6827831.23247  26403418.3454   26403415.0874
     -3147.3284
  -4501998.57049  -3490674.78347  27388932.6104   27388929.4854
     -2953.8284
  -8578909.33549  -6666379.78847  26921792.1344   26921786.3374
      2570.7974
 -15661832.14549 -12184177.63248  25164746.9234   25164744.3254
     -1741.7034
 -16385013.06349 -12749295.93348  25322683.3374   25322679.0794
       -15.3284
  -5453093.48549  -4231529.88647  27559439.4854   27559436.3954
      3025.1724
 07  4 23  0 47 30.0130000  0 11G 1G12G 2G 4G 6G 5G20G23G30G31G 7
 -11013463.57949  -8563702.34547  26300256.1184   26300253.2434
     -2376.4374
  -6073921.60249  -4714267.86447  27059405.7044   27059401.7514
     -3308.8444
 -11706796.69549  -9103999.04847  26283635.6884   26283629.7944
      1659.8914
  -9881659.41849  -7682901.57247  26310910.6964   26310908.8994
     -1342.2974
  -9257432.11449  -7195656.54047  26813798.6964   26813795.5014
      2638.1564
  -8740224.22149  -6791005.20947  26412411.4624   26412408.7084
     -3154.0784
  -4457637.73949  -3456107.89447  27397374.6184   27397370.8924
     -2961.0474
  -8617414.76549  -6696384.04547  26914464.6424   26914458.6224
      2563.2344
 -15635631.32249 -12163761.39948  25169733.0174   25169729.9774
     -1751.8284
 -16384709.32249 -12749059.23148  25322741.6884   25322737.1494
       -25.2814
  -5498437.86749  -4266863.17447  27550810.6344   27550807.5244
      3020.7194
 07  4 23  0 47 45.0130000  0 11G 1G12G 2G 4G 6G 5G20G23G30G31G 7
 -10977754.04249  -8535876.73747  26307051.6814   26307048.7514
     -2384.7974
  -6024247.51549  -4675560.78147  27068858.0874   27068854.6454
     -3314.2504
 -11731621.38449  -9123342.94447  26278911.5014   26278905.8334
      1650.1254
  -9861448.42749  -7667152.77747  26314756.9464   26314753.7514
     -1352.5004
  -9296957.79249  -7226455.74147  26806277.6574   26806273.6304
      2631.9844
  -8692862.25149  -6754099.77147  26421423.7984   26421421.2704
     -3160.7194
  -4413168.87949  -3421456.83647  27405837.0324   27405832.9034
     -2968.0944
  -8655805.48649  -6726298.86347  26907159.1964   26907152.7394
      2555.7034
 -15609279.06349 -12143227.14747  25174747.5404   25174744.3024
     -1761.7504
 -16384255.68149 -12748705.75248  25322827.8604   25322823.8884
       -35.1414
  -5543715.35149  -4302144.31547  27542194.8604   27542191.6654
      3016.4694
 07  4 23  0 48  0.0130000  0 11G 1G12G 2G 4G 6G 5G20G23G30G31G 7
 -10941920.27649  -8507954.32547  26313870.3214   26313867.5794
     -2393.1094
  -5974494.10249  -4636791.89547  27078326.1424   27078321.8924
     -3319.5944
 -11756302.11949  -9142574.72247  26274214.8924   26274209.3494
      1640.5784
  -9841085.66449  -7651285.69147  26318631.3994   26318629.2514
     -1362.7664
  -9336391.04449  -7257182.92947  26798773.1814   26798770.0794
      2625.7814
  -8645400.85449  -6717116.88047  26430456.0244   26430452.8954
     -3167.5314
  -4368594.37349  -3386723.48647  27414319.4314   27414316.0914
     -2975.1564
  -8694083.17449  -6756125.61947  26899874.9074   26899868.9384
      2547.9224
 -15582777.78449 -12122576.76447  25179790.7984   25179786.9624
     -1771.7664
 -16383654.32749 -12748237.15548  25322942.1104   25322938.0874
       -45.0164
  -5588927.75549  -4337374.77747  27533591.5634   27533588.5094
      3011.9224
 07  4 23  0 48 15.0130000  0 11G 1G12G 2G 4G 6G 5G20G23G30G31G 7
 -10905960.76649  -8479933.92147  26320713.4314   26320710.1814
     -2401.3284
  -5924660.04249  -4597960.17547  27087809.0794   27087805.1064
     -3324.9224
 -11780836.85449  -9161692.68647  26269546.0634   26269540.4704
      1630.9064
  -9820569.57549  -7635299.14047  26322535.4234   26322533.2824
     -1372.7504
  -9375729.77149  -7287836.47047  26791287.4704   26791284.5174
      2619.4844
  -8597838.67249  -6680055.47247  26439506.0324   26439503.3684
     -3174.0474
  -4323912.85649  -3351906.70547  27422822.0014   27422817.5364
     -2982.2194
  -8732246.05549  -6785862.89447  26892613.0244   26892605.9744
      2540.3754
 -15556126.05249 -12101809.17647  25184862.2594   25184859.0794
     -1781.7194
 -16382903.55149 -12747652.14648  25323085.2824   25323081.1064
       -54.9064
  -5634072.97549  -4372552.87947  27525000.1024   27524996.9774
      3007.6094
 07  4 23  0 48 30.0130000  0 11G 1G12G 2G 4G 6G 5G20G23G30G31G 7
 -10869877.23149  -8451816.88247  26327579.6494   26327577.0134
     -2409.7814
  -5874747.04749  -4559066.97147  27097307.1184   27097303.8564
     -3330.2034
 -11805226.97649  -9180697.96547  26264904.9314   26264899.8494
      1621.0474
  -9799901.61549  -7619194.20747  26326468.6814   26326465.4814
     -1383.0164
  -9414975.31249  -7318417.41047  26783819.0714   26783816.0714
      2613.1724
  -8550177.35649  -6642916.79147  26448576.1574   26448573.4074
     -3180.7814
  -4279126.18649  -3317008.03647  27431344.4464   27431340.8094
     -2989.3124
  -8770295.08349  -6815511.49247  26885372.4854   26885366.4544
      2532.6414
 -15529325.38449 -12080925.54547  25189962.1264   25189958.9704
     -1791.7344
 -16382004.67249 -12746951.72948  25323256.5564   25323252.2124
       -64.9224
  -5679152.31149  -4407679.63147  27516421.8604   27516419.2904
      3002.9694
 07  4 23  0 48 45.0130000  0 11G 1G12G 2G 4G 6G 5G20G23G30G31G 7
 -10833668.12449  -8423601.98447  26334470.0324   26334467.7244
     -2418.2194
  -5824753.66749  -4520111.08147  27106820.0014   27106816.0444
     -3335.6564
 -11829470.21549  -9199588.80147  26260291.5634   26260286.5324
      1611.1884
  -9779080.39949  -7602969.89647  26330430.6344   26330428.3454
     -1393.1564
  -9454125.32849  -7348923.89747  26776368.8764   26776365.8064
      2606.6414
  -8502415.47149  -6605699.73747  26457665.1964   26457661.9424
     -3187.6094
  -4234232.86549  -3282026.23047  27439887.3684   27439883.6184
     -2996.4224
  -8808228.09749  -6845069.67747  26878154.2674   26878148.0754
      2524.8914
 -15502374.39749 -12059924.78548  25195091.1494   25195087.3024
     -1801.8124
 -16380955.88949 -12746134.48048  25323456.2354   25323452.0914
       -75.0164
  -5724163.63149  -4442753.41447  27507856.5564   27507853.7164
      2998.4224
 07  4 23  0 49  0.0130000  0 11G 1G12G 2G 4G 6G 5G20G23G30G31G 7
 -10797336.48649  -8395291.61547  26341384.1734   26341380.9664
     -2426.1094
  -5774682.88449  -4481094.88747  27116348.9234   27116344.4974
     -3340.5624
 -11853569.23649  -9218367.23747  26255705.6344   26255700.4384
      1601.8134
  -9758108.63649  -7586628.26247  26334421.1814   26334419.2944
     -1403.0784
  -9493182.46149  -7379358.02647  26768936.9464   26768933.3644
      2600.6724
  -8454556.06949  -6568406.71247  26466772.3924   26466769.1734
     -3193.8124
  -4189236.03149  -3246963.76247  27448449.6654   27448446.3994
     -3003.2814
  -8846047.55849  -6874539.36947  26870957.4464   26870951.2124
      2517.5004
 -15475275.96049 -12038809.16148  25200247.7514   25200244.3064
     -1811.4224
 -16379759.88449 -12745202.52848  25323683.5174   25323678.7824
       -84.6564
  -5769109.32149  -4477776.03947  27499303.2744   27499300.3374
      2994.2034
 07  4 23  0 49 15.0130000  0 11G 1G12G 2G 4G 6G 5G20G23G30G31G 7
 -10760882.21449  -8366885.68147  26348320.5794   26348318.3804
     -2434.3594
  -5724534.58749  -4442018.29347  27125891.8064   27125888.2474
     -3345.8124
 -11877523.58749  -9237032.96447  26251146.6734   26251141.8644
      1592.0784
  -9736986.28549  -7570169.29347  26338440.9074   26338438.4114
     -1413.1874
  -9532146.19249  -7409719.35047  26761522.4624   26761518.2784
      2594.4384
  -8406599.27749  -6531037.79247  26475898.8994   26475895.3524
     -3200.3754
  -4144135.66549  -3211820.63847  27457032.1424   27457028.6574
     -3010.1094
  -8883752.77849  -6903920.04847  26863782.2514   26863776.6424
      2509.8594
 -15448029.73549 -12017578.31747  25205432.3374   25205429.1344
     -1821.3284
 -16378416.46249 -12744155.70448  25323939.0874   25323934.7594
       -94.5474
  -5813988.89549  -4512747.12047  27490763.5954   27490760.0244
      2989.7194
 07  4 23  0 49 30.0130000  0 11G 1G12G 2G 4G 6G 5G20G23G30G31G 7
 -10724305.42549  -8338384.28747  26355281.0484   26355278.8254
     -2442.5474
  -5674309.10149  -4402881.57947  27135449.6104   27135445.6614
     -3351.0474
 -11901332.60249  -9255585.45247  26246616.5484   26246611.2164
      1582.2974
  -9715713.54249  -7553593.13847  26342489.1024   26342486.5244
     -1423.1724
  -9571015.89249  -7440007.43847  26754126.0324   26754121.7244
      2588.1414
  -8358545.05049  -6493592.94047  26485042.7204   26485039.2354
     -3206.8914
  -4098931.94249  -3176597.00247  27465633.6884   27465630.7594
     -3017.0474
  -8921343.38949  -6933211.41247  26856629.4154   26856622.7784
      2502.1564
 -15420635.94249 -11996232.49447  25210645.1964   25210642.0324
     -1831.2194
 -16376925.11249 -12742993.58648  25324222.8214   25324218.1064
      -104.3754
  -5858801.75149  -4547666.22347  27482235.7434   27482232.4154
      2985.1884
 07  4 23  0 49 45.0130000  0 11G 1G12G 2G 4G 6G 5G20G23G30G31G 7
 -10687604.63949  -8309786.25347  26362264.8454   26362262.2244
     -2450.8594
  -5624004.64649  -4363683.28847  27145021.8684   27145018.3454
     -3356.2814
 -11924994.23349  -9274023.08747  26242113.6884   26242109.2274
      1572.5164
  -9694288.52349  -7536898.32847  26346565.6184   26346563.8064
     -1433.3914
  -9609789.52049  -7470220.61747  26746747.3524   26746743.6424
      2581.5634
  -8310392.01949  -6456071.11347  26494206.2904   26494203.3454
     -3213.5004
  -4053623.34549  -3141291.59347  27474255.5874   27474253.1814
     -3024.0164
  -8958817.35549  -6962411.87647  26849498.0244   26849491.9854
      2494.3754
 -15393092.98149 -11974770.42047  25215886.1024   25215882.6654
     -1841.2034
 -16375284.28349 -12741715.00548  25324534.7904   25324531.0564
      -114.4694
  -5903545.98949  -4582531.85847  27473721.1024   27473717.7124
      2980.6414
 07  4 23  0 50  0.0130000  0 11G 1G12G 2G 4G 6G 5G20G23G30G31G 7
 -10650780.32449  -8281091.99647  26369272.4774   26369269.7554
     -2459.1414
  -5573621.98149  -4324424.10047  27154609.5954   27154606.0404
     -3361.4844
 -11948508.61449  -9292345.97647  26237639.2434   26237634.2984
      1562.6254
  -9672711.68649  -7520085.23247  26350672.1734   26350669.7004
     -1443.5474
  -9648467.09449  -7500358.99047  26739387.2744   26739383.6224
      2575.2664
  -8262140.68749  -6418472.67347  26503387.9154   26503384.4624
     -3220.1564
  -4008210.43949  -3105904.89847  27482897.3924   27482894.5014
     -3031.0624
  -8996174.40849  -6991521.26147  26842388.9704   26842383.2554
      2486.4844
 -15365401.28049 -11953192.47247  25221155.7984   25221152.4074
     -1851.1094
 -16373494.24249 -12740320.16748  25324875.4934   25324871.3414
      -124.3444
  -5948221.45949  -4617343.91447  27465219.2354   27465216.3844
      2976.0314
 07  4 23  0 50 15.0130000  0 11G 1G12G 2G 4G 6G 5G20G23G30G31G 7
 -10613832.79449  -8252301.70447  26376303.2904   26376300.4464
     -2467.2814
  -5523161.41849  -4285104.20747  27164211.8524   27164207.9074
     -3366.6414
 -11971875.46749  -9310553.91647  26233192.4704   26233187.6104
      1552.8594
  -9650983.27449  -7503153.99447  26354806.7984   26354804.6024
     -1453.5314
  -9687048.42149  -7530422.34247  26732045.5014   26732041.5994
      2568.8444
  -8213791.50849  -6380798.00447  26512588.8214   26512585.2904
     -3226.5004
  -3962693.72749  -3070437.37047  27491558.9774   27491556.0634
     -3037.8444
  -9033414.28649  -7020539.32647  26835301.8764   26835296.5484
      2478.7344
 -15337561.20249 -11931498.89047  25226453.7674   25226450.6614
     -1860.9374
 -16371555.01049 -12738809.07648  25325244.8524   25325240.5444
      -134.2504
  -5992827.86449  -4652102.10147  27456730.9074   27456728.2164
      2971.4384
 07  4 23  0 50 30.0130000  0 11G 1G12G 2G 4G 6G 5G20G23G30G31G 7
 -10576763.07549  -8223416.22847  26383357.4934   26383354.6654
     -2475.3754
  -5472623.90749  -4245724.32747  27173828.3924   27173824.1384
     -3371.7504
 -11995095.28149  -9328647.28247  26228774.2124   26228769.3414
      1543.0314
  -9629104.28549  -7486105.44747  26358970.0404   26358967.8844
     -1463.5944
  -9725533.82849  -7560410.98947  26724721.9154   26724718.5054
      2562.4384
  -8165345.43249  -6343047.84147  26521807.0174   26521804.8174
     -3232.9694
  -3917074.21949  -3034889.71747  27500240.1104   27500237.1064
     -3044.7974
  -9070537.38149  -7049466.39547  26828237.7984   26828232.0874
      2470.8444
 -15309573.67749 -11909690.42247  25231779.2824   25231776.3724
     -1870.8124
 -16369467.21549 -12737182.22148  25325642.3604   25325638.0174
      -144.1724
  -6037365.82249  -4686807.00147  27448256.1884   27448253.2084
      2966.8914
 07  4 23  0 50 45.0130000  0 11G 1G12G 2G 4G 6G 5G20G23G30G31G 7
 -10539570.39849  -8194434.92647  26390435.1964   26390432.2634
     -2483.6724
  -5422008.85649  -4206284.01547  27183460.7204   27183456.0794
     -3376.9224
 -12018166.93349  -9346625.21647  26224383.3924   26224379.0134
      1533.1254
  -9607073.77349  -7468938.81547  26363162.9774   26363160.4464
     -1473.7504
  -9763922.19049  -7590323.99447  26717417.0484   26717413.4034
      2555.9694
  -8116801.86249  -6305221.72747  26531045.0874   26531041.9854
     -3239.5624
  -3871351.34049  -2999261.52347  27508941.0014   27508937.6534
     -3051.7034
  -9107542.45649  -7078301.47447  26821196.5634   26821190.2864
      2463.0634
 -15281437.97049 -11887766.47847  25237133.5404   25237130.8924
     -1880.7034
 -16367229.91549 -12735438.85348  25326067.7674   25326063.4314
      -154.1724
  -6081834.06849  -4721457.58647  27439793.8994   27439791.3954
      2962.0944
 07  4 23  0 51  0.0130000  0 11G 1G12G 2G 4G 6G 5G20G23G30G31G 7
 -10502255.30549  -8165358.23347  26397535.5954   26397533.3024
     -2491.7974
  -5371316.64949  -4166783.57647  27193106.6184   27193102.5834
     -3381.9534
 -12041090.39449  -9364487.63847  26220021.5794   26220016.8924
      1523.4224
  -9584892.30549  -7451654.56547  26367383.7904   26367381.7124
     -1483.7344
  -9802213.48649  -7620161.36547  26710130.1884   26710126.7354
      2549.4844
  -8068161.29049  -6267319.95547  26540301.0714   26540298.3254
     -3245.9374
  -3825525.76249  -2963553.32147  27517661.9234   27517658.6534
     -3058.4064
  -9144429.44249  -7107044.57847  26814176.7824   26814171.5014
      2455.2664
 -15253154.51049 -11865727.43547  25242515.5634   25242513.0094
     -1890.4374
 -16364843.37949 -12733579.18548  25326521.9934   25326518.1574
      -164.0944
  -6126232.52049  -4756053.76147  27431345.1264   27431342.4194
      2957.5474
 07  4 23  0 51 15.0130000  0 11G 1G12G 2G 4G 6G 5G20G23G30G31G 7
 -10464818.22649  -8136186.47147  26404660.0714   26404657.5014
     -2499.8124
  -5320547.94149  -4127223.54947  27202767.5404   27202763.6774
     -3387.2034
 -12063865.52449  -9382234.47847  26215687.8454   26215682.5324
      1513.3754
  -9562560.19749  -7434252.91447  26371633.1574   26371630.7204
     -1493.8444
  -9840407.51049  -7649922.94247  26702862.0174   26702859.2124
      2543.0784
  -8019424.20449  -6229343.02147  26549575.3764   26549572.5524
     -3252.3594
  -3779597.79549  -2927765.30247  27526400.7904   27526398.1884
     -3065.3124
  -9181198.20149  -7135695.54847  26807179.6814   26807174.3254
      2447.3444
 -15224723.54649 -11843573.45447  25247925.9384   25247923.1064
     -1900.2504
 -16362307.79149 -12731603.39348  25327004.4074   25326999.9624
      -174.0624
  -6170561.05149  -4790595.44347  27422909.4704   27422906.4664
      2952.8754
 07  4 23  0 51 30.0130000  0 11G 1G12G 2G 4G 6G 5G20G23G30G31G 7
 -10427259.55649  -8106919.97747  26411807.3844   26411804.3174
     -2507.8754
  -5269703.04749  -4087604.17247  27212442.7904   27212439.1774
     -3392.2194
 -12086492.29449  -9399865.71647  26211382.2124   26211376.5364
      1503.4844
  -9540077.86149  -7416734.20747  26375911.7124   26375908.8414
     -1503.7974
  -9878504.09249  -7679608.59547  26695613.0484   26695609.6814
      2536.5944
  -7970591.08449  -6191291.23347  26558868.5324   26558865.0284
     -3258.7194
  -3733568.01749  -2891897.98247  27535160.0634   27535157.1454
     -3072.0004
  -9217848.50449  -7164254.19747  26800205.6184   26800199.7824
      2439.4224
 -15196145.60749 -11821304.92747  25253364.0714   25253361.0994
     -1910.0314
 -16359623.15649 -12729511.47248  25327515.2824   25327511.3294
      -183.9064
  -6214819.43649  -4825082.47847  27414487.8214   27414484.8884
      2948.1884
 07  4 23  0 51 45.0130000  0 11G 1G12G 2G 4G 6G 5G20G23G30G31G 7
 -10389578.25749  -8077557.93247  26418977.3924   26418975.0174
     -2516.0944
  -5218780.96049  -4047924.65247  27222133.0404   27222130.0364
     -3397.3444
 -12108969.12349  -9417380.10647  26207104.8994   26207099.5054
      1493.5634
  -9517443.94349  -7399097.36247  26380218.6814   26380215.9974
     -1513.8914
  -9916501.64349  -7709217.07347  26688382.5714   26688379.2004
      2529.9534
  -7921660.96849  -6153163.87647  26568179.3374   26568176.6844
     -3265.1874
  -3687435.46049  -2855950.51347  27543939.7124   27543936.0364
     -3078.8754
  -9254378.78149  -7192719.33047  26793254.1424   26793248.6344
      2431.4694
 -15167419.58749 -11798920.99847  25258830.4234   25258827.5364
     -1919.9694
 -16356788.21849 -12727302.41848  25328054.3844   25328050.0674
      -193.9224
  -6259006.22949  -4859513.71247  27406079.3214   27406076.0674
      2943.4064
 07  4 23  0 52  0.0130000  0 11G 1G12G 2G 4G 6G 5G20G23G30G31G 7
 -10351776.48249  -8048102.00847  26426171.1104   26426168.2704
     -2524.2194
  -5167783.79349  -4008186.59347  27231838.1814   27231834.0174
     -3402.3914
 -12131297.82249  -9434779.11147  26202855.7984   26202850.5914
      1483.5314
  -9494660.71349  -7381344.21847  26384554.0874   26384551.6614
     -1524.0004
  -9954401.86949  -7738749.70047  26681169.9544   26681166.9974
      2523.3914
  -7872635.94949  -6114962.54947  26577507.6964   26577505.0484
     -3271.5474
  -3641202.36449  -2819924.74546  27552737.4234   27552733.5174
     -3085.6254
  -9290790.54749  -7221092.14247  26786325.0244   26786319.9774
      2423.4224
 -15138547.55349 -11776423.31747  25264324.9774   25264321.2864
     -1929.7974
 -16353804.98449 -12724977.82248  25328622.3134   25328618.4584
      -203.9064
  -6303122.93349  -4893890.36947  27397683.9624   27397680.8954
      2938.6724
 07  4 23  0 52 15.0130000  0 11G 1G12G 2G 4G 6G 5G20G23G30G31G 7
 -10313852.64649  -8018550.96347  26433387.7124   26433385.2044
     -2532.1724
  -5116710.14849  -3968388.96647  27241557.1964   27241552.9704
     -3407.3594
 -12153476.28849  -9452061.07447  26198635.5244   26198630.3214
      1473.5474
  -9471726.32249  -7363473.22347  26388918.8134   26388915.5834
     -1533.8754
  -9992202.60549  -7768204.81347  26673976.6424   26673974.0484
      2516.7664
  -7823514.69449  -6076686.26547  26586856.0014   26586853.2864
     -3277.9064
  -3594867.04049  -2783819.31647  27561554.4934   27561551.3374
     -3092.2974
  -9327081.62149  -7249370.89447  26779418.6884   26779413.6574
      2415.4694
 -15109527.92149 -11753810.61947  25269847.2354   25269843.4744
     -1939.4224
 -16350671.44349 -12722536.10148  25329218.6814   25329214.2674
      -213.8124
  -6347167.56149  -4928210.85047  27389303.1654   27389299.3684
      2933.9064
 07  4 23  0 52 30.0130000  0 11G 1G12G 2G 4G 6G 5G20G23G30G31G 7
 -10275806.98449  -7988904.99047  26440627.0404   26440624.4974
     -2540.4374
  -5065560.19849  -3928531.89147  27251290.8454   27251287.7474
     -3412.5314
 -12175504.03949  -9469225.50547  26194443.3994   26194439.0834
      1463.5004
  -9448641.29849  -7345484.88747  26393311.8064   26393308.6344
     -1543.9534
 -10029903.64449  -7797582.25247  26666802.4704   26666798.7744
      2509.9844
  -7774297.36649  -6038335.08647  26596221.6964   26596218.2984
     -3284.4224
  -3548430.09449  -2747634.67447  27570390.5244   27570387.4274
     -3099.2504
  -9363251.80049  -7277555.46347  26772536.0094   26772530.6064
      2407.3134
 -15080360.97249 -11731083.14347  25275397.1574   25275394.0364
     -1949.3594
 -16347387.61049 -12719977.26048  25329843.7044   25329839.2514
      -223.9224
  -6391139.70949  -4962474.87147  27380935.3924   27380931.6884
      2929.0634
 07  4 23  0 52 45.0130000  0 11G 1G12G 2G 4G 6G 5G20G23G30G31G 7
 -10237640.49149  -7959164.87547  26447890.5794   26447887.5364
     -2548.4844
  -5014334.84549  -3888616.05547  27261038.6654   27261035.2204
     -3417.5314
 -12197381.60849  -9486272.93947  26190280.5634   26190275.0054
      1453.5004
  -9425406.25349  -7327379.65047  26397733.2674   26397730.4034
     -1554.0004
 -10067505.26549  -7826882.20247  26659646.9774   26659643.5874
      2503.5164
  -7724984.96649  -5999909.85847  26605605.4704   26605602.6224
     -3290.6414
  -3501892.40949  -2711371.53847  27579247.5954   27579242.6304
     -3105.8284
  -9399301.21949  -7305645.91047  26765676.4934   26765670.9974
      2399.3594
 -15051047.28649 -11708241.31547  25280975.6264   25280972.4934
     -1959.0944
 -16343954.09149 -12717301.80448  25330496.8454   25330492.7474
      -233.8754
  -6435039.67049  -4996682.61447  27372581.1344   27372577.7434
      2924.2664
 07  4 23  0 53  0.0130000  0 11G 1G12G 2G 4G 6G 5G20G23G30G31G 7
 -10199354.15949  -7929331.36247  26455176.0324   26455173.1494
     -2556.4224
  -4963035.19849  -3848642.30847  27270800.4854   27270796.8174
     -3422.3914
 -12219109.51849  -9503203.77847  26186145.6494   26186141.0564
      1443.5784
  -9402021.95549  -7309158.11847  26402183.1964   26402180.3524
     -1563.9224
 -10105007.89849  -7856105.04447  26652511.0634   26652507.5134
      2496.8914
  -7675578.54649  -5961411.38947  26615007.2354   26615004.0524
     -3296.9534
  -3455255.09349  -2675030.79147  27588122.7594   27588118.2514
     -3112.4064
  -9435230.31549  -7333642.58847  26758839.2824   26758833.7554
      2391.2194
 -15021587.96649 -11685285.98947  25286581.0484   25286578.4424
     -1968.7974
 -16340371.82049 -12714510.48248  25331178.5794   25331174.8844
      -243.7974
  -6478867.94849  -5030834.50147  27364240.4774   27364237.8094
      2919.4224
 07  4 23  0 53 15.0130000  0 11G 1G12G 2G 4G 6G 5G20G23G30G31G 7
 -10160948.23149  -7899404.65047  26462484.6574   26462481.6104
     -2564.5004
  -4911661.51249  -3808610.85347  27280576.3524   27280573.0014
     -3427.3754
 -12240687.61349  -9520017.92947  26182039.5954   26182034.6924
      1433.4694
  -9378488.85149  -7290820.63647  26406661.3524   26406658.2204
     -1573.9224
 -10142411.35749  -7885250.63047  26645392.9314   26645389.7204
      2490.2034
  -7626078.37249  -5922839.80447  26624426.8454   26624423.3094
     -3303.1254
  -3408518.46149  -2638612.63747  27597015.4704   27597011.6224
     -3119.1874
  -9471038.90049  -7361545.38247  26752025.1494   26752020.3454
      2383.2344
 -14991983.55349 -11662217.63947  25292214.9314   25292211.9664
     -1978.5474
 -16336640.54149 -12711602.98848  25331888.8214   25331884.5914
      -253.7664
  -6522624.32849  -5064930.37947  27355913.9774   27355910.9814
      2914.5784
 07  4 23  0 53 30.0130000  0 11G 1G12G 2G 4G 6G 5G20G23G30G31G 7
 -10122424.12649  -7869385.86947  26469815.8374   26469812.5174
     -2572.2034
  -4860215.15849  -3768522.80347  27290366.2204   27290362.0484
     -3432.1564
 -12262116.59449  -9536715.79147  26177962.1734   26177956.5054
      1423.5944
  -9354808.22049  -7272368.19047  26411167.3604   26411164.8094
     -1583.7194
 -10179716.53849  -7914319.61947  26638293.0404   26638290.6494
      2483.7344
  -7576485.96649  -5884196.36847  26633863.7904   26633860.6064
     -3309.1874
  -3361684.05749  -2602118.31847  27605927.2434   27605923.2594
     -3125.5784
  -9506727.65449  -7389354.78747  26745233.6574   26745228.4344
      2375.1564
 -14962235.24649 -11639037.12747  25297876.0484   25297873.0794
     -1988.0474
 -16332761.50149 -12708580.38048  25332626.7744   25332622.6964
      -263.5164
  -6566309.62949  -5098970.83947  27347601.3524   27347597.8254
      2909.8444
 07  4 23  0 53 45.0130000  0 11G 1G12G 2G 4G 6G 5G20G23G30G31G 7
 -10083781.12049  -7839274.42047  26477169.2904   26477166.0834
     -2580.1254
  -4808695.34949  -3728377.48547  27300170.1654   27300166.0324
     -3437.2814
 -12283395.38849  -9553296.63247  26173912.8064   26173907.5364
      1413.3754
  -9330979.14549  -7253800.07647  26415701.5564   26415699.3254
     -1593.6414
 -10216921.91549  -7943310.83647  26631214.0174   26631210.9704
      2477.0004
  -7526800.59249  -5845480.51747  26643318.3844   26643315.8374
     -3315.6094
  -3314751.12549  -2565547.22446  27614858.9934   27614854.1144
     -3132.2194
  -9542295.27049  -7417069.80147  26738465.5094   26738460.5134
      2366.9694
 -14932342.24849 -11615743.90747  25303564.3374   25303561.0594
     -1997.7504
 -16328733.55049 -12705441.67348  25333393.0634   25333388.7704
      -273.5784
  -6609922.55849  -5132954.91547  27339302.4154   27339299.3174
      2905.0314
 07  4 23  0 54  0.0130000  0 11G 1G12G 2G 4G 6G 5G20G23G30G31G 7
 -10045019.22149  -7809070.36247  26484545.3374   26484542.2784
     -2588.1564
  -4757102.31149  -3688175.15547  27309987.7354   27309983.9194
     -3442.0474
 -12304523.54949  -9569760.12947  26169892.2204   26169887.0204
      1403.4694
  -9307001.69249  -7235116.37447  26420264.3294   26420262.0994
     -1603.5164
 -10254027.06149  -7972223.92747  26624152.7984   26624149.9544
      2470.1564
  -7477022.29049  -5806692.23447  26652791.1424   26652788.5794
     -3321.6874
  -3267719.73849  -2528899.39247  27623809.0794   27623804.7434
     -3138.7344
  -9577741.27049  -7444690.04647  26731720.2514   26731715.1844
      2358.8594
 -14902304.35649 -11592337.79047  25309280.3684   25309277.0444
     -2007.3754
 -16324556.54849 -12702186.85548  25334188.2594   25334184.2164
      -283.5784
  -6653462.57549  -5166882.18747  27331016.1814   27331013.0674
      2900.1724
 07  4 23  0 54 15.0130000  0 11G 1G12G 2G 4G 6G 5G20G23G30G31G 7
 -10006137.87449  -7778773.22447  26491943.9934   26491941.1964
     -2596.0944
  -4705435.35849  -3647915.19047  27319819.8294   27319815.5014
     -3446.9844
 -12325499.87349  -9586105.28747  26165900.0794   26165895.3494
      1393.3914
  -9282875.08349  -7216316.43447  26424855.8294   26424853.4464
     -1613.3124
 -10291031.05449  -8001058.21847  26617111.1024   26617107.4504
      2463.6254
  -7427150.57149  -5767831.17147  26662280.7674   26662278.7394
     -3327.9224
  -3220589.38049  -2492174.46546  27632776.9154   27632773.1264
     -3145.2344
  -9613064.44049  -7472214.59247  26724998.3374   26724992.4744
      2350.7814
 -14872120.98349 -11568818.26747  25315023.8064   25315020.8994
     -2016.9844
 -16320229.74849 -12698815.32748  25335011.6964   25335007.3724
      -293.3754
  -6696928.51849  -5200751.71047  27322745.6344   27322742.3884
      2895.4064
 07  4 23  0 54 30.0130000  0 11G 1G12G 2G 4G 6G 5G20G23G30G31G 7
  -9967137.72349  -7748383.50747  26499365.7824   26499362.0674
     -2604.0004
  -4653695.35149  -3607598.29747  27329665.7674   27329660.9344
     -3451.7664
 -12346324.74449  -9602332.44047  26161937.0564   26161932.4974
      1383.2194
  -9258599.95749  -7197400.75347  26429475.0794   26429472.6064
     -1623.2034
 -10327933.76449  -8029813.57347  26610089.0634   26610085.7744
      2456.7974
  -7377186.06949  -5728897.79047  26671788.7904   26671785.7164
     -3334.0314
  -3173360.82949  -2455373.00046  27641764.6024   27641760.4504
     -3151.8594
  -9648264.90749  -7499643.51847  26718299.7594   26718294.9034
      2342.6564
 -14841792.77249 -11545185.89947  25320795.4704   25320792.1614
     -2026.7664
 -16315753.48649 -12695327.34348  25335863.5874   25335859.2244
      -303.4374
  -6740320.55349  -5234563.67547  27314488.2274   27314485.5634
      2890.2664
 07  4 23  0 54 45.0130000  0 11G 1G12G 2G 4G 6G 5G20G23G30G31G 7
  -9928019.24149  -7717901.56247  26506809.1104   26506806.3764
     -2611.8284
  -4601882.50649  -3567224.65347  27339524.8524   27339520.4664
     -3456.5624
 -12366997.92149  -9618441.40447  26158003.6734   26157998.4624
      1373.2974
  -9234176.79149  -7178369.75047  26434122.7984   26434120.2314
     -1633.1564
 -10364735.30949  -8058490.08347  26603086.3374   26603082.3644
      2450.1564
  -7327129.48749  -5689892.68547  26681314.5954   26681312.0094
     -3340.0474
  -3126034.73849  -2418495.55946  27650770.3454   27650766.1814
     -3158.3444
  -9683342.60449  -7526976.79647  26711624.6814   26711619.8134
      2334.4844
 -14811320.12949 -11521440.96247  25326594.0634   25326591.1734
     -2036.2504
 -16311127.94849 -12691722.99548  25336743.8294   25336739.3334
      -313.2344
  -6783638.58249  -5268317.94547  27306245.2204   27306241.8294
      2885.4064
 07  4 23  0 55  0.0130000  0 11G 1G12G 2G 4G 6G 5G20G23G30G31G 7
  -9888782.53049  -7687327.50247  26514276.5094   26514272.9154
     -2619.7814
  -4549997.06349  -3526794.45547  27349399.2274   27349394.5674
     -3461.4374
 -12387519.06849  -9634431.88347  26154098.3924   26154092.7944
      1362.9844
  -9209605.59849  -7159223.37847  26438798.0484   26438796.4854
     -1643.0784
 -10401435.10849  -8087087.32147  26596102.3214   26596098.9504
      2443.2664
  -7276980.73649  -5650815.79047  26690858.4384   26690854.7824
     -3346.3594
  -3078611.26749  -2381542.23747  27659794.4854   27659790.8094
     -3164.8284
  -9718296.95249  -7554213.92947  26704973.2204   26704968.2634
      2326.1254
 -14780703.10649 -11497583.52347  25332420.5244   25332417.3214
     -2046.0314
 -16306352.95949 -12688002.20448  25337652.3454   25337648.3174
      -323.3284
  -6826882.13049  -5302014.19747  27298016.1264   27298012.9314
      2880.4224
 07  4 23  0 55 15.0130000  0 11G 1G12G 2G 4G 6G 5G20G23G30G31G 7
  -9849427.33749  -7656661.11747  26521764.8214   26521761.9034
     -2627.5474
  -4498038.83049  -3486307.53947  27359286.3374   27359282.3804
     -3466.2814
 -12407887.51049  -9650303.39847  26150222.5014   26150217.5874
      1352.8444
  -9184885.97349  -7139961.35547  26443502.6574   26443500.1304
     -1652.8594
 -10438032.40949  -8115604.69147  26589137.6734   26589134.1104
      2436.3914
  -7226739.73049  -5611666.94847  26700418.7434   26700415.1884
     -3352.5164
  -3031090.10349  -2344512.74447  27668837.2044   27668833.8214
     -3171.3444
  -9753127.01949  -7581354.23347  26698344.7674   26698339.4194
      2317.8284
 -14749941.64349 -11473613.55547  25338273.7594   25338270.9154
     -2055.5314
 -16301427.99849 -12684164.56448  25338589.7044   25338585.4894
      -333.2974
  -6870050.32149  -5335651.70847  27289801.4934   27289798.5134
      2875.4384
 07  4 23  0 55 30.0130000  0 11G 1G12G 2G 4G 6G 5G20G23G30G31G 7
  -9809955.37249  -7625903.73147  26529276.0094   26529273.0634
     -2635.4064
  -4446009.51149  -3445765.21547  27369186.4384   27369183.0994
     -3471.1254
 -12428104.42049  -9666056.82547  26146375.2824   26146369.3764
      1342.7034
  -9160019.58249  -7120584.98847  26448234.3214   26448232.2434
     -1662.7344
 -10474528.40449  -8144043.12447  26582193.1104   26582190.1064
      2429.6884
  -7176408.22849  -5572447.59847  26709996.2594   26709993.3524
     -3358.4694
  -2983473.25249  -2307408.76247  27677899.3294   27677895.6814
     -3177.6094
  -9787833.97449  -7608398.59047  26691740.9704   26691735.7904
      2309.6254
 -14719037.31049 -11449532.26447  25344155.0484   25344151.6924
     -2065.0784
 -16296354.51249 -12680211.19648  25339555.2354   25339550.6104
      -343.2034
  -6913144.47549  -5369231.58647  27281600.8064   27281597.6534
      2870.3914
 07  4 23  0 55 45.0130000  0 11G 1G12G 2G 4G 6G 5G20G23G30G31G 7
  -9770366.29849  -7595055.11147  26536810.2594   26536806.9384
     -2643.2344
  -4393908.91349  -3405167.37547  27379102.0094   27379097.7354
     -3475.8754
 -12448168.89749  -9681691.49147  26142557.4774   26142551.8454
      1332.4064
  -9135006.10549  -7101094.01247  26452994.3134   26452992.8064
     -1672.4844
 -10510922.18749  -8172401.92447  26575267.4544   26575263.8604
      2422.7344
  -7125985.85549  -5533157.44447  26719591.5874   26719588.4704
     -3364.6254
  -2935760.26649  -2270229.81146  27686978.8764   27686975.1384
     -3184.1414
  -9822416.96749  -7635346.36947  26685159.9704   26685154.4934
      2301.2664
 -14687989.60249 -11425339.23447  25350063.1184   25350059.7044
     -2074.7814
 -16291131.81849 -12676141.52248  25340548.8844   25340544.4424
      -353.1874
  -6956163.68649  -5402753.02947  27273414.6184   27273411.5714
      2865.3594
 07  4 23  0 56  0.0130000  0 11G 1G12G 2G 4G 6G 5G20G23G30G31G 7
  -9730660.92649  -7564115.85947  26544365.5404   26544362.1104
     -2650.8914
  -4341737.71349  -3364514.50847  27389029.2204   27389025.9424
     -3480.4374
 -12468081.43849  -9697207.77447  26138767.8994   26138762.2944
      1322.3284
  -9109846.22749  -7081488.93247  26457782.1344   26457779.3174
     -1682.2034
 -10547213.98149  -8200681.23647  26568361.4624   26568358.4584
      2416.0634
  -7075473.55649  -5493797.23047  26729203.5094   26729200.7864
     -3370.5164
  -2887951.88549  -2232976.55146  27696075.5714   27696072.4464
     -3190.3444
  -9856876.28149  -7662197.75547  26678602.3684   26678596.6024
      2293.0634
 -14656799.48649 -11401035.23147  25355998.5094   25355995.2904
     -2084.0624
 -16285760.62149 -12671956.16448  25341570.9544   25341566.7044
      -363.0784
  -6999108.20149  -5436216.29947  27265241.9854   27265239.2984
      2860.4224
 07  4 23  0 56 15.0130000  0 11G 1G12G 2G 4G 6G 5G20G23G30G31G 7
  -9690838.88749  -7533085.68747  26551943.3454   26551940.4744
     -2658.7664
  -4289495.69449  -3323806.44647  27398970.6184   27398966.9464
     -3485.2344
 -12487841.04549  -9712604.83947  26135007.8374   26135002.6494
      1312.2034
  -9084539.50449  -7061769.45047  26462597.8134   26462594.9424
     -1692.1094
 -10583403.01949  -8228880.49847  26561474.9384   26561471.7354
      2409.0314
  -7024871.02349  -5454366.68947  26738832.8454   26738830.8524
     -3376.5944
  -2840047.94049  -2195648.82146  27705191.6964   27705188.4584
     -3196.7344
  -9891210.92749  -7688952.04447  26672068.8214   26672063.1964
      2284.7504
 -14625466.37149 -11376619.81247  25361960.8524   25361957.5714
     -2093.7034
 -16280240.35149 -12667654.64648  25342621.4854   25342617.3494
      -373.0944
  -7041977.07549  -5469620.59447  27257084.6494   27257081.3994
      2855.2344
 07  4 23  0 56 30.0130000  0 11G 1G12G 2G 4G 6G 5G20G23G30G31G 7
  -9650900.73249  -7501965.06347  26559543.0404   26559539.8254
     -2666.3594
  -4237183.13449  -3283043.45447  27408925.4074   27408921.3134
     -3489.8594
 -12507447.79449  -9727882.79947  26131276.9384   26131271.5954
      1302.0474
  -9059086.32049  -7041935.81147  26467441.4074   26467438.8374
     -1701.7504
 -10619489.11749  -8256999.52747  26554607.6654   26554604.1654
      2402.3284
  -6974178.69949  -5414866.18947  26748478.6024   26748476.4854
     -3382.5314
  -2792049.00749  -2158247.06046  27714325.8214   27714322.1104
     -3203.1414
  -9925420.73449  -7715609.02147  26665558.6424   26665553.5134
      2276.4694
 -14593990.75849 -11352093.33547  25367950.6964   25367947.4544
     -2103.0944
 -16274571.14449 -12663237.09248  25343700.3294   25343695.7744
      -382.9224
  -7084770.23349  -5502965.89747  27248941.0014   27248938.7394
      2850.3444
 07  4 23  0 56 45.0130000  0 11G 1G12G 2G 4G 6G 5G20G23G30G31G 7
  -9610847.02149  -7470754.36347  26567165.3524   26567161.9154
     -2674.1724
  -4184800.85549  -3242226.09947  27418893.5794   27418889.4344
     -3494.5164
 -12526901.79649  -9743041.76447  26127574.9934   26127569.6024
      1291.7194
  -9033487.33049  -7021988.58547  26472312.5174   26472310.5444
     -1711.6254
 -10655472.39949  -8285038.44647  26547760.8134   26547757.3414
      2395.4064
  -6923397.32449  -5375296.30347  26758142.6494   26758139.9194
     -3388.4534
  -2743955.81949  -2120771.84646  27723476.9464   27723474.2274
     -3209.3914
  -9959505.78049  -7742168.78947  26659072.3064   26659066.7004
      2268.1564
 -14562373.43349 -11327456.44147  25373967.2274   25373963.6924
     -2112.6414
 -16268753.33149 -12658703.74248  25344807.1654   25344803.1304
      -392.8284
  -7127487.62149  -5536252.17547  27240812.3294   27240809.4154
      2845.2974
 07  4 23  0 57  0.0130000  0 11G 1G12G 2G 4G 6G 5G20G23G30G31G 7
  -9570677.57949  -7439453.50247  26574809.2904   26574806.2474
     -2681.7504
  -4132348.45749  -3201354.11647  27428875.0404   27428871.1844
     -3499.0314
 -12546202.36349  -9758081.17147  26123901.8134   26123896.2634
      1281.5944
  -9007742.15249  -7001927.41547  26477212.0244   26477209.1844
     -1721.2194
 -10691352.02949  -8312996.59447  26540932.7274   26540929.7824
      2388.5164
  -6872526.59749  -5335656.79047  26767822.7674   26767820.7314
     -3394.3594
  -2695768.18149  -2083223.09547  27732646.7904   27732644.0174
     -3215.6254
  -9993465.23549  -7768630.69647  26652610.2124   26652604.7784
      2259.7974
 -14530614.07449 -11302708.89447  25380010.4464   25380007.4194
     -2121.9694
 -16262786.42649 -12654054.22448  25345942.6104   25345938.5954
      -402.7344
  -7170128.59149  -5569478.90647  27232698.2274   27232694.5754
      2840.2344
 07  4 23  0 57 15.0130000  0 11G 1G12G 2G 4G 6G 5G20G23G30G31G 7
  -9530393.50049  -7408063.31447  26582475.0484   26582472.0634
     -2689.3914
  -4079827.18149  -3160428.45947  27438869.6184   27438865.3334
     -3503.7034
 -12565350.29749  -9773001.65947  26120258.4384   26120253.3214
      1271.3914
  -8981851.83849  -6981753.16147  26482137.9464   26482135.8924
     -1730.8594
 -10727128.66549  -8340874.48447  26534124.4854   26534122.0174
      2381.6724
  -6821567.87849  -5295948.71747  26777520.0634   26777516.6064
     -3400.2504
  -2647487.27049  -2045601.63246  27741834.4624   27741831.5564
     -3221.8284
 -10027299.73249  -7794995.25347  26646171.7674   26646166.1024
      2251.4534
 -14498713.59149 -11277851.36747  25386081.1734   25386077.6264
     -2131.3284
 -16256671.30049 -12649289.17748  25347106.3134   25347102.7084
      -412.6094
  -7212693.73449  -5602646.54647  27224598.3374   27224594.9854
      2835.2194
 07  4 23  0 57 30.0130000  0 11G 1G12G 2G 4G 6G 5G20G23G30G31G 7
  -9489995.44349  -7376584.32347  26590162.6184   26590159.6344
     -2696.9064
  -4027237.57749  -3119449.52047  27448876.5634   27448872.8174
     -3508.2664
 -12584345.47549  -9787803.09347  26116643.2514   26116638.2594
      1261.2194
  -8955816.90749  -6961466.21047  26487092.7044   26487090.3494
     -1740.5944
 -10762802.29149  -8368672.08147  26527335.8454   26527333.1654
      2374.8134
  -6770521.60849  -5256172.40447  26787234.6264   26787230.8414
     -3406.0624
  -2599113.81849  -2007908.03346  27751040.1494   27751036.3064
     -3228.1414
 -10061009.24949  -7821262.40247  26639757.1264   26639751.6304
      2243.1094
 -14466672.62749 -11252884.38047  25392177.8844   25392174.6734
     -2140.7814
 -16250408.39049 -12644408.98548  25348298.3064   25348293.7904
      -422.5164
  -7255182.99249  -5635755.05747  27216512.8994   27216509.7124
      2830.1094
 07  4 23  0 57 45.0130000  0 12G 1G12G 2G 4G 6G 5G20G23G13G30G31G 7
  -9449482.33849  -7345015.65547  26597871.5634   26597868.5174
     -2704.5004
  -3974578.68949  -3078416.61947  27458897.8924   27458893.1774
     -3512.7664
 -12603186.28749  -9802484.26447  26113058.2594   26113053.2004
      1250.9844
  -8929636.16749  -6941065.60047  26492074.8064   26492071.9544
     -1750.1564
 -10798371.28949  -8396388.19447  26520567.6884   26520564.5404
      2367.8914
  -6719386.94049  -5216327.20147  26796964.9074   26796960.9744
     -3411.8444
  -2550646.93949  -1970141.65846  27760263.0244   27760260.2004
     -3234.1254
 -10094592.10049  -7847430.84547  26633366.6964   26633360.4814
      2234.8134
    -26497.247 9                  28534392.056
      3591.219
 -14434490.26149 -11227807.25547  25398302.2594   25398298.6694
     -2150.0474
 -16243996.40049 -12639412.62748  25349518.2744   25349514.3994
      -432.3124
  -7297594.81749  -5668803.22947  27208442.6184   27208439.1264
      2825.0004
 07  4 23  0 58  0.0130000  0 12G 1G12G 2G 4G 6G 5G20G23G13G30G31G 7
  -9408855.63049  -7313358.49147  26605603.0954   26605600.1184
     -2712.0944
  -3921852.07549  -3037330.96247  27468930.8764   27468926.3884
     -3517.2194
 -12621873.78149  -9817045.94347  26109502.3604   26109496.9034
      1240.8914
  -8903311.25949  -6920552.67747  26497083.8524   26497082.0404
     -1759.6414
 -10833836.65649  -8424023.53547  26513818.5174   26513815.4464
      2361.0474
  -6668165.23549  -5176414.19847  26806711.5954   26806708.3064
     -3417.5624
  -2502088.04949  -1932303.58247  27769504.0404   27769500.4894
     -3240.2974
 -10128049.09849  -7873501.23647  26627000.1884   26626994.5874
      2226.4064
    -80335.04049    -44065.04546  28524147.3684   28524143.8524
      3587.3284
 -14402167.65649 -11202620.81147  25404452.8684   25404449.7274
     -2159.4064
 -16237436.39949 -12634300.93948  25350766.9384   25350762.9744
      -442.1414
  -7339930.17749  -5701791.79947  27200386.1654   27200382.8294
      2819.8754
 07  4 23  0 58 15.0130000  0 12G 1G12G 2G 4G 6G 5G20G23G13G30G31G 7
  -9368117.29849  -7281614.34247  26613354.9154   26613351.8564
     -2719.6414
  -3869059.69049  -2996194.06047  27478976.7274   27478972.7984
     -3521.6564
 -12640409.50749  -9831489.36247  26105974.9384   26105970.3334
      1230.6414
  -8876844.04649  -6899928.88347  26502120.9704   26502119.0524
     -1769.1564
 -10869199.89349  -8451579.27547  26507089.2274   26507086.1104
      2354.2034
  -6616858.48349  -5136434.89647  26816475.4074   26816471.9744
     -3423.3284
  -2453439.29149  -1894395.47746  27778760.9934   27778757.3374
     -3246.3284
 -10161381.72349  -7899474.71647  26620656.9234   26620651.5484
      2217.9534
   -134117.95949    -85973.79846  28513912.6424   28513909.6574
      3583.6724
 -14369706.81349 -11177326.65647  25410630.1264   25410626.5204
     -2168.7344
 -16230730.06449 -12629075.20948  25352042.7904   25352038.9274
      -452.0474
  -7382190.36949  -5734721.80747  27192344.0094   27192341.6534
      2814.7344
 07  4 23  0 58 30.0130000  0 12G 1G12G 2G 4G 6G 5G20G23G13G30G31G 7
  -9327265.06749  -7249781.42247  26621129.4624   26621126.0564
     -2727.0624
  -3816199.12749  -2955004.00947  27489036.1104   27489031.9934
     -3526.2344
 -12658790.74749  -9845812.41047  26102477.0634   26102471.7984
      1220.4384
  -8850232.18249  -6879192.40747  26507184.7514   26507182.5244
     -1778.8594
 -10904458.00249  -8479053.10047  26500379.6424   26500377.1454
      2347.2194
  -6565464.66849  -5096387.78247  26826254.7904   26826252.8604
     -3428.9694
  -2404698.26949  -1856415.45746  27788036.1104   27788032.9664
     -3252.2974
 -10194587.11449  -7925349.04247  26614338.0794   26614332.8414
      2209.5314
   -187843.23849   -127837.62046  28503688.9704   28503686.3884
      3580.0164
 -14337105.50349 -11151923.06347  25416833.9154   25416830.6734
     -2177.9374
 -16223874.92749 -12623733.53748  25353347.3764   25353343.2744
      -461.8124
  -7424372.65849  -5767591.16747  27184317.0014   27184313.9274
      2809.7664
 07  4 23  0 58 45.0130000  0 12G 1G12G 2G 4G 6G 5G20G23G13G30G31G 7
  -9286301.13449  -7217861.47047  26628924.0564   26628921.2084
     -2734.6874
  -3763272.58049  -2913762.55647  27499107.5484   27499104.3494
     -3530.5944
 -12677019.07949  -9860016.30047  26099008.5014   26099003.0174
      1210.0634
  -8823477.64449  -6858344.70447  26512276.2204   26512273.3374
     -1788.3754
 -10939612.71549  -8506446.39647  26493690.4934   26493687.0634
      2340.2504
  -6513985.81749  -5056274.43747  26836051.5874   26836048.5994
     -3434.8914
  -2355867.27549  -1818365.33746  27797327.6104   27797324.7554
     -3258.4224
 -10227666.80649  -7951125.42547  26608043.8994   26608038.3024
      2201.0474
   -241512.39949   -169657.68546  28493476.1814   28493472.4424
      3576.1094
 -14304365.84249 -11126411.63547  25423064.1024   25423060.6734
     -2187.2504
 -16216872.96249 -12618277.47148  25354679.7354   25354675.7674
      -471.6874
  -7466478.54349  -5800400.94547  27176304.6814   27176301.8414
      2804.5004
 07  4 23  0 59  0.0130000  0 12G 1G12G 2G 4G 6G 5G20G23G13G30G31G 7
  -9245224.01649  -7185853.32647  26636740.8374   26636737.8094
     -2742.3754
  -3710278.61249  -2872468.58147  27509192.4854   27509188.8724
     -3535.3124
 -12695092.63849  -9874099.58947  26095569.3604   26095563.6534
      1199.5634
  -8796578.85249  -6837384.62147  26517394.6734   26517392.6534
     -1798.1254
 -10974661.85849  -8533757.41147  26487020.7434   26487016.7674
      2332.9694
  -6462420.45749  -5016093.62947  26845863.2274   26845860.6494
     -3440.6094
  -2306944.90749  -1780244.04046  27806637.1104   27806634.5674
     -3264.5944
 -10260618.85849  -7976802.35847  26601772.6814   26601767.0914
      2192.4694
   -295123.25549   -211432.31546  28483275.1344   28483270.5364
      3571.9224
 -14271486.37649 -11100791.25547  25429321.1344   25429317.8254
     -2196.7344
 -16209722.38349 -12612705.60148  25356040.2204   25356036.3494
      -481.7974
  -7508506.12049  -5833149.72547  27168307.2744   27168303.9074
      2799.1254
 07  4 23  0 59 15.0130000  0 12G 1G12G 2G 4G 6G 5G20G23G13G30G31G 7
  -9204035.38549  -7153758.28747  26644579.2984   26644576.1424
     -2749.5944
  -3657219.00149  -2831123.43247  27519289.0954   27519285.2704
     -3539.4534
 -12713012.59149  -9888063.18447  26092158.8294   26092154.0674
      1189.6094
  -8769537.38449  -6816313.30247  26522541.0874   26522538.0954
     -1807.5474
 -11009606.79249  -8560987.21947  26480370.5714   26480367.6844
      2326.2344
  -6410770.39149  -4975846.82847  26855692.9234   26855689.5874
     -3446.1564
  -2257932.91649  -1742052.90746  27815964.3294   27815961.5594
     -3270.4844
 -10293444.26049  -8002380.60247  26595526.5714   26595520.9894
      2184.0784
   -348676.90449   -253162.44946  28473083.1964   28473079.7554
      3568.3444
 -14238468.72249 -11075063.22047  25435603.8214   25435600.3254
     -2205.7504
 -16202424.61249 -12607019.01848  25357429.0714   25357424.9274
      -491.4224
  -7550456.41849  -5865838.25847  27160324.2204   27160320.9074
      2794.0784
 07  4 23  0 59 30.0130000  0 12G 1G12G 2G 4G 6G 5G20G23G13G30G31G 7
  -9162736.07749  -7121577.01847  26652437.7354   26652434.9034
     -2757.0004
  -3604094.41649  -2789727.70547  27529398.1104   27529394.5014
     -3543.7814
 -12730779.30549  -9901907.37547  26088778.2204   26088772.8994
      1179.3594
  -8742354.24149  -6795131.61347  26527713.2204   26527711.1814
     -1816.9694
 -11044447.63449  -8588135.93647  26473740.7744   26473737.4464
      2319.3444
  -6359036.45849  -4935534.67947  26865536.7984   26865534.2004
     -3451.7034
  -2208832.38849  -1703792.77247  27825307.7824   27825304.9504
     -3276.2344
 -10326143.29849  -8027860.38447  26589304.1104   26589298.5324
      2175.6254
   -402173.60048   -294848.14546  28462902.6264   28462899.6614
      3564.5784
 -14205313.54049 -11049228.02547  25441912.8524   25441909.7084
     -2214.8914
 -16194980.24949 -12601218.22148  25358845.6104   25358841.8494
      -501.1254
  -7592329.70749  -5898466.80247  27152355.9384   27152352.5794
      2789.0164
 07  4 23  0 59 45.0130000  0 12G 1G12G 2G 4G 6G 5G20G23G13G30G31G 7
  -9121327.75249  -7089310.78547  26660317.7904   26660314.2824
     -2764.2504
  -3550906.60349  -2748282.65747  27539520.2204   27539515.8954
     -3548.0004
 -12748393.92449  -9915633.04047  26085426.1734   26085420.7514
      1169.2344
  -8715030.93349  -6773840.74147  26532912.8924   26532910.1534
     -1826.2974
 -11079185.53349  -8615204.41447  26467130.4384   26467127.6734
      2312.4534
  -6307220.32149  -4895158.48647  26875397.1574   26875394.7044
     -3457.0784
  -2159644.93649  -1665464.88946  27834668.0324   27834665.6454
     -3282.0944
 -10358717.00449  -8053242.50447  26583105.7904   26583100.1024
      2167.3284
   -455614.25949   -336490.08246  28452733.8214   28452730.0594
      3560.6564
 -14172022.49149 -11023286.94447  25448248.1104   25448245.2004
     -2224.0004
 -16187390.41149 -12595304.06548  25360289.8524   25360286.2554
      -510.8594
  -7634127.03749  -5931036.15947  27144401.7354   27144398.3954
      2783.9534
 07  4 23  1  0  0.0130000  0 12G 1G12G 2G 4G 6G 5G20G23G13G30G31G 7
  -9079808.99849  -7056958.50447  26668218.4074   26668215.6304
     -2771.6254
  -3497654.08649  -2706787.22747  27549653.6884   27549649.6424
     -3552.3124
 -12765854.45049  -9929238.64447  26082103.6184   26082098.3994
      1158.8284
  -8687566.01949  -6752439.53947  26538139.5244   26538136.9274
     -1835.7034
 -11113818.50649  -8642191.15047  26460540.1264   26460536.7784
      2305.3134
  -6255320.59549  -4854717.11447  26885273.2434   26885270.9384
     -3462.8284
  -2110369.07049  -1627068.13547  27844045.1884   27844042.9194
     -3288.0784
 -10391163.34549  -8078525.36147  26576931.6654   26576925.6774
      2158.7664
   -508996.83449   -378086.90246  28442574.5174   28442571.9894
      3556.9224
 -14138594.21049 -10997238.93047  25454609.2274   25454606.5134
     -2233.0944
 -16179653.78549 -12589275.52648  25361762.3924   25361757.8064
      -520.7034
  -7675846.51249  -5963544.84547  27136463.0014   27136459.3684
      2778.6094
 07  4 23  1  0 15.0130000  0 12G 1G12G 2G 4G 6G 5G20G23G13G30G31G 7
  -9038179.26349  -7024519.75447  26676140.2514   26676137.0284
     -2779.0944
  -3444336.37449  -2665240.96647  27559798.8844   27559795.3494
     -3556.7814
 -12783160.07849  -9942723.52147  26078810.4934   26078805.4814
      1148.2974
  -8659958.66049  -6730927.31447  26543392.5794   26543390.9384
     -1845.3284
 -11148345.43149  -8669095.25247  26453969.9384   26453966.7004
      2298.0634
  -6203336.88749  -4814210.37747  26895165.3604   26895162.1454
     -3468.5004
  -2061004.38449  -1588602.15246  27853438.6734   27853435.6144
     -3293.9844
 -10423481.19949  -8103708.08447  26570781.6264   26570775.7314
      2150.1094
   -562320.02849   -419637.42246  28432428.6494   28432424.6924
      3552.7664
 -14105027.99349 -10971083.45847  25460996.8604   25460993.8494
     -2242.5314
 -16171769.49649 -12583131.90848  25363262.7594   25363258.4624
      -530.6414
  -7717486.97749  -5995991.97247  27128539.5324   27128535.7824
      2773.2344
 07  4 23  1  0 30.0130000  0 12G 1G12G 2G 4G 6G 5G20G23G13G30G31G 7
  -8996437.71149  -6991993.85147  26684083.3294   26684079.9544
     -2786.3444
  -3390952.64749  -2623643.26847  27569958.4704   27569953.5634
     -3560.9694
 -12800309.35749  -9956086.56347  26075547.2904   26075541.7204
      1138.2194
  -8632208.23749  -6709303.59647  26548673.2984   26548671.5284
     -1854.6254
 -11182764.96349  -8695915.65647  26447419.3454   26447416.9194
      2291.0944
  -6151268.17249  -4773637.35347  26905073.7514   26905070.5674
     -3473.9224
  -2011550.09349  -1550066.34147  27862849.7824   27862846.5204
     -3299.8594
 -10455669.14749  -8128789.61947  26564656.5094   26564651.2354
      2141.6254
   -615582.35849   -461140.51646  28422293.3134   28422289.3174
      3548.9384
 -14071322.99049 -10944819.83247  25467410.3684   25467407.6614
     -2251.4374
 -16163736.48449 -12576872.41348  25364791.1024   25364787.0564
      -540.3284
  -7759047.14449  -6028376.57247  27120630.5014   27120627.4624
      2768.1724
 07  4 23  1  0 45.0130000  0 12G 1G12G 2G 4G 6G 5G20G23G13G30G31G 7
  -8954586.33949  -6959382.39147  26692047.5174   26692044.8884
     -2793.8124
  -3337504.86449  -2581995.63847  27580128.4544   27580124.6534
     -3565.4374
 -12817303.83949  -9969328.99747  26072313.1884   26072308.1574
      1127.7034
  -8604316.57649  -6687569.78847  26553981.0094   26553979.0284
     -1864.3594
 -11217078.62949  -8722653.57647  26440889.6344   26440887.1384
      2283.9064
  -6099116.65949  -4732999.84147  26914998.1734   26914995.4894
     -3479.6564
  -1962008.30249  -1511462.37146  27872277.4544   27872274.5594
     -3305.7974
 -10487728.57649  -8153770.98647  26558555.6654   26558550.1304
      2132.9064
   -668785.27349   -502597.33946  28412169.2824   28412165.8994
      3544.7664
 -14037481.21349 -10918449.63247  25473850.6734   25473847.5284
     -2260.7814
 -16155556.50949 -12570498.39048  25366347.9704   25366343.9934
      -550.3754
  -7800528.21449  -6060699.45347  27112736.8684   27112733.6344
      2762.6414
 07  4 23  1  1  0.0130000  0 12G 1G12G 2G 4G 6G 5G20G23G13G30G31G 7
  -8912624.08849  -6926684.52747  26700032.5014   26700029.5994
     -2800.9374
  -3283992.01049  -2540297.30447  27590311.4934   27590307.5794
     -3569.4844
 -12834142.05949  -9982449.69247  26069108.7984   26069103.9504
      1117.5314
  -8576282.64249  -6665725.16847  26559316.2824   26559314.1384
     -1873.5164
 -11251284.76549  -8749307.70347  26434380.9774   26434377.8254
      2276.9384
  -6046881.23149  -4692296.90147  26924937.9384   26924935.4034
     -3485.0624
  -1912377.95649  -1472789.36446  27881721.0794   27881719.3334
     -3311.5314
 -10519657.92649  -8178651.01347  26552479.5874   26552474.0524
      2124.3754
   -721927.00249   -544006.50746  28402056.8924   28402052.5754
      3540.9064
 -14003501.61949 -10891972.01847  25480316.4154   25480313.1814
     -2269.7194
 -16147228.09849 -12564008.70548  25367932.4384   25367928.0994
      -560.0784
  -7841928.70849  -6092959.58347  27104858.9624   27104856.1454
      2757.5784
 07  4 23  1  1 15.0130000  0 12G 1G12G 2G 4G 6G 5G20G23G13G30G31G 7
  -8870553.22049  -6893902.02547  26708037.9934   26708036.1224
     -2808.2664
  -3230416.23249  -2498549.95847  27600506.7274   27600503.3214
     -3573.9224
 -12850825.52049  -9995449.79247  26065934.2744   26065928.9234
      1107.0784
  -8548108.38749  -6643771.18647  26564677.5634   26564675.0634
     -1882.9844
 -11285384.96849  -8775879.29447  26427891.6964   26427888.9854
      2269.9064
  -5994564.18449  -4651530.35447  26934894.2124   26934891.5324
     -3490.4374
  -1862661.35549  -1434049.17546  27891182.0484   27891179.6384
     -3317.2504
 -10551458.73049  -8203430.88847  26546428.1734   26546421.8094
      2115.8134
   -775009.21949   -585369.20346  28391955.8764   28391950.5094
      3536.8134
 -13969386.48949 -10865388.82147  25486808.9464   25486805.8644
     -2278.8284
 -16138753.42049 -12557405.04848  25369545.3994   25369540.5634
      -569.8754
  -7883250.20149  -6125158.13847  27096995.7354   27096992.9154
      2752.1724
 07  4 23  1  1 30.0130000  0 12G 1G12G 2G 4G 6G 5G20G23G13G30G31G 7
  -8828372.52249  -6861033.95647  26716065.0014   26716062.2274
     -2815.7504
  -3176776.51349  -2456752.79947  27610714.2354   27610709.2864
     -3578.2664
 -12867352.61349 -10008328.01147  26062788.9934   26062784.2274
      1096.4694
  -8519792.64549  -6621706.97647  26570065.7274   26570062.5094
     -1892.5944
 -11319377.57349  -8802367.05447  26421423.3994   26421420.5634
      2262.5634
  -5942164.31949  -4610699.29847  26944865.8134   26944862.8604
     -3496.1724
  -1812857.36849  -1395240.87746  27900660.1814   27900657.2744
     -3323.1874
 -10583129.22949  -8228109.19447  26540401.5404   26540395.6884
      2106.8914
   -828029.90849   -626684.03646  28381866.1734   28381860.7784
      3532.5634
 -13935134.63849 -10838699.07147  25493326.7904   25493323.5404
     -2288.1254
 -16130130.92049 -12550686.20248  25371186.2354   25371181.6384
      -579.7974
  -7924490.93349  -6157293.73347  27089147.5014   27089145.4274
      2746.5634
 07  4 23  1  1 45.0130000  0 12G 1G12G 2G 4G 6G 5G20G23G13G30G31G 7
  -8786080.78149  -6828079.34147  26724112.9704   26724109.9074
     -2823.0624
  -3123071.46049  -2414904.67547  27620934.0404   27620929.8294
     -3582.4694
 -12883721.72449 -10021083.15847  26059674.3844   26059668.6614
      1086.0784
  -8491334.22949  -6599531.57047  26575480.6654   26575477.2634
     -1901.9694
 -11353260.72149  -8828769.48947  26414975.7744   26414972.3414
      2255.3444
  -5889680.44549  -4569802.77447  26954852.9934   26954849.8134
     -3501.6564
  -1762964.82449  -1356363.56546  27910153.7434   27910150.6574
     -3329.0164
 -10614667.65949  -8252684.59347  26534399.6494   26534394.7004
      2098.1724
   -880987.22749   -667949.49746  28371788.2674   28371784.0244
      3528.4064
 -13900744.52649 -10811901.58547  25499870.8994   25499867.7784
     -2297.1254
 -16121359.14949 -12543851.04248  25372855.4314   25372850.9774
      -589.6414
  -7965649.22149  -6189365.15447  27081315.4774   27081312.8024
      2741.1094
 07  4 23  1  2  0.0130000  0 12G 1G12G 2G 4G 6G 5G20G23G13G30G31G 7
  -8743679.24249  -6795039.17447  26732181.7824   26732178.9274
     -2830.3284
  -3069302.30049  -2373006.64247  27631166.5404   27631162.3724
     -3586.6564
 -12899933.71249 -10033715.86847  26056589.2044   26056583.6694
      1075.6564
  -8462734.37549  -6577245.97547  26580923.4934   26580921.0174
     -1911.3124
 -11387035.16349  -8855087.25247  26408548.7434   26408545.5714
      2248.0314
  -5837113.81949  -4528841.77847  26964856.0404   26964853.3954
     -3507.2034
  -1712985.06249  -1317418.29246  27919664.9464   27919662.0754
     -3334.7974
 -10646074.68949  -8277157.58347  26528423.0874   26528418.0284
      2089.4694
   -933881.79349   -709165.99746  28361722.8454   28361719.4624
      3524.2664
 -13866217.50849 -10784997.41847  25506441.1264   25506438.1024
     -2306.3284
 -16112438.98749 -12536900.25148  25374552.8134   25374548.7514
      -599.5314
  -8006725.80749  -6221372.85547  27073498.7744   27073495.8604
      2735.8134
 07  4 23  1  2 15.0130000  0 12G 1G12G 2G 4G 6G 5G20G23G13G30G31G 7
  -8701169.98049  -6761915.08847  26740271.0714   26740268.7554
     -2837.5164
  -3015471.22849  -2331060.35947  27641410.0714   27641405.5794
     -3590.8124
 -12915990.02449 -10046227.27047  26053533.7904   26053528.0674
      1065.1254
  -8433994.69249  -6554851.35947  26586392.4314   26586389.6884
     -1920.6414
 -11420702.39149  -8881321.46547  26402142.1964   26402138.7164
      2240.7664
  -5784466.59849  -4487818.00447  26974874.4624   26974871.6924
     -3512.5784
  -1662920.01949  -1278406.65546  27929192.1964   27929188.6964
     -3340.4694
 -10677351.64249  -8301529.23447  26522471.0484   26522466.2314
      2080.7664
   -986714.99149   -750334.66546  28351669.1424   28351664.9814
      3520.2664
 -13831555.45149 -10757987.98947  25513036.7124   25513033.4544
     -2315.3754
 -16103372.34949 -12529835.33648  25376278.0404   25376273.7044
      -609.3914
  -8047721.92849  -6253317.86547  27065697.6024   27065695.0754
      2730.3444
 07  4 23  1  2 30.0130000  0 12G 1G12G 2G 4G 6G 5G20G23G13G30G31G 7
  -8658551.30749  -6728705.71647  26748381.0484   26748377.9814
     -2844.7194
  -2961576.43749  -2289064.43647  27651665.9774   27651661.5404
     -3595.1094
 -12931888.72449 -10058615.86847  26050508.1734   26050503.1304
      1054.6884
  -8405113.78149  -6532346.72247  26591888.0954   26591884.6024
     -1930.0164
 -11454260.27649  -8907470.45347  26395756.0094   26395752.8334
      2233.6414
  -5731737.12849  -4446730.13547  26984908.0404   26984905.5754
     -3517.9374
  -1612768.42249  -1239327.47046  27938735.8134   27938731.8334
     -3346.1254
 -10708496.41249  -8325797.88447  26516544.0324   26516539.3954
      2071.9844
  -1039484.67149   -791453.89646  28341627.1344   28341622.8604
      3515.9844
 -13796756.86549 -10730872.22247  25519659.1494   25519655.7394
     -2324.3444
 -16094157.36049 -12522654.82248  25378031.5484   25378027.7704
      -619.1874
  -8088635.57249  -6285198.60847  27057911.7044   27057908.1344
      2724.9224
 07  4 23  1  2 45.0130000  0 12G 1G12G 2G 4G 6G 5G20G23G13G30G31G 7
  -8615823.47349  -6695411.29247  26756512.2434   26756508.9384
     -2852.1724
  -2907618.33949  -2247019.15947  27661933.5324   27661929.5954
     -3599.2504
 -12947629.45649 -10070881.38247  26047512.9934   26047507.7314
      1044.1254
  -8376092.08949  -6509732.39847  26597410.9074   26597407.8494
     -1939.5624
 -11487708.52249  -8933534.04647  26389391.3684   26389387.5204
      2226.2974
  -5678925.72749  -4405578.41547  26994957.8064   26994954.9274
     -3523.4694
  -1562530.43549  -1200180.94546  27948296.0404   27948292.0994
     -3352.0004
 -10739508.91849  -8349963.47847  26510642.8764   26510637.5794
      2063.1414
  -1092190.32849   -832523.19146  28331596.6344   28331594.2124
      3511.5784
 -13761822.00749 -10703650.24047  25526307.1964   25526303.8954
     -2333.4694
 -16084793.99749 -12515358.68048  25379813.0954   25379809.3254
      -629.1254
  -8129466.50649  -6317014.90547  27050141.5404   27050138.7634
      2719.3134
 07  4 23  1  3  0.0130000  0 12G 1G12G 2G 4G 6G 5G20G23G13G30G31G 7
  -8572986.67149  -6662031.96747  26764663.4384   26764660.5594
     -2859.3754
  -2853597.01449  -2204924.59047  27672213.2514   27672209.2704
     -3603.4694
 -12963211.94049 -10083023.57347  26044548.0324   26044542.1884
      1033.6724
  -8346929.41649  -6487008.22547  26602959.9234   26602957.5714
     -1948.8124
 -11521046.70049  -8959511.85947  26383047.3604   26383043.5134
      2218.8914
  -5626032.51849  -4364362.94347  27005022.8134   27005020.3954
     -3528.7664
  -1512206.32749  -1160967.40446  27957872.5014   27957868.5524
     -3357.6414
 -10770388.44749  -8374025.45447  26504766.9464   26504761.3374
      2054.2034
  -1144831.36249   -873542.15746  28321579.6734   28321575.2944
      3507.3754
 -13726750.87849 -10676322.09047  25532980.8454   25532977.6104
     -2342.5004
 -16075282.18749 -12507946.87048  25381623.3684   25381619.4384
      -639.0004
  -8170214.11049  -6348766.29047  27042388.0094   27042384.9114
      2713.7664
 07  4 23  1  3 15.0130000  0 12G 1G12G 2G 4G 6G 5G20G23G13G30G31G 7
  -8530042.32649  -6628568.84247  26772835.3524   26772832.9464
     -2866.5164
  -2799513.79349  -2162781.85147  27682504.4154   27682500.6734
     -3607.6094
 -12978637.04749 -10095043.12347  26041612.6344   26041607.2864
      1023.1254
  -8317627.00749  -6464175.19947  26608536.3374   26608533.7084
     -1958.2344
 -11554275.54949  -8985404.45647  26376724.2514   26376720.6224
      2211.6094
  -5573058.80749  -4323084.73147  27015103.9934   27015100.3214
     -3534.3594
  -1461797.50149  -1121687.85346  27967464.2594   27967460.5994
     -3363.4694
 -10801135.77749  -8397984.39447  26498915.7824   26498910.2164
      2045.4384
  -1197408.53249   -914511.35946  28311575.4934   28311571.0284
      3502.9384
 -13691544.86949 -10648888.83447  25539680.4624   25539677.1774
     -2351.5624
 -16065623.11449 -12500420.31348  25383461.4234   25383456.7164
      -648.7814
  -8210879.27449  -6380453.42347  27034649.7434   27034646.6104
      2708.1884
 07  4 23  1  3 30.0130000  0 12G 1G12G 2G 4G 6G 5G20G23G13G30G31G 7
  -8486990.17449  -6595021.72447  26781028.0014   26781025.1264
     -2873.6874
  -2745368.59749  -2120590.81247  27692808.5484   27692805.2004
     -3611.7664
 -12993904.10149 -10106939.50547  26038706.8214   26038701.9854
      1012.5634
  -8288184.62249  -6441233.06547  26614139.1104   26614136.7244
     -1967.4844
 -11587394.40549  -9011211.36347  26370421.7434   26370418.2434
      2204.1564
  -5520004.56049  -4281743.75047  27025200.1424   27025196.3494
     -3539.6564
  -1411303.94649  -1082342.18646  27977072.2434   27977069.4624
     -3368.9374
 -10831750.23649  -8421839.82447  26493090.2674   26493085.0404
      2036.4694
  -1249920.84649   -955430.02846  28301583.0874   28301578.6964
      3498.5944
 -13656203.67849 -10621350.27247  25546405.5174   25546402.4504
     -2360.5944
 -16055816.28449 -12492778.60848  25385327.6264   25385323.6574
      -658.7814
  -8251461.22749  -6412075.73147  27026927.3214   27026924.2004
      2702.6884
 07  4 23  1  3 45.0130000  0 12G 1G12G 2G 4G 6G 5G20G23G13G30G31G 7
  -8443830.05049  -6561390.44947  26789240.7354   26789238.9034
     -2880.9534
  -2691161.12549  -2078351.23447  27703123.0794   27703120.0364
     -3615.9694
 -13009012.66149 -10118712.41047  26035831.8764   26035826.7704
      1001.9224
  -8258602.23049  -6418181.84647  26619768.3214   26619766.1384
     -1976.9064
 -11620402.54549  -9036932.00547  26364140.4074   26364137.3174
      2196.8754
  -5466869.50949  -4240339.76747  27035310.8604   27035307.1844
     -3545.0314
  -1360725.35849  -1042930.34046  27986698.1814   27986693.6384
     -3374.8444
 -10862230.96749  -8445591.04447  26487290.1574   26487284.4424
      2027.5944
  -1302367.63249   -996297.65246  28291602.1494   28291598.5754
      3494.2034
 -13620727.19049 -10593706.27647  25553156.5404   25553153.2864
     -2369.5944
 -16045861.22549 -12485021.43748  25387222.0324   25387218.0054
      -668.6414
  -8291959.16749  -6443632.54147  27019220.4854   27019218.4074
      2697.0474
 07  4 23  1  4  0.0130000  0 12G 1G12G 2G 4G 6G 5G20G23G13G30G31G 7
  -8400562.50149  -6527675.48347  26797475.0794   26797471.9584
     -2888.0784
  -2636891.91049  -2036063.59447  27713450.0014   27713447.0524
     -3619.8594
 -13023962.56549 -10130361.65647  26032987.4704   26032981.6734
       991.3594
  -8228880.18049  -6395021.78347  26625423.9464   26625422.0174
     -1986.0314
 -11653299.95749  -9062566.36247  26357880.2904   26357877.3844
      2189.4694
  -5413654.41449  -4198873.46247  27045437.0564   27045434.0484
     -3550.3754
  -1310062.47249  -1003452.82346  27996337.3994   27996334.6384
     -3380.3124
 -10892577.98349  -8469238.05947  26481515.1814   26481509.1734
      2018.6724
  -1354748.81349  -1037114.16146  28281635.0244   28281631.2004
      3489.8754
 -13585115.82249 -10565957.14547  25559932.9314   25559929.5754
     -2378.5624
 -16035758.26249 -12477149.00248  25389144.6734   25389140.5874
      -678.4064
  -8332373.20649  -6475123.96847  27011530.4464   27011528.3524
      2691.4694
 07  4 23  1  4 15.0130000  0 12G 1G12G 2G 4G 6G 5G20G23G13G30G31G 7
  -8357188.26449  -6493877.36447  26805728.4154   26805725.7704
     -2895.1564
  -2582561.65349  -1993728.36547  27723790.5794   27723785.9384
     -3624.0314
 -13038754.16949 -10141887.59647  26030172.1264   26030166.8844
       980.7664
  -8199019.23649  -6371753.53547  26631106.8924   26631104.4664
     -1995.2194
 -11686086.77449  -9088114.52447  26351641.2124   26351638.0364
      2182.0944
  -5360359.89649  -4157345.28547  27055578.9854   27055575.8644
     -3555.6254
  -1259316.02749   -963910.10446  28005995.8294   28005992.3024
     -3385.9694
 -10922791.38649  -8492780.95847  26475765.7274   26475760.1454
      2009.7974
  -1407064.40349  -1077879.52646  28271679.5794   28271675.6924
      3485.5474
 -13549370.46749 -10538103.59747  25566735.3134   25566731.3094
     -2387.4694
 -16025507.84849 -12469161.66248  25391095.1344   25391090.9704
      -688.2974
  -8372703.37649  -6506550.03847  27003855.8374   27003852.9774
      2685.8134
 07  4 23  1  4 30.0130000  0 12G 1G12G 2G 4G 6G 5G20G23G13G30G31G 7
  -8313707.35149  -6459996.13947  26814002.7824   26813999.4344
     -2902.3754
  -2528170.48749  -1951345.65647  27734139.9624   27734136.4314
     -3628.1874
 -13053386.95649 -10153289.77047  26027388.1884   26027382.4274
       970.1564
  -8169019.35249  -6348377.01847  26636816.0874   26636813.1654
     -2004.7034
 -11718762.50049  -9113576.11947  26345423.1654   26345420.0244
      2174.5944
  -5306986.03449  -4115755.30147  27065736.0484   27065733.0794
     -3560.8914
  -1208486.06649   -924302.42846  28015668.6024   28015664.8644
     -3391.5164
 -10952870.48349  -8516219.20047  26470041.6184   26470036.1734
      2000.7974
  -1459313.63349  -1118593.21146  28261736.5954   28261732.5284
      3480.9694
 -13513490.96649 -10510145.54147  25573562.9544   25573559.2594
     -2396.4844
 -16015109.78749 -12461059.28848  25393073.9074   25393069.6454
      -698.1094
  -8412949.26749  -6537910.45047  26996197.2204   26996194.5524
      2680.2034
 07  4 23  1  4 45.0130000  0 12G 1G12G 2G 4G 6G 5G20G23G13G30G31G 7
  -8270119.52149  -6426031.58047  26822297.2434   26822294.0594
     -2909.2974
  -2473717.96749  -1908915.12447  27744502.0874   27744497.9464
     -3632.1254
 -13067860.13649 -10164567.56247  26024633.7274   26024628.2784
       959.6254
  -8138879.99449  -6324891.84147  26642550.7904   26642547.7354
     -2013.7974
 -11751326.29249  -9138950.49847  26339226.3214   26339222.5634
      2167.2344
  -5253532.51149  -4074103.20547  27075907.6184   27075905.1024
     -3566.1564
  -1157572.28549   -884629.33046  28025356.6964   28025352.3024
     -3396.9064
 -10982814.72749  -8539552.36547  26464343.1654   26464337.0204
      1991.8134
  -1511495.75649  -1159254.60446  28251806.0484   28251802.6614
      3476.5634
 -13477477.06849 -10482082.72047  25580415.8374   25580412.6534
     -2405.2504
 -16004563.53849 -12452841.42248  25395080.9234   25395076.8724
      -707.8444
  -8453109.91749  -6569204.43847  26988554.9854   26988551.5094
      2674.6414
 07  4 23  1  5  0.0130000  0 12G 1G12G 2G 4G 6G 5G20G23G13G30G31G 7
  -8226425.82549  -6391984.54247  26830612.0094   26830608.7244
     -2916.4224
  -2419205.31749  -1866437.74847  27754876.1884   27754871.7674
     -3636.1564
 -13082174.32849 -10175721.45747  26021909.7594   26021904.6384
       948.9064
  -8108602.36249  -6301298.85447  26648312.6264   26648309.7394
     -2023.0624
 -11783778.71749  -9164238.08047  26333050.8844   26333047.4584
      2159.8284
  -5200000.49149  -4032389.95947  27086094.1884   27086091.5364
     -3571.4064
  -1106575.88349   -844891.91446  28035060.9544   28035057.0324
     -3402.5784
 -11012624.51649  -8562780.77547  26458670.6264   26458665.4664
      1982.8134
  -1563611.14449  -1199863.96846  28241889.4314   28241886.4814
      3472.0634
 -13441329.83849 -10453916.05147  25587294.5094   25587290.7784
     -2414.2664
 -15993870.02049 -12444508.81348  25397115.4774   25397111.4744
      -717.7344
  -8493185.86849  -6600432.45747  26980928.0874   26980925.6964
      2668.9224
 07  4 23  1  5 15.0130000  0 12G 1G12G 2G 4G 6G 5G20G23G13G30G31G 7
  -8182629.03349  -6357857.17647  26838945.7434   26838943.2164
     -2923.2814
  -2364635.09949  -1823915.49047  27765260.1494   27765256.2634
     -3639.9844
 -13096332.01349 -10186753.41347  26019215.8924   26019210.2314
       938.5004
  -8078189.19649  -6277600.30847  26654099.7044   26654097.1454
     -2032.1414
 -11816121.99549  -9189440.64647  26326896.3924   26326893.1614
      2152.5474
  -5146392.72449  -3990617.70647  27096295.7674   27096293.4034
     -3576.4374
  -1055499.67149   -805092.26446  28044780.0954   28044776.7864
     -3407.8444
 -11042301.99149  -8585906.07247  26453022.9314   26453018.3334
      1974.0164
  -1615661.81649  -1240422.92246  28231984.4464   28231980.9344
      3467.8594
 -13405051.99249 -10425647.60447  25594197.9384   25594194.5594
     -2423.0004
 -15983031.61749 -12436063.29948  25399178.2124   25399174.1614
      -727.4534
  -8533179.36249  -6631596.19247  26973317.6264   26973315.6574
      2663.4844
 07  4 23  1  5 30.0130000  0 12G 1G12G 2G 4G 6G 5G20G23G13G30G31G 7
  -8138725.58649  -6323646.70347  26847300.4074   26847297.5204
     -2930.4694
  -2310003.82249  -1781345.65247  27775655.6654   27775651.4744
     -3644.0784
 -13110328.99249 -10197660.13647  26016552.2204   26016546.8024
       927.8134
  -8047636.81549  -6253793.26847  26659913.4544   26659910.4274
     -2041.3594
 -11848351.97249  -9214554.91947  26320763.3214   26320759.6654
      2144.9064
  -5092705.64049  -3948783.61447  27106511.9624   27106509.3094
     -3581.7664
  -1004340.23349   -765227.79146  28054515.7984   28054512.1694
     -3413.3914
 -11071842.92649  -8608924.97147  26447401.8924   26447396.4464
      1964.8134
  -1667643.58349  -1280928.14746  28222091.4624   28222089.3564
      3463.1564
 -13368639.75849 -10397274.44047  25601126.8924   25601124.0284
     -2431.9534
 -15972044.52849 -12427501.92548  25401268.9314   25401264.8024
      -737.4534
  -8573086.07849  -6662692.33347  26965724.1574   26965721.8644
      2657.5944
 07  4 23  1  5 45.0130000  0 12G 1G12G 2G 4G 6G 5G20G23G13G30G31G 7
  -8094717.71349  -6289354.85647  26855675.1104   26855672.0014
     -2937.4224
  -2255313.86749  -1738730.15247  27786063.2984   27786058.6494
     -3648.0164
 -13124167.27649 -10208443.21747  26013918.8374   26013912.8374
       917.2194
  -8016947.33549  -6229879.38847  26665753.8214   26665750.6494
     -2050.4844
 -11880470.27449  -9239582.17147  26314651.0404   26314647.3884
      2137.5474
  -5038941.63449  -3906889.60647  27116742.9154   27116739.6884
     -3586.8914
   -953099.88749   -725300.27646  28064266.9074   28064263.0484
     -3418.6094
 -11101249.05549  -8631838.84947  26441805.7274   26441801.1424
      1955.9534
  -1719558.06349  -1321380.79446  28212212.6424   28212209.6534
      3458.6414
 -13332095.44949 -10368798.35247  25608081.3524   25608078.0594
     -2440.7034
 -15960910.94549 -12418826.42548  25403387.7354   25403383.1814
      -747.1564
  -8612907.86649  -6693722.24947  26958146.2354   26958143.9584
      2651.9064
 07  4 23  1  6  0.0130000  0 12G 1G12G 2G 4G 6G 5G20G23G13G30G31G 7
  -8050604.61049  -6254981.00947  26864069.3524   26864066.1454
     -2944.3754
  -2200564.32149  -1696068.17947  27796481.3294   27796477.2864
     -3651.9844
 -13137845.40249 -10219101.51447  26011315.8924   26011310.4114
       906.5784
  -7986119.92549  -6205858.02747  26671619.9384   26671618.0714
     -2059.7344
 -11912475.68149  -9264521.44347  26308560.6734   26308557.7904
      2129.8914
  -4985099.81649  -3864934.96847  27126988.2514   27126985.9664
     -3592.0314
   -901777.66249   -685308.92046  28074032.7124   28074029.2864
     -3424.2974
 -11130518.90349  -8654646.51147  26436236.0174   26436230.5204
      1946.8284
  -1771403.63949  -1361779.96246  28202346.8924   28202344.0054
      3454.1094
 -13295418.20149 -10340218.68247  25615060.5014   25615056.9664
     -2449.5944
 -15949629.73349 -12410035.86948  25405534.4464   25405529.9074
      -757.0164
  -8652643.33449  -6724684.92347  26950584.6264   26950582.0094
      2646.1414
 07  4 23  1  6 15.0130000  0 12G 1G12G 2G 4G 6G 5G20G23G13G30G31G 7
  -8006387.63049  -6220526.22747  26872483.5874   26872480.2314
     -2951.1564
  -2145756.45549  -1653360.80147  27806910.4074   27806907.4154
     -3655.8444
 -13151364.28949 -10229635.68647  26008743.6104   26008738.1884
       895.9694
  -7955155.95049  -6181730.22847  26677512.2204   26677510.8134
     -2068.7814
 -11944368.89349  -9289373.30047  26302491.5174   26302488.5754
      2122.4694
  -4931181.57949  -3822920.77147  27137249.5094   27137245.5674
     -3597.0164
   -850375.39949   -645255.25646  28083814.0014   28083810.6574
     -3429.4694
 -11159653.39449  -8677348.70147  26430691.7904   26430686.7864
      1937.7664
  -1823181.13249  -1402126.02446  28192494.1814   28192490.7594
      3449.6564
 -13258609.58449 -10311536.65447  25622065.1884   25622061.7514
     -2458.2814
 -15938201.99849 -12401131.13548  25407708.7984   25407704.5594
      -766.7344
  -8692293.22149  -6755580.91847  26943039.2824   26943036.3524
      2640.4844
 07  4 23  1  6 30.0130000  0 12G 1G12G 2G 4G 6G 5G20G23G13G30G31G 7
  -7962067.43849  -6185991.00647  26880917.7674   26880914.1734
     -2958.2034
  -2090891.02649  -1610608.56047  27817350.4074   27817347.7704
     -3659.7034
 -13164724.21249 -10240046.04347  26006201.5244   26006196.1774
       885.2974
  -7924056.00849  -6157496.49247  26683430.3454   26683427.4194
     -2077.9374
 -11976150.09449  -9314137.87247  26296444.0244   26296441.0364
      2114.9064
  -4877187.49349  -3780847.43247  27147523.5634   27147520.7434
     -3602.2034
   -798893.43549   -605139.45846  28093611.9384   28093607.8334
     -3434.8124
 -11188652.65449  -8699945.51447  26425173.6344   26425167.6614
      1928.6724
  -1874890.66449  -1442419.16546  28182654.4464   28182649.9664
      3444.9534
 -13221670.06149 -10282752.62047  25629094.4934   25629091.5094
     -2467.0474
 -15926628.19749 -12392112.57148  25409911.5874   25409907.0244
      -776.5314
  -8731857.60849  -6786410.27547  26935510.5014   26935506.7084
      2634.6884
 07  4 23  1  6 45.0130000  0 12G 1G12G 2G 4G 6G 5G20G23G13G30G31G 7
  -7917641.65749  -6151373.52047  26889371.0634   26889367.3494
     -2965.1414
  -2035965.51649  -1567809.53747  27827803.5324   27827799.7474
     -3663.5624
 -13177922.20049 -10250330.18247  26003690.3134   26003684.4774
       874.6254
  -7892817.74849  -6133155.01647  26689374.9314   26689372.3374
     -2087.0784
 -12007816.35149  -9338812.87147  26290417.7984   26290414.9464
      2107.3754
  -4823115.37749  -3738713.33847  27157813.2204   27157810.7784
     -3607.2974
   -747329.51949   -564959.86646  28103422.6264   28103419.1384
     -3440.3284
 -11217513.59049  -8722434.54947  26419681.9544   26419676.0204
      1919.5634
  -1926528.99349  -1482656.89346  28172827.4384   28172822.7044
      3440.3444
 -13184597.33649 -10253864.79847  25636148.8374   25636145.8564
     -2475.8754
 -15914905.61849 -12382978.08548  25412142.3064   25412137.7984
      -786.3754
  -8771333.61749  -6817170.82047  26927998.4934   26927995.7084
      2628.8284
 07  4 23  1  7  0.0130000  0 12G 1G12G 2G 4G 6G 5G20G23G13G30G31G 7
  -7873113.69749  -6116676.41547  26897844.9234   26897841.4894
     -2972.0164
  -1980983.38149  -1524966.30147  27838266.6814   27838262.4744
     -3667.5004
 -13190961.21649 -10260490.45347  26001208.6654   26001202.8884
       863.9224
  -7861444.41149  -6108708.28847  26695344.7204   26695343.0324
     -2096.2664
 -12039370.47349  -9363400.49247  26284413.4854   26284410.0284
      2099.7664
  -4768968.57149  -3696521.07947  27168117.2514   27168114.3094
     -3612.4534
   -695687.16349   -524719.13846  28113250.6264   28113247.3804
     -3445.5944
 -11246238.97949  -8744817.94447  26414215.2744   26414209.3454
      1910.3444
  -1978098.65549  -1522841.09846  28163014.6344   28163010.3724
      3435.5474
 -13147394.66749 -10224875.69347  25643228.5564   25643224.8334
     -2484.7034
 -15903037.52149 -12373730.22648  25414400.7204   25414396.1884
      -796.0784
  -8810724.00749  -6847864.61747  26920502.7674   26920499.9314
      2623.0784
 07  4 23  1  7 15.0130000  0 12G 1G12G 2G 4G 6G 5G20G23G13G30G31G 7
  -7828482.01549  -6081898.49847  26906337.3524   26906334.6774
     -2978.7664
  -1925943.03849  -1482077.75747  27848740.1104   27848736.7124
     -3671.2194
 -13203839.32049 -10270525.33247  25998758.2904   25998752.0954
       853.2344
  -7829934.44449  -6084155.06347  26701341.2274   26701338.5674
     -2105.1724
 -12070810.45749  -9387899.18747  26278430.4704   26278428.0564
      2092.2344
  -4714745.57149  -3654269.39747  27178435.7354   27178432.3134
     -3617.3754
   -643964.83449   -484415.98646  28123093.1344   28123089.6694
     -3450.7504
 -11274826.84649  -8767094.20547  26408775.4234   26408769.5954
      1901.3594
  -2029597.70049  -1562970.21046  28153214.5404   28153210.3954
      3430.9694
 -13110060.38649 -10195784.04047  25650333.1264   25650329.6064
     -2493.2664
 -15891022.04249 -12364367.51248  25416687.2514   25416682.7244
      -805.9224
  -8850026.73249  -6878490.13647  26913023.7674   26913020.9894
      2617.2504
 07  4 23  1  7 30.0130000  0 12G 1G12G 2G 4G 6G 5G20G23G13G30G31G 7
  -7783748.11949  -6047040.92047  26914850.7354   26914847.2474
     -2985.7664
  -1870845.95849  -1439144.97847  27859224.6104   27859221.4074
     -3675.0314
 -13216557.59649 -10280435.69147  25996338.3524   25996331.8804
       842.4064
  -7798289.20549  -6059496.46647  26707363.3994   26707360.2434
     -2114.3444
 -12102137.13449  -9412309.57547  26272469.0014   26272465.9974
      2084.7194
  -4660447.83649  -3611959.49147  27188768.2904   27188765.3254
     -3622.4844
   -592164.03049   -444051.75746  28132951.5794   28132946.8524
     -3456.1564
 -11303277.93749  -8789263.88647  26403361.1964   26403355.3294
      1892.0634
  -2081026.90949  -1603044.83246  28143427.8604   28143424.0634
      3426.1884
 -13072595.97749 -10166591.03047  25657462.0564   25657458.7004
     -2502.0624
 -15878860.46249 -12354890.97548  25419001.4154   25418997.0204
      -815.7504
  -8889242.57949  -6909047.91347  26905561.7044   26905558.5134
      2611.3594
 07  4 23  1  7 45.0130000  0 12G 1G12G 2G 4G 6G 5G20G23G13G30G31G 7
  -7738910.06949  -6012102.18847  26923382.7354   26923379.8254
     -2992.6724
  -1815690.28649  -1396166.54847  27869721.3064   27869717.0364
     -3678.9064
 -13229113.64349 -10290219.61147  25993948.6964   25993942.8644
       831.7664
  -7766506.89249  -6034731.01347  26713411.1574   26713408.6424
     -2123.1724
 -12133348.04149  -9436629.74747  26266530.1424   26266526.8094
      2076.9694
  -4606073.44149  -3569589.82847  27199115.3214   27199112.0484
     -3627.4694
   -540283.05449   -403625.06646  28142823.5404   28142818.8174
     -3461.2814
 -11331589.88149  -8811325.12047  26397973.5324   26397967.3454
      1882.8914
  -2132383.68249  -1643063.09246  28133654.9854   28133651.4854
      3421.5314
 -13034999.77149 -10137295.30547  25664616.6734   25664612.7864
     -2510.7034
 -15866550.56049 -12345298.83748  25421343.9774   25421339.3604
      -825.5164
  -8928369.19549  -6939536.13747  26898116.0954   26898112.1654
      2605.6254
 07  4 23  1  8  0.0130000  0 12G 1G12G 2G 4G 6G 5G20G23G13G30G31G 7
  -7693972.06349  -5977085.56747  26931934.1964   26931931.5204
     -2999.2504
  -1760480.11049  -1353145.57647  27880227.0564   27880222.6264
     -3682.5314
 -13241511.11749 -10299879.95847  25991589.5094   25991583.9504
       821.1254
  -7734591.31349  -6009861.69147  26719484.1344   26719481.7634
     -2132.1254
 -12164446.84849  -9460862.57447  26260611.8604   26260608.4114
      2069.4224
  -4551626.67149  -3527163.81047  27209476.2354   27209473.2944
     -3632.2034
   -488326.07449   -363139.16646  28152710.5634   28152707.3374
     -3466.3914
 -11359766.20649  -8833280.69547  26392612.0094   26392606.4974
      1873.8594
  -2183671.56849  -1683027.74346  28123895.3684   28123891.9464
      3416.8444
 -12997275.82749 -10107900.02947  25671795.1574   25671791.5754
     -2519.1874
 -15854096.45449 -12335594.34448  25423714.0244   25423709.6224
      -835.1254
  -8967410.19249  -6969957.70547  26890686.2434   26890683.4384
      2599.7814
 07  4 23  1  8 15.0130000  0 12G 1G12G 2G 4G 6G 5G20G23G13G30G31G 7
  -7648930.98449  -5941988.61047  26940505.3924   26940502.5284
     -3006.2344
  -1705212.34149  -1310079.84047  27890743.5954   27890740.0404
     -3686.4534
 -13253746.49949 -10309414.01047  25989260.8994   25989255.2744
       810.2974
  -7702539.57449  -5984886.28147  26725583.3454   26725580.9034
     -2141.3594
 -12195429.85749  -9485005.14947  26254715.8684   26254712.7244
      2061.6414
  -4497104.32849  -3484678.86247  27219850.8844   27219848.8604
     -3637.4064
   -436289.73449   -322591.38846  28162612.5014   28162609.1104
     -3471.6724
 -11387803.25349  -8855127.75947  26387276.5174   26387271.3924
      1864.4844
  -2234886.70149  -1722935.53546  28114148.5954   28114145.9774
      3411.8444
 -12959420.78149 -10078402.59147  25678999.1344   25678995.2594
     -2528.0474
 -15841494.69749 -12325774.79948  25426112.0014   25426107.4424
      -845.0944
  -9006361.75049  -7000309.56347  26883274.8524   26883271.1184
      2593.7034
 07  4 23  1  8 30.0130000  0 12G 1G12G 2G 4G 6G 5G20G23G13G30G31G 7
  -7603787.83549  -5906812.15347  26949095.7984   26949092.7784
     -3012.9064
  -1649887.85649  -1266969.87947  27901271.9464   27901268.6774
     -3690.2974
 -13265820.27249 -10318822.15047  25986963.5794   25986957.6694
       799.5164
  -7670352.67649  -5959805.56047  26731708.3374   26731705.3414
     -2150.3284
 -12226297.51249  -9509057.86647  26248842.5484   26248839.5204
      2054.0314
  -4442507.46749  -3442135.84947  27230240.6574   27230237.3064
     -3642.2344
   -384175.35749   -281982.75446  28172529.9934   28172526.3094
     -3476.7504
 -11415701.30449  -8876866.46547  26381967.9384   26381962.3564
      1855.2664
  -2286029.25249  -1762786.86146  28104416.0174   28104413.7704
      3407.0944
 -12921435.76849 -10048803.90647  25686227.2984   25686223.7124
     -2536.7344
 -15828746.02949 -12315840.77648  25428537.6964   25428533.0524
      -854.8754
  -9045224.33349  -7030592.08047  26875878.6964   26875876.2904
      2587.8754
 07  4 23  1  8 45.0130000  0 12G 1G12G 2G 4G 6G 5G20G23G13G30G31G 7
  -7558542.63349  -5871556.15347  26957705.6104   26957702.3844
     -3019.7974
  -1594506.67749  -1223815.73947  27911810.3924   27911807.2004
     -3693.8754
 -13277732.07149 -10328104.05647  25984696.6344   25984691.4384
       788.6884
  -7638030.46149  -5934619.40447  26737859.1654   26737855.9114
     -2159.4844
 -12257049.34649  -9533020.32547  26242990.5714   26242986.9894
      2046.2664
  -4387836.00649  -3399534.72947  27240644.1344   27240641.2784
     -3647.2814
   -331982.86749   -241313.28046  28182461.6494   28182458.3804
     -3482.1094
 -11443459.96449  -8898496.59147  26376685.3844   26376680.4544
      1845.9064
  -2337098.86449  -1802581.35146  28094698.2824   28094695.8134
      3402.3134
 -12883320.56949 -10019103.75547  25693480.2434   25693477.3494
     -2545.4224
 -15815850.18849 -12305792.06348  25430991.7044   25430987.4744
      -864.6414
  -9083997.39949  -7060804.83247  26868500.8994   26868498.5404
      2581.8444
 07  4 23  1  9  0.0130000  0 12G 1G12G 2G 4G 6G 5G20G23G13G30G31G 7
  -7513195.91649  -5836221.04347  26966335.1734   26966332.0714
     -3026.4374
  -1539069.31349  -1180617.78347  27922359.2904   27922356.0404
     -3697.5784
 -13289482.02049 -10337259.88847  25982460.5404   25982454.7674
       778.1094
  -7605573.39349  -5909328.16247  26744034.7204   26744032.2274
     -2168.2194
 -12287685.32949  -9556892.51547  26237160.0954   26237157.7474
      2038.6884
  -4333090.66649  -3356876.05647  27251062.1104   27251059.0204
     -3652.0944
   -279713.28949   -200583.77946  28192408.6024   28192404.1814
     -3486.9694
 -11471079.15749  -8920018.00947  26371429.9934   26371424.3374
      1836.7034
  -2388095.27349  -1842318.78446  28084994.5954   28084991.3644
      3397.5314
 -12845075.81249  -9989302.64147  25700758.1574   25700754.7674
     -2553.8284
 -15802807.56549 -12295628.98048  25433473.4384   25433469.1654
      -874.2504
  -9122681.02049  -7090947.90947  26861139.3684   26861137.0324
      2576.1094
 07  4 23  1  9 15.0130000  0 12G 1G12G 2G 4G 6G 5G20G23G13G30G31G 7
  -7467750.00149  -5800808.66147  26974983.0014   26974979.9344
     -3033.0474
  -1483578.07949  -1137377.86546  27932919.1964   27932915.6304
     -3701.3284
 -13301071.88849 -10346290.94747  25980255.1344   25980249.9314
       767.2814
  -7572983.80649  -5883933.66347  26750237.2594   26750234.2634
     -2177.0944
 -12318207.11649  -9580675.71147  26231352.3294   26231348.8604
      2030.9694
  -4278273.77349  -3314161.58347  27261493.2514   27261490.1064
     -3656.7974
   -227368.60949   -159795.75246  28202367.9154   28202365.7984
     -3492.1724
 -11498560.70849  -8941432.17547  26366200.2514   26366194.9744
      1827.4694
  -2439019.99949  -1882000.39046  28075303.4384   28075300.6454
      3392.4224
 -12806703.95149  -9959402.47247  25708060.3684   25708056.6814
     -2562.4374
 -15789620.36449 -12285353.25348  25435983.2674   25435979.1384
      -883.9844
  -9161276.78949  -7121022.53847  26853795.2904   26853792.2004
      2570.0164
 07  4 23  1  9 30.0130000  0 12G 1G12G 2G 4G 6G 5G20G23G13G30G31G 7
  -7422202.99149  -5765317.47747  26983650.5244   26983647.1844
     -3039.8754
  -1428031.14649  -1094094.55947  27943489.8454   27943486.6614
     -3704.9534
 -13312499.40749 -10355195.50847  25978080.3764   25978075.3684
       756.3594
  -7540259.85949  -5858434.50047  26756464.0014   26756461.7594
     -2186.0314
 -12348612.52549  -9604368.21247  26225566.2824   26225562.8804
      2023.0944
  -4223383.33949  -3271389.80147  27271939.0174   27271935.9704
     -3661.7814
   -174947.01949   -118947.78246  28212344.4544   28212340.4624
     -3497.2974
 -11525902.11549  -8962737.15747  26360997.2124   26360991.8994
      1818.1254
  -2489870.70549  -1921624.35246  28065628.4384   28065623.4624
      3387.5634
 -12768203.03149  -9929401.77647  25715386.8524   25715383.2784
     -2571.1254
 -15776286.28949 -12274963.05848  25438520.5874   25438515.9934
      -893.8754
  -9199782.38149  -7151026.91347  26846467.5324   26846464.7394
      2564.0314
 07  4 23  1  9 45.0130000  0 12G 1G12G 2G 4G 6G 5G20G23G13G30G31G 7
  -7376554.76949  -5729747.44547  26992336.9624   26992333.3524
     -3046.5164
  -1372428.42249  -1050767.73847  27954070.3454   27954067.5674
     -3708.6874
 -13323763.97449 -10363973.09847  25975936.6494   25975931.8214
       745.5004
  -7507401.17049  -5832830.32747  26762716.9464   26762714.3334
     -2195.0314
 -12378900.62949  -9627969.33247  26219803.0794   26219799.0284
      2015.2664
  -4168419.34549  -3228560.74247  27282398.2204   27282394.8254
     -3666.7344
   -122448.38649    -78039.74246  28222334.3844   28222331.4384
     -3502.3284
 -11553102.68549  -8983932.38647  26355821.1734   26355815.9664
      1808.6564
  -2540646.52049  -1961189.92446  28055964.9154   28055961.1344
      3382.6564
 -12729572.88149  -9899300.36547  25722737.7594   25722733.8174
     -2579.6254
 -15762805.02149 -12264458.17448  25441085.8134   25441081.4154
      -903.6254
  -9238197.00049  -7180960.36147  26839157.5874   26839153.7044
      2557.9534
 07  4 23  1 10  0.0130000  0 12G 1G12G 2G 4G 6G 5G20G23G13G30G31G 7
  -7330807.87949  -5694100.51447  27001042.2744   27001039.1884
     -3053.1564
  -1316772.30749  -1007399.37647  27964661.3064   27964658.5594
     -3712.2664
 -13334867.67349 -10372625.34247  25973823.5634   25973818.4744
       734.7974
  -7474410.49449  -5807123.29847  26768994.5174   26768992.0324
     -2203.7974
 -12409073.56049  -9651480.70447  26214060.8214   26214057.5564
      2007.5634
  -4113384.29849  -3185676.27547  27292870.9624   27292867.4814
     -3671.4694
    -69875.40849    -37073.74846  28232340.0244   28232336.2474
     -3507.4224
 -11580164.28849  -9005019.36347  26350671.3684   26350665.9464
      1799.3594
  -2591349.41649  -2000698.69746  28046316.7044   28046313.3334
      3377.6724
 -12690815.97549  -9869100.18447  25730112.3214   25730109.1694
     -2588.0784
 -15749178.83449 -12253840.36348  25443679.3214   25443674.6574
      -913.3594
  -9276522.62149  -7210824.50047  26831864.7124   26831861.4774
      2552.0164
 07  4 23  1 10 15.0130000  0 12G 1G12G 2G 4G 6G 5G20G23G13G30G31G 7
  -7284959.31749  -5658374.36947  27009767.2204   27009763.4114
     -3059.8914
  -1261059.88249   -963987.11147  27975263.1814   27975260.0244
     -3715.9534
 -13345807.19749 -10381149.64447  25971742.0404   25971736.6104
       723.9534
  -7441284.52849  -5781310.84747  26775298.8844   26775295.9074
     -2212.7814
 -12439127.78949  -9674899.57447  26208342.0634   26208338.2044
      1999.8444
  -4058275.30649  -3142734.23247  27303358.0634   27303355.1494
     -3676.2814
    -17225.11949      3952.49446  28242357.2124   28242354.9704
     -3512.3594
 -11607083.44149  -9025995.32247  26345549.0174   26345543.4584
      1789.8754
  -2641975.48649  -2040147.55946  28036682.8134   28036680.1184
      3372.6094
 -12651929.27149  -9838798.83547  25737512.7204   25737508.8414
     -2596.6254
 -15735404.56549 -12243107.16248  25446299.9774   25446295.6104
      -923.0784
  -9314755.79649  -7240616.58247  26824589.1424   26824585.5564
      2545.9844
 07  4 23  1 10 30.0130000  0 12G 1G12G 2G 4G 6G 5G20G23G13G30G31G 7
  -7239012.49249  -5622571.66047  27018510.6964   27018507.0714
     -3066.4534
  -1205294.47649   -920533.53047  27985875.2824   27985871.5674
     -3719.5624
 -13356585.53849 -10389548.37947  25969690.7744   25969685.6424
       713.1414
  -7408026.90949  -5755395.82447  26781627.4074   26781623.7674
     -2221.5784
 -12469066.11149  -9698228.12447  26202644.7674   26202641.5874
      1992.0164
  -4003095.68049  -3099737.11547  27313858.3294   27313854.5754
     -3681.0624
     35498.88349     45036.07746  28252390.7594   28252388.2824
     -3517.3914
 -11633862.98449  -9046862.48947  26340453.1264   26340447.1344
      1780.6094
  -2692527.56749  -2079538.75246  28027063.5954   28027059.6494
      3367.6564
 -12612916.09349  -9808398.97747  25744936.5634   25744933.2514
     -2605.1254
 -15721485.50349 -12232261.16048  25448948.9544   25448944.8334
      -932.8124
  -9352899.24949  -7270338.74547  26817330.2124   26817327.5134
      2539.8754
 07  4 23  1 10 45.0130000  0 12G 1G12G 2G 4G 6G 5G20G23G13G30G31G 7
  -7192966.29649  -5586691.49147  27027272.8214   27027269.1494
     -3073.0004
  -1149474.94749   -877037.82047  27996496.9704   27996494.6574
     -3723.0784
 -13367200.93549 -10397820.12447  25967670.7434   25967665.5714
       702.3754
  -7374636.34149  -5729377.22947  26787981.4704   26787978.5794
     -2230.4064
 -12498886.94649  -9721465.12047  26196970.4384   26196966.9114
      1984.1884
  -3947844.35149  -3056684.13447  27324372.1264   27324368.7554
     -3685.6564
     88297.67049     86177.99046  28262437.6654   28262434.6844
     -3522.3754
 -11660501.10849  -9067619.45747  26335383.8294   26335378.5834
      1771.1724
  -2743003.87849  -2118870.96546  28017457.8604   28017453.7704
      3362.5314
 -12573775.24249  -9777899.63247  25752384.9314   25752381.3134
     -2613.6094
 -15707420.15349 -12221301.13548  25451625.4234   25451620.9424
      -942.5474
  -9390951.36649  -7299989.77247  26810089.2514   26810086.1924
      2533.7504
 07  4 23  1 11  0.0130000  0 12G 1G12G 2G 4G 6G 5G20G23G13G30G31G 7
  -7146821.75249  -5550734.71847  27036053.8134   27036050.2594
     -3079.5314
  -1093602.10549   -833500.59447  28007129.8604   28007126.4504
     -3726.6564
 -13377653.97749 -10405965.35847  25965681.7984   25965676.5634
       691.3754
  -7341113.65549  -5703255.66847  26794360.3454   26794357.7354
     -2239.3754
 -12528590.70249  -9744610.90847  26191318.0014   26191314.3884
      1976.2974
  -3892522.30649  -3013576.06247  27334899.6734   27334896.0954
     -3690.5784
    141170.24049    127377.30946  28272498.9704   28272497.6184
     -3527.3754
 -11686998.38049  -9088266.67547  26330341.5244   26330336.7044
      1761.7814
  -2793404.74449  -2158144.33746  28007866.9934   28007863.1734
      3357.5314
 -12534507.92649  -9747301.75447  25759857.4314   25759853.4274
     -2622.0474
 -15693209.36449 -12210227.78748  25454329.6964   25454325.5954
      -952.2974
  -9428912.48549  -7329569.88047  26802865.7824   26802862.7594
      2527.7194
 07  4 23  1 11 15.0130000  0 12G 1G12G 2G 4G 6G 5G20G23G13G30G31G 7
  -7100578.77149  -5514701.21347  27044853.5954   27044850.2274
     -3086.2034
  -1037676.10349   -789921.88347  28017772.0564   28017768.8134
     -3730.1724
 -13387944.18149 -10413983.69847  25963723.1424   25963718.0914
       680.5634
  -7307458.88149  -5677031.16647  26800764.5564   26800762.2984
     -2247.9694
 -12558176.67149  -9767664.88447  26185687.3764   26185684.2274
      1968.4694
  -3837129.49749  -2970412.82747  27345440.7824   27345438.0134
     -3695.1874
    194116.76149    168634.37546  28282574.9314   28282572.6024
     -3532.0944
 -11713354.16849  -9108803.65847  26325326.1024   26325321.0634
      1752.2664
  -2843729.30649  -2197358.26146  27998290.1104   27998286.4274
      3352.3284
 -12495113.80249  -9716605.01747  25767353.6104   25767349.5324
     -2630.4694
 -15678852.77649 -12199040.82048  25457061.2744   25457057.0914
      -962.0624
  -9466781.96149  -7359078.56647  26795659.6184   26795656.3524
      2521.5314
 07  4 23  1 11 30.0130000  0 12G 1G12G 2G 4G 6G 5G20G23G13G30G31G 7
  -7054236.74149  -5478590.54647  27053671.9624   27053668.6924
     -3092.7504
   -981696.36049   -746301.30147  28028424.2904   28028421.4464
     -3733.7194
 -13398070.52849 -10421874.34047  25961796.4384   25961791.4664
       669.6094
  -7273671.38649  -5650703.23347  26807194.2044   26807191.1384
     -2256.8914
 -12587643.83749  -9790626.31447  26180080.2674   26180077.2084
      1960.5474
  -3781665.34249  -2927194.00847  27355994.9464   27355991.1774
     -3700.0164
    247137.65849    209949.30146  28292665.0244   28292661.4814
     -3537.2194
 -11739567.19749  -9129229.38847  26320338.1024   26320332.8954
      1742.7974
  -2893976.38649  -2236511.84246  27988728.2674   27988724.8604
      3347.2974
 -12455592.40649  -9685809.12147  25774874.3994   25774870.9344
     -2638.9844
 -15664349.63549 -12187739.67848  25459821.5014   25459817.4274
      -971.7974
  -9504558.68649  -7388514.97547  26788470.8374   26788467.9194
      2515.4224
 07  4 23  1 11 45.0130000  0 12G 1G12G 2G 4G 6G 5G20G23G13G30G31G 7
  -7007796.02249  -5442402.99547  27062509.2904   27062505.7824
     -3099.3594
   -925663.02449   -702639.02646  28039087.6024   28039083.5674
     -3737.2974
 -13408032.89149 -10429637.23547  25959901.0094   25959895.6344
       658.7504
  -7239751.51449  -5624272.16147  26813649.2124   26813646.1344
     -2265.7344
 -12616991.96249  -9813494.99947  26174495.7904   26174492.4664
      1952.5314
  -3726130.14549  -2883919.79247  27366562.6654   27366558.9194
     -3704.7664
    300232.71349    251322.09746  28302768.6104   28302764.8254
     -3542.1414
 -11765637.17149  -9149543.64047  26315377.4154   26315371.7354
      1733.1884
  -2944145.58549  -2275604.70646  27979181.1574   27979177.5674
      3342.0164
 -12415944.13849  -9654914.38747  25782419.1264   25782415.6534
     -2647.4694
 -15649700.06549 -12176324.43948  25462608.8684   25462605.0994
      -981.5164
  -9542242.37749  -7417878.89347  26781299.7204   26781296.9854
      2509.0784
 07  4 23  1 12  0.0130000  0 12G 1G12G 2G 4G 6G 5G20G23G13G30G31G 7
  -6961257.85749  -5406139.47847  27071365.5244   27071361.8024
     -3105.7344
   -869577.28849   -658935.83246  28049759.5564   28049756.2514
     -3740.6874
 -13417832.12849 -10437273.02747  25958035.7514   25958030.7634
       647.9064
  -7205700.21549  -5597738.68847  26820128.8214   26820126.7554
     -2274.3914
 -12646221.75249  -9836271.43147  26168933.1654   26168929.5714
      1944.7344
  -3670525.23649  -2840591.31247  27377144.4074   27377141.5134
     -3709.1874
    353400.43549    292751.47746  28312885.5014   28312882.3064
     -3546.9374
 -11791564.81649  -9169746.99647  26310442.7674   26310438.0564
      1723.9224
  -2994237.43249  -2314637.27546  27969649.2204   27969645.3604
      3336.8754
 -12376170.16349  -9623921.67547  25789987.5874   25789984.4464
     -2655.7814
 -15634905.05049 -12164795.86548  25465424.5714   25465419.9154
      -991.0784
  -9579833.68449  -7447170.81847  26774146.1964   26774143.8644
      2502.9844
 07  4 23  1 12 15.0130000  0 12G 1G12G 2G 4G 6G 5G20G23G13G30G31G 7
  -6914622.87449  -5369800.54247  27080239.9314   27080236.8844
     -3112.0624
   -813439.75249   -615192.31646  28060442.0324   28060438.9814
     -3744.1094
 -13427468.45749 -10444781.86347  25956202.3844   25956197.6614
       636.9224
  -7171518.31549  -5571103.43447  26826633.4544   26826631.0444
     -2283.0944
 -12675333.17349  -9858955.64247  26163393.2274   26163390.4854
      1936.8914
  -3614851.16249  -2797208.89847  27387738.5954   27387735.3374
     -3713.8124
    406640.26349    334237.07646  28323016.9934   28323013.7474
     -3551.7504
 -11817350.31649  -9189839.59047  26305536.2204   26305531.5954
      1714.3594
  -3044251.98849  -2353609.68046  27960131.7674   27960128.6184
      3331.7814
 -12336271.01149  -9592831.41047  25797580.6964   25797576.9314
     -2664.0474
 -15619964.89949 -12153154.18648  25468267.4774   25468262.9504
     -1000.7814
  -9617332.72949  -7476390.85447  26767010.3684   26767007.9854
      2496.9384
 07  4 23  1 12 30.0130000  0 12G 1G12G 2G 4G 6G 5G20G23G13G30G31G 7
  -6867890.94749  -5333386.04847  27089132.5324   27089129.0244
     -3118.6254
   -757250.28249   -571408.35446  28071134.8844   28071131.7314
     -3747.6874
 -13436941.31049 -10452163.29747  25954399.6264   25954394.8884
       626.1254
  -7137205.57749  -5544366.23847  26833162.9314   26833160.7274
     -2291.8914
 -12704325.66649  -9881547.20847  26157876.4854   26157873.1494
      1928.9064
  -3559107.91549  -2753772.61147  27398346.5564   27398343.6264
     -3718.4064
    459952.30249    375778.87946  28333161.9774   28333158.2354
     -3556.4694
 -11842993.02949  -9209820.93047  26300656.9464   26300651.1924
      1704.7344
  -3094188.52249  -2392521.27946  27950629.8924   27950625.2984
      3326.3594
 -12296246.63249  -9561643.57147  25805196.5174   25805193.3604
     -2672.5004
 -15604879.35149 -12141399.21948  25471138.4544   25471133.7394
     -1010.5164
  -9654738.71549  -7505538.35947  26759892.5324   26759889.7784
      2490.6094
 07  4 23  1 12 45.0130000  0 12G 1G12G 2G 4G 6G 5G20G23G13G30G31G 7
  -6821062.83449  -5296896.60847  27098043.7354   27098040.7704
     -3125.1094
   -701009.57149   -527584.43247  28081836.8134   28081833.5094
     -3751.1724
 -13446250.88949 -10459417.51547  25952628.2204   25952622.9384
       615.1254
  -7102762.73449  -5517527.66347  26839716.7354   26839714.0204
     -2300.5164
 -12733199.36349  -9904046.19347  26152381.7594   26152378.9894
      1920.8914
  -3503296.06349  -2710282.85947  27408966.7514   27408964.0054
     -3723.0624
    513335.77949    417376.42346  28343320.5014   28343318.2864
     -3561.1564
 -11868492.84949  -9229690.90747  26295804.3454   26295799.1574
      1695.1724
  -3144046.91749  -2431371.92046  27941141.8294   27941138.1454
      3321.2504
 -12256097.62349  -9530358.63747  25812836.9774   25812833.9154
     -2680.7974
 -15589648.87649 -12129531.30948  25474036.3214   25474032.3064
     -1020.2664
  -9692051.88249  -7534613.54347  26752791.8604   26752788.7984
      2484.3594
 07  4 23  1 13  0.0130000  0 12G 1G12G 2G 4G 6G 5G20G23G13G30G31G 7
  -6774138.62449  -5260332.30047  27106972.8524   27106969.7084
     -3131.5164
   -644717.73249   -483720.65647  28092549.0954   28092546.2314
     -3754.5004
 -13455397.02749 -10466544.37447  25950887.8684   25950882.4774
       604.2344
  -7068189.68449  -5490587.62847  26846295.9154   26846292.6844
     -2309.3444
 -12761953.99549  -9926452.39147  26146909.8924   26146906.9274
      1912.9224
  -3447415.90749  -2666739.90947  27419600.3844   27419597.6424
     -3727.6564
    566790.39749    459029.37946  28353492.0954   28353488.9704
     -3566.1094
 -11893849.62649  -9249449.44147  26290979.3214   26290974.1424
      1685.6254
  -3193826.66549  -2470161.32446  27931669.2354   27931665.7594
      3315.9064
 -12215824.13349  -9498976.71547  25820500.5564   25820498.1494
     -2689.0784
 -15574273.47649 -12117550.48648  25476962.3994   25476958.1064
     -1029.9064
  -9729271.80449  -7563616.07047  26745709.1024   26745706.2674
      2478.2034
 07  4 23  1 13 15.0130000  0 12G 1G12G 2G 4G 6G 5G20G23G13G30G31G 7
  -6727118.21949  -5223693.01047  27115921.1424   27115917.2084
     -3137.7344
   -588374.76149   -439817.08147  28103271.6884   28103267.8454
     -3757.8284
 -13464379.01549 -10473543.32247  25949178.5324   25949173.6774
       593.3444
  -7033486.55049  -5463546.22347  26852899.6734   26852897.2634
     -2317.8444
 -12790588.72649  -9948765.17447  26141460.6734   26141458.0524
      1905.0474
  -3391467.17849  -2623143.47247  27430246.9154   27430243.8254
     -3732.1254
    620316.19649    500737.85246  28363678.2274   28363674.5174
     -3570.7504
 -11919062.55049  -9269095.87347  26286181.3604   26286175.9384
      1676.0944
  -3243527.02749  -2508888.86346  27922211.1264   27922208.9314
      3310.7504
 -12175425.90049  -9467497.55647  25828188.6344   25828185.2704
     -2697.3754
 -15558752.79749 -12105456.45348  25479915.7904   25479911.2514
     -1039.5164
  -9766397.67549  -7592545.30047  26738643.8134   26738641.2634
      2471.9534
 07  4 23  1 13 30.0130000  0 12G 1G12G 2G 4G 6G 5G20G23G13G30G31G 7
  -6680001.81749  -5186978.95147  27124886.7904   27124883.9154
     -3144.2664
   -531980.81849   -395873.80847  28114003.0094   28113999.7164
     -3761.2504
 -13473196.69849 -10480414.22947  25947500.6184   25947495.1184
       582.4224
  -6998653.28149  -5436403.41647  26859528.8524   26859525.6774
     -2326.5164
 -12819103.31649  -9970984.31747  26136034.9384   26136031.2944
      1896.9694
  -3335450.24049  -2579493.88947  27440906.6964   27440903.2634
     -3736.7034
    673913.05049    542501.61046  28373876.9154   28373874.2594
     -3575.4534
 -11944131.28049  -9288629.96647  26281410.8524   26281404.9314
      1666.4534
  -3293147.49049  -2547554.16446  27912769.4314   27912766.1224
      3305.3914
 -12134903.08049  -9435921.33147  25835899.2124   25835896.4624
     -2705.6724
 -15543086.85249 -12093249.23348  25482896.8924   25482892.8094
     -1049.2194
  -9803429.13649  -7621400.94747  26731597.3524   26731594.1494
      2465.5944
 07  4 23  1 13 45.0130000  0 12G 1G12G 2G 4G 6G 5G20G23G13G30G31G 7
  -6632791.41349  -5150191.61047  27133870.7204   27133868.0874
     -3150.6564
   -475537.76749   -351892.18547  28124743.2824   28124740.5174
     -3764.4844
 -13481851.66649 -10487158.35747  25945853.6494   25945848.2984
       571.5314
  -6963691.93349  -5409160.79947  26866182.2904   26866178.8214
     -2335.0474
 -12847499.20649  -9993110.97147  26130631.6344   26130628.0484
      1889.0164
  -3279367.00149  -2535792.70447  27451578.2434   27451576.2634
     -3741.2034
    727578.84349    584319.10146  28384089.0094   28384086.2634
     -3580.0474
 -11969057.15349  -9308052.72847  26276667.8064   26276662.4624
      1656.9534
  -3342689.28349  -2586158.14246  27903341.2744   27903337.7704
      3300.2034
 -12094257.78549  -9404249.68147  25843633.8134   25843630.5524
     -2713.8594
 -15527277.31049 -12080930.10748  25485905.5714   25485901.3334
     -1058.8284
  -9840367.79449  -7650184.33047  26724567.9624   26724565.3644
      2459.4694
 07  4 23  1 14  0.0130000  0 12G 1G12G 2G 4G 6G 5G20G23G13G30G31G 7
  -6585485.98049  -5113330.24847  27142873.0094   27142869.6814
     -3156.9064
   -419044.76949   -307871.71347  28135493.9624   28135490.7244
     -3767.8594
 -13490342.42449 -10493774.53647  25944238.1964   25944232.7124
       560.5784
  -6928601.41549  -5381817.54847  26872858.7594   26872855.4384
     -2343.7344
 -12875774.78249 -10015143.89047  26125251.0094   26125247.0054
      1880.9064
  -3223216.51249  -2492039.12147  27462264.2354   27462261.1344
     -3745.6724
    781314.65549    626191.09346  28394315.3374   28394311.6774
     -3584.7344
 -11993838.42749  -9327362.81947  26271951.9624   26271946.1964
      1647.2034
  -3392150.74849  -2624699.52446  27893928.8294   27893925.0524
      3294.7504
 -12053489.01549  -9372481.79847  25851392.0244   25851388.5284
     -2722.0784
 -15511323.01749 -12068498.21548  25488941.4074   25488937.2634
     -1068.4534
  -9877211.85049  -7678893.98947  26717557.1964   26717553.9774
      2453.1414
 07  4 23  1 14 15.0130000  0 12G 1G12G 2G 4G 6G 5G16G23G13G30G31G 7
  -6538085.81049  -5076395.04247  27151892.3994   27151889.5054
     -3163.1724
   -362501.65149   -263812.18547  28146253.6424   28146250.4034
     -3771.2504
 -13498668.86849 -10500262.63247  25942653.4074   25942648.3024
       549.5944
  -6893382.15049  -5354373.94947  26879560.9384   26879557.7784
     -2352.2974
 -12903929.82849 -10037082.88947  26119892.7984   26119889.6884
      1872.9534
  -3166998.99449  -2448233.25446  27472961.3604   27472958.4194
     -3750.1094
    -26476.980 9                  28329300.056
      3577.203
 -12018475.09949  -9346560.20147  26267263.8374   26267258.9154
      1637.6254
  -3441531.54849  -2663178.02146  27884531.4624   27884527.9464
      3289.1414
 -12012597.00849  -9340617.89947  25859173.6424   25859169.9464
     -2730.2664
 -15495223.95249 -12055953.49848  25492005.2354   25492000.3524
     -1078.1094
  -9913961.22649  -7707529.86447  26710563.5014   26710561.5794
      2446.8444
 07  4 23  1 14 30.0130000  0 12G 1G12G 2G 4G 6G 5G16G23G13G30G31G 7
  -6490591.42349  -5039386.44547  27160930.3294   27160927.6574
     -3169.3444
   -305909.15149   -219714.11947  28157022.3684   28157019.5794
     -3774.3124
 -13506831.18149 -10506622.87847  25941100.4774   25941095.7204
       538.7814
  -6858034.41249  -5326830.29047  26886287.4074   26886284.2354
     -2360.7194
 -12931964.27049 -10058927.90447  26114558.2594   26114554.8564
      1865.0784
  -3110715.02749  -2404375.62247  27483672.9154   27483668.5674
     -3754.2664
    -80113.67349    -44576.23146  28319092.7594   28319088.9664
      3574.5314
 -12042967.21649  -9365644.97547  26262602.7274   26262598.0174
      1628.1094
  -3490831.24249  -2701593.40146  27875149.6344   27875146.9034
      3284.0944
 -11971582.22849  -9308658.31347  25866978.6574   25866975.0634
     -2738.2504
 -15478980.46849 -12043296.23948  25495095.9624   25495091.9114
     -1087.6564
  -9950615.76349  -7736091.81647  26703588.7594   26703585.8684
      2440.6094
 07  4 23  1 14 45.0130000  0 12G 1G12G 2G 4G 6G 5G16G23G13G30G31G 7
  -6443004.52749  -5002305.75347  27169986.1884   27169982.5444
     -3175.5314
   -249268.96549   -175578.95647  28167800.9934   28167797.6424
     -3777.6254
 -13514830.72549 -10512856.30847  25939578.1654   25939572.8954
       527.8914
  -6822559.79249  -5299187.71947  26893037.3604   26893035.9234
     -2369.1874
 -12959879.34449 -10080679.91247  26109246.5324   26109242.8994
      1857.0634
  -3054366.37049  -2360467.59247  27494395.4544   27494392.1304
     -3758.7814
   -133708.91849    -86338.74946  28308893.9464   28308889.5834
      3571.5004
 -12067315.73749  -9384617.85247  26257969.5714   26257964.4424
      1618.5164
  -3540051.27749  -2739946.60246  27865784.3764   27865780.1924
      3278.5004
 -11930446.55249  -9276604.54147  25874806.7274   25874803.0834
     -2746.3594
 -15462594.10349 -12030527.64348  25498214.1884   25498210.1344
     -1097.2344
  -9987176.48949  -7764580.69347  26696631.3294   26696628.7744
      2434.2504
 07  4 23  1 15  0.0130000  0 12G 1G12G 2G 4G 6G 5G16G23G13G30G31G 7
  -6395323.61449  -4965151.80747  27179059.5244   27179056.4774
     -3181.8124
   -192579.33549   -131405.24246  28178588.2044   28178585.9344
     -3781.1254
 -13522665.29849 -10518961.17047  25938087.2274   25938082.5014
       516.8444
  -6786956.96949  -5271445.28547  26899812.6964   26899811.1734
     -2377.7974
 -12987673.00749 -10102337.30947  26103957.1734   26103953.4894
      1848.8284
  -2997951.36449  -2316507.86547  27505130.5484   27505127.5284
     -3763.0784
   -187260.56149   -128067.24146  28298702.8684   28298698.8564
      3568.3754
 -12091518.63749  -9403477.26047  26253363.8844   26253358.1534
      1608.6414
  -3589189.35449  -2778236.10746  27856434.1494   27856430.1964
      3273.1724
 -11889188.48949  -9244455.41347  25882657.2674   25882654.4194
     -2754.5944
 -15446063.14349 -12017646.37748  25501360.0564   25501355.7394
     -1106.8284
 -10023641.50349  -7792994.99647  26689692.3764   26689689.4424
      2427.8134
 07  4 23  1 15 15.0130000  0 12G 1G12G 2G 4G 6G 5G16G23G13G30G31G 7
  -6347550.36149  -4927925.88247  27188150.6264   27188147.1844
     -3188.0474
   -135842.11749    -87194.42646  28189385.2744   28189381.6104
     -3784.0624
 -13530336.25249 -10524938.55547  25936627.4314   25936622.6654
       505.9384
  -6751227.56149  -5243604.20147  26906612.2744   26906610.4664
     -2386.2034
 -13015346.35949 -10123900.95047  26098691.0714   26098687.9074
      1840.8914
  -2941471.83649  -2272497.84247  27515878.8994   27515875.3454
     -3767.4534
   -240769.65849   -169762.64246  28288520.6184   28288516.4744
      3565.8914
 -12115577.01949  -9422224.05247  26248786.1494   26248780.0094
      1599.0164
  -3638246.45649  -2816462.45146  27847099.0094   27847095.5244
      3267.6414
 -11847809.57349  -9212212.10247  25890531.2274   25890528.2984
     -2762.6254
 -15429388.99449 -12004653.53848  25504532.7514   25504528.7164
     -1116.4374
 -10060011.76249  -7821335.44747  26682771.2594   26682768.5634
      2421.5004
 07  4 23  1 15 30.0130000  0 12G 1G12G 2G 4G 6G 5G16G23G13G30G31G 7
  -6299684.27849  -4890627.63447  27197258.5564   27197255.6774
     -3194.2344
    -79056.73949    -42946.07846  28200191.4774   28200188.1884
     -3787.3444
 -13537842.65749 -10530787.71147  25935199.2354   25935193.9384
       494.8754
  -6715370.84849  -5215663.93247  26913435.5714   26913433.2744
     -2394.7344
 -13042898.27749 -10145369.99247  26093447.9774   26093445.0094
      1832.6884
  -2884927.10649  -2228437.05647  27526638.7204   27526635.8094
     -3771.8754
   -294235.09549   -211424.00846  28278346.5954   28278342.0754
      3562.8594
 -12139489.82149  -9440857.39447  26244235.5794   26244229.4034
      1589.2344
  -3687221.20049  -2854624.57147  27837779.2824   27837775.8214
      3262.1724
 -11806309.21149  -9179874.16947  25898428.4624   25898425.5094
     -2770.7344
 -15412570.98749 -11991548.59148  25507733.2514   25507729.0634
     -1126.0784
 -10096286.27149  -7849601.29247  26675868.8454   26675865.9424
      2415.1254
